<?xml version="1.0" encoding="UTF-8" standalone="no" ?>
<gpx xmlns="http://www.topografix.com/GPX/1/1" xmlns:xsi="http://www.w3.org/2001/XMLSchema-instance" xsi:schemaLocation="http://www.topografix.com/GPX/1/1 http://www.topografix.com/GPX/1/1/gpx.xsd" version="1.1" creator="VisuGPX - https://www.visugpx.com">
  <metadata>
    <name>Randonnée Cahuzac-sur-Vère</name>
    <desc><![CDATA[Topo randonnée du 19 octobre 2014 à Cahuzac-sur-Vère]]></desc>
  </metadata>
  <trk>
    <name><![CDATA[CAHUZAC-18 15:33:12]]></name>
    <trkseg>
      <trkpt lat="43.98313" lon="1.91104">
        <ele>214.99</ele>
        <time>2014-10-18T07:13:00Z</time>
      </trkpt>
      <trkpt lat="43.98315" lon="1.91106">
        <ele>215.95</ele>
        <time>2014-10-18T07:13:19Z</time>
      </trkpt>
      <trkpt lat="43.98316" lon="1.91105">
        <ele>215.95</ele>
        <time>2014-10-18T07:13:28Z</time>
      </trkpt>
      <trkpt lat="43.98316" lon="1.91106">
        <ele>215.47</ele>
        <time>2014-10-18T07:13:49Z</time>
      </trkpt>
      <trkpt lat="43.98319" lon="1.91108">
        <ele>215.47</ele>
        <time>2014-10-18T07:14:10Z</time>
      </trkpt>
      <trkpt lat="43.98319" lon="1.9111">
        <ele>215.47</ele>
        <time>2014-10-18T07:14:30Z</time>
      </trkpt>
      <trkpt lat="43.98318" lon="1.91111">
        <ele>215.47</ele>
        <time>2014-10-18T07:14:54Z</time>
      </trkpt>
      <trkpt lat="43.9832" lon="1.91107">
        <ele>215.47</ele>
        <time>2014-10-18T07:15:14Z</time>
      </trkpt>
      <trkpt lat="43.98314" lon="1.91108">
        <ele>215.47</ele>
        <time>2014-10-18T07:15:32Z</time>
      </trkpt>
      <trkpt lat="43.98314" lon="1.91109">
        <ele>215.47</ele>
        <time>2014-10-18T07:15:50Z</time>
      </trkpt>
      <trkpt lat="43.98316" lon="1.9111">
        <ele>215.47</ele>
        <time>2014-10-18T07:16:09Z</time>
      </trkpt>
      <trkpt lat="43.98316" lon="1.91111">
        <ele>215.47</ele>
        <time>2014-10-18T07:16:27Z</time>
      </trkpt>
      <trkpt lat="43.98317" lon="1.91111">
        <ele>215.47</ele>
        <time>2014-10-18T07:16:51Z</time>
      </trkpt>
      <trkpt lat="43.98318" lon="1.91105">
        <ele>215.47</ele>
        <time>2014-10-18T07:17:04Z</time>
      </trkpt>
      <trkpt lat="43.98319" lon="1.91106">
        <ele>215.47</ele>
        <time>2014-10-18T07:17:27Z</time>
      </trkpt>
      <trkpt lat="43.98318" lon="1.91104">
        <ele>215.47</ele>
        <time>2014-10-18T07:17:53Z</time>
      </trkpt>
      <trkpt lat="43.98316" lon="1.91103">
        <ele>215.95</ele>
        <time>2014-10-18T07:18:20Z</time>
      </trkpt>
      <trkpt lat="43.98317" lon="1.91101">
        <ele>216.43</ele>
        <time>2014-10-18T07:18:37Z</time>
      </trkpt>
      <trkpt lat="43.98316" lon="1.91092">
        <ele>215.95</ele>
        <time>2014-10-18T07:18:52Z</time>
      </trkpt>
      <trkpt lat="43.98313" lon="1.91089">
        <ele>216.43</ele>
        <time>2014-10-18T07:19:04Z</time>
      </trkpt>
      <trkpt lat="43.9831" lon="1.91081">
        <ele>216.91</ele>
        <time>2014-10-18T07:19:15Z</time>
      </trkpt>
      <trkpt lat="43.98309" lon="1.91078">
        <ele>216.91</ele>
        <time>2014-10-18T07:19:19Z</time>
      </trkpt>
      <trkpt lat="43.98309" lon="1.91074">
        <ele>217.88</ele>
        <time>2014-10-18T07:19:23Z</time>
      </trkpt>
      <trkpt lat="43.98303" lon="1.9106">
        <ele>217.88</ele>
        <time>2014-10-18T07:19:31Z</time>
      </trkpt>
      <trkpt lat="43.98301" lon="1.91053">
        <ele>218.36</ele>
        <time>2014-10-18T07:19:37Z</time>
      </trkpt>
      <trkpt lat="43.983" lon="1.91046">
        <ele>218.84</ele>
        <time>2014-10-18T07:19:43Z</time>
      </trkpt>
      <trkpt lat="43.98299" lon="1.91033">
        <ele>219.32</ele>
        <time>2014-10-18T07:19:52Z</time>
      </trkpt>
      <trkpt lat="43.98298" lon="1.91029">
        <ele>219.8</ele>
        <time>2014-10-18T07:19:56Z</time>
      </trkpt>
      <trkpt lat="43.98295" lon="1.91018">
        <ele>218.84</ele>
        <time>2014-10-18T07:20:07Z</time>
      </trkpt>
      <trkpt lat="43.98295" lon="1.91017">
        <ele>218.36</ele>
        <time>2014-10-18T07:20:08Z</time>
      </trkpt>
      <trkpt lat="43.98296" lon="1.91015">
        <ele>218.36</ele>
        <time>2014-10-18T07:20:10Z</time>
      </trkpt>
      <trkpt lat="43.98301" lon="1.91004">
        <ele>218.84</ele>
        <time>2014-10-18T07:20:19Z</time>
      </trkpt>
      <trkpt lat="43.98305" lon="1.91001">
        <ele>218.84</ele>
        <time>2014-10-18T07:20:24Z</time>
      </trkpt>
      <trkpt lat="43.98315" lon="1.90995">
        <ele>219.32</ele>
        <time>2014-10-18T07:20:34Z</time>
      </trkpt>
      <trkpt lat="43.98315" lon="1.90995">
        <ele>219.32</ele>
        <time>2014-10-18T07:20:35Z</time>
      </trkpt>
      <trkpt lat="43.9832" lon="1.90991">
        <ele>218.84</ele>
        <time>2014-10-18T07:20:41Z</time>
      </trkpt>
      <trkpt lat="43.98331" lon="1.90982">
        <ele>219.8</ele>
        <time>2014-10-18T07:20:51Z</time>
      </trkpt>
      <trkpt lat="43.98333" lon="1.90978">
        <ele>220.28</ele>
        <time>2014-10-18T07:20:54Z</time>
      </trkpt>
      <trkpt lat="43.98334" lon="1.90954">
        <ele>221.24</ele>
        <time>2014-10-18T07:21:04Z</time>
      </trkpt>
      <trkpt lat="43.98334" lon="1.90938">
        <ele>221.24</ele>
        <time>2014-10-18T07:21:12Z</time>
      </trkpt>
      <trkpt lat="43.98333" lon="1.90931">
        <ele>222.68</ele>
        <time>2014-10-18T07:21:20Z</time>
      </trkpt>
      <trkpt lat="43.98326" lon="1.90917">
        <ele>224.12</ele>
        <time>2014-10-18T07:21:32Z</time>
      </trkpt>
      <trkpt lat="43.98317" lon="1.90904">
        <ele>225.09</ele>
        <time>2014-10-18T07:21:42Z</time>
      </trkpt>
      <trkpt lat="43.98307" lon="1.90887">
        <ele>226.05</ele>
        <time>2014-10-18T07:21:54Z</time>
      </trkpt>
      <trkpt lat="43.98303" lon="1.90881">
        <ele>226.05</ele>
        <time>2014-10-18T07:21:58Z</time>
      </trkpt>
      <trkpt lat="43.98294" lon="1.9087">
        <ele>227.01</ele>
        <time>2014-10-18T07:22:10Z</time>
      </trkpt>
      <trkpt lat="43.98287" lon="1.90854">
        <ele>227.01</ele>
        <time>2014-10-18T07:22:21Z</time>
      </trkpt>
      <trkpt lat="43.98283" lon="1.9084">
        <ele>227.97</ele>
        <time>2014-10-18T07:22:31Z</time>
      </trkpt>
      <trkpt lat="43.98275" lon="1.90824">
        <ele>227.97</ele>
        <time>2014-10-18T07:22:43Z</time>
      </trkpt>
      <trkpt lat="43.98268" lon="1.90813">
        <ele>227.97</ele>
        <time>2014-10-18T07:22:52Z</time>
      </trkpt>
      <trkpt lat="43.98262" lon="1.90801">
        <ele>227.49</ele>
        <time>2014-10-18T07:23:02Z</time>
      </trkpt>
      <trkpt lat="43.98259" lon="1.90798">
        <ele>227.97</ele>
        <time>2014-10-18T07:23:05Z</time>
      </trkpt>
      <trkpt lat="43.98255" lon="1.90789">
        <ele>227.97</ele>
        <time>2014-10-18T07:23:11Z</time>
      </trkpt>
      <trkpt lat="43.98248" lon="1.90772">
        <ele>228.45</ele>
        <time>2014-10-18T07:23:22Z</time>
      </trkpt>
      <trkpt lat="43.98242" lon="1.90759">
        <ele>227.97</ele>
        <time>2014-10-18T07:23:31Z</time>
      </trkpt>
      <trkpt lat="43.98235" lon="1.90743">
        <ele>228.45</ele>
        <time>2014-10-18T07:23:41Z</time>
      </trkpt>
      <trkpt lat="43.98232" lon="1.90738">
        <ele>228.93</ele>
        <time>2014-10-18T07:23:47Z</time>
      </trkpt>
      <trkpt lat="43.98228" lon="1.90733">
        <ele>228.93</ele>
        <time>2014-10-18T07:23:52Z</time>
      </trkpt>
      <trkpt lat="43.98221" lon="1.90714">
        <ele>229.41</ele>
        <time>2014-10-18T07:24:02Z</time>
      </trkpt>
      <trkpt lat="43.98213" lon="1.90698">
        <ele>229.41</ele>
        <time>2014-10-18T07:24:14Z</time>
      </trkpt>
      <trkpt lat="43.98204" lon="1.9069">
        <ele>229.89</ele>
        <time>2014-10-18T07:24:25Z</time>
      </trkpt>
      <trkpt lat="43.98197" lon="1.90682">
        <ele>230.37</ele>
        <time>2014-10-18T07:24:33Z</time>
      </trkpt>
      <trkpt lat="43.98196" lon="1.90678">
        <ele>230.37</ele>
        <time>2014-10-18T07:24:35Z</time>
      </trkpt>
      <trkpt lat="43.98189" lon="1.9066">
        <ele>230.37</ele>
        <time>2014-10-18T07:24:46Z</time>
      </trkpt>
      <trkpt lat="43.98185" lon="1.90651">
        <ele>230.85</ele>
        <time>2014-10-18T07:24:52Z</time>
      </trkpt>
      <trkpt lat="43.98182" lon="1.90635">
        <ele>230.85</ele>
        <time>2014-10-18T07:25:03Z</time>
      </trkpt>
      <trkpt lat="43.98181" lon="1.90618">
        <ele>231.33</ele>
        <time>2014-10-18T07:25:13Z</time>
      </trkpt>
      <trkpt lat="43.9818" lon="1.90612">
        <ele>231.33</ele>
        <time>2014-10-18T07:25:17Z</time>
      </trkpt>
      <trkpt lat="43.98175" lon="1.90597">
        <ele>231.33</ele>
        <time>2014-10-18T07:25:27Z</time>
      </trkpt>
      <trkpt lat="43.98172" lon="1.90582">
        <ele>231.81</ele>
        <time>2014-10-18T07:25:37Z</time>
      </trkpt>
      <trkpt lat="43.9817" lon="1.90571">
        <ele>231.81</ele>
        <time>2014-10-18T07:25:45Z</time>
      </trkpt>
      <trkpt lat="43.98168" lon="1.90568">
        <ele>231.81</ele>
        <time>2014-10-18T07:25:47Z</time>
      </trkpt>
      <trkpt lat="43.98168" lon="1.90563">
        <ele>231.81</ele>
        <time>2014-10-18T07:25:50Z</time>
      </trkpt>
      <trkpt lat="43.98163" lon="1.9055">
        <ele>232.3</ele>
        <time>2014-10-18T07:25:57Z</time>
      </trkpt>
      <trkpt lat="43.98155" lon="1.90534">
        <ele>232.3</ele>
        <time>2014-10-18T07:26:08Z</time>
      </trkpt>
      <trkpt lat="43.98153" lon="1.90532">
        <ele>232.78</ele>
        <time>2014-10-18T07:26:10Z</time>
      </trkpt>
      <trkpt lat="43.9815" lon="1.90524">
        <ele>232.3</ele>
        <time>2014-10-18T07:26:14Z</time>
      </trkpt>
      <trkpt lat="43.9815" lon="1.90521">
        <ele>232.3</ele>
        <time>2014-10-18T07:26:16Z</time>
      </trkpt>
      <trkpt lat="43.98142" lon="1.90503">
        <ele>232.78</ele>
        <time>2014-10-18T07:26:27Z</time>
      </trkpt>
      <trkpt lat="43.98138" lon="1.90491">
        <ele>233.26</ele>
        <time>2014-10-18T07:26:36Z</time>
      </trkpt>
      <trkpt lat="43.98136" lon="1.90481">
        <ele>233.26</ele>
        <time>2014-10-18T07:26:44Z</time>
      </trkpt>
      <trkpt lat="43.98133" lon="1.90475">
        <ele>233.26</ele>
        <time>2014-10-18T07:26:48Z</time>
      </trkpt>
      <trkpt lat="43.98127" lon="1.9046">
        <ele>233.26</ele>
        <time>2014-10-18T07:26:59Z</time>
      </trkpt>
      <trkpt lat="43.98121" lon="1.90445">
        <ele>233.74</ele>
        <time>2014-10-18T07:27:09Z</time>
      </trkpt>
      <trkpt lat="43.9812" lon="1.90439">
        <ele>233.26</ele>
        <time>2014-10-18T07:27:13Z</time>
      </trkpt>
      <trkpt lat="43.98119" lon="1.90437">
        <ele>233.26</ele>
        <time>2014-10-18T07:27:14Z</time>
      </trkpt>
      <trkpt lat="43.98118" lon="1.90435">
        <ele>233.26</ele>
        <time>2014-10-18T07:27:15Z</time>
      </trkpt>
      <trkpt lat="43.98118" lon="1.90433">
        <ele>233.26</ele>
        <time>2014-10-18T07:27:16Z</time>
      </trkpt>
      <trkpt lat="43.98117" lon="1.90431">
        <ele>233.74</ele>
        <time>2014-10-18T07:27:17Z</time>
      </trkpt>
      <trkpt lat="43.98115" lon="1.90425">
        <ele>233.26</ele>
        <time>2014-10-18T07:27:21Z</time>
      </trkpt>
      <trkpt lat="43.98115" lon="1.9042">
        <ele>233.74</ele>
        <time>2014-10-18T07:27:25Z</time>
      </trkpt>
      <trkpt lat="43.9811" lon="1.90401">
        <ele>233.26</ele>
        <time>2014-10-18T07:27:36Z</time>
      </trkpt>
      <trkpt lat="43.98109" lon="1.90398">
        <ele>233.74</ele>
        <time>2014-10-18T07:27:38Z</time>
      </trkpt>
      <trkpt lat="43.98109" lon="1.90396">
        <ele>233.26</ele>
        <time>2014-10-18T07:27:39Z</time>
      </trkpt>
      <trkpt lat="43.98109" lon="1.9039">
        <ele>233.74</ele>
        <time>2014-10-18T07:27:44Z</time>
      </trkpt>
      <trkpt lat="43.98109" lon="1.90389">
        <ele>234.22</ele>
        <time>2014-10-18T07:27:45Z</time>
      </trkpt>
      <trkpt lat="43.98104" lon="1.90374">
        <ele>234.22</ele>
        <time>2014-10-18T07:27:55Z</time>
      </trkpt>
      <trkpt lat="43.98101" lon="1.90365">
        <ele>234.22</ele>
        <time>2014-10-18T07:28:02Z</time>
      </trkpt>
      <trkpt lat="43.98101" lon="1.90363">
        <ele>234.7</ele>
        <time>2014-10-18T07:28:03Z</time>
      </trkpt>
      <trkpt lat="43.981" lon="1.90358">
        <ele>234.22</ele>
        <time>2014-10-18T07:28:06Z</time>
      </trkpt>
      <trkpt lat="43.981" lon="1.90357">
        <ele>235.18</ele>
        <time>2014-10-18T07:28:07Z</time>
      </trkpt>
      <trkpt lat="43.981" lon="1.90354">
        <ele>235.18</ele>
        <time>2014-10-18T07:28:08Z</time>
      </trkpt>
      <trkpt lat="43.98099" lon="1.90352">
        <ele>235.18</ele>
        <time>2014-10-18T07:28:09Z</time>
      </trkpt>
      <trkpt lat="43.98098" lon="1.90351">
        <ele>234.7</ele>
        <time>2014-10-18T07:28:10Z</time>
      </trkpt>
      <trkpt lat="43.98097" lon="1.90349">
        <ele>234.7</ele>
        <time>2014-10-18T07:28:12Z</time>
      </trkpt>
      <trkpt lat="43.98096" lon="1.90347">
        <ele>235.18</ele>
        <time>2014-10-18T07:28:13Z</time>
      </trkpt>
      <trkpt lat="43.98095" lon="1.90344">
        <ele>235.18</ele>
        <time>2014-10-18T07:28:14Z</time>
      </trkpt>
      <trkpt lat="43.98094" lon="1.90339">
        <ele>235.18</ele>
        <time>2014-10-18T07:28:18Z</time>
      </trkpt>
      <trkpt lat="43.98094" lon="1.90337">
        <ele>235.18</ele>
        <time>2014-10-18T07:28:19Z</time>
      </trkpt>
      <trkpt lat="43.98094" lon="1.90335">
        <ele>235.18</ele>
        <time>2014-10-18T07:28:20Z</time>
      </trkpt>
      <trkpt lat="43.98093" lon="1.90333">
        <ele>235.18</ele>
        <time>2014-10-18T07:28:21Z</time>
      </trkpt>
      <trkpt lat="43.98086" lon="1.90317">
        <ele>233.74</ele>
        <time>2014-10-18T07:28:30Z</time>
      </trkpt>
      <trkpt lat="43.98085" lon="1.90315">
        <ele>236.62</ele>
        <time>2014-10-18T07:28:31Z</time>
      </trkpt>
      <trkpt lat="43.98084" lon="1.90313">
        <ele>235.66</ele>
        <time>2014-10-18T07:28:32Z</time>
      </trkpt>
      <trkpt lat="43.98077" lon="1.90305">
        <ele>236.14</ele>
        <time>2014-10-18T07:28:43Z</time>
      </trkpt>
      <trkpt lat="43.98079" lon="1.90305">
        <ele>235.18</ele>
        <time>2014-10-18T07:28:57Z</time>
      </trkpt>
      <trkpt lat="43.98077" lon="1.90308">
        <ele>235.18</ele>
        <time>2014-10-18T07:29:11Z</time>
      </trkpt>
      <trkpt lat="43.98077" lon="1.90302">
        <ele>235.66</ele>
        <time>2014-10-18T07:29:26Z</time>
      </trkpt>
      <trkpt lat="43.98073" lon="1.90301">
        <ele>235.18</ele>
        <time>2014-10-18T07:29:39Z</time>
      </trkpt>
      <trkpt lat="43.98072" lon="1.90301">
        <ele>235.18</ele>
        <time>2014-10-18T07:29:58Z</time>
      </trkpt>
      <trkpt lat="43.9807" lon="1.90296">
        <ele>235.18</ele>
        <time>2014-10-18T07:30:22Z</time>
      </trkpt>
      <trkpt lat="43.98072" lon="1.903">
        <ele>234.7</ele>
        <time>2014-10-18T07:30:39Z</time>
      </trkpt>
      <trkpt lat="43.98073" lon="1.90304">
        <ele>234.7</ele>
        <time>2014-10-18T07:30:57Z</time>
      </trkpt>
      <trkpt lat="43.98074" lon="1.90302">
        <ele>234.7</ele>
        <time>2014-10-18T07:31:20Z</time>
      </trkpt>
      <trkpt lat="43.98076" lon="1.90304">
        <ele>234.7</ele>
        <time>2014-10-18T07:31:31Z</time>
      </trkpt>
      <trkpt lat="43.98077" lon="1.90301">
        <ele>235.18</ele>
        <time>2014-10-18T07:31:55Z</time>
      </trkpt>
      <trkpt lat="43.98077" lon="1.90301">
        <ele>234.7</ele>
        <time>2014-10-18T07:31:56Z</time>
      </trkpt>
      <trkpt lat="43.98076" lon="1.90305">
        <ele>234.7</ele>
        <time>2014-10-18T07:32:05Z</time>
      </trkpt>
      <trkpt lat="43.98077" lon="1.90305">
        <ele>234.7</ele>
        <time>2014-10-18T07:32:07Z</time>
      </trkpt>
      <trkpt lat="43.98081" lon="1.90304">
        <ele>234.7</ele>
        <time>2014-10-18T07:32:16Z</time>
      </trkpt>
      <trkpt lat="43.98081" lon="1.903">
        <ele>234.7</ele>
        <time>2014-10-18T07:32:28Z</time>
      </trkpt>
      <trkpt lat="43.98082" lon="1.90299">
        <ele>234.7</ele>
        <time>2014-10-18T07:32:43Z</time>
      </trkpt>
      <trkpt lat="43.98081" lon="1.90295">
        <ele>234.7</ele>
        <time>2014-10-18T07:33:07Z</time>
      </trkpt>
      <trkpt lat="43.98079" lon="1.903">
        <ele>234.7</ele>
        <time>2014-10-18T07:33:19Z</time>
      </trkpt>
      <trkpt lat="43.98073" lon="1.90296">
        <ele>234.7</ele>
        <time>2014-10-18T07:33:28Z</time>
      </trkpt>
      <trkpt lat="43.98064" lon="1.9029">
        <ele>234.22</ele>
        <time>2014-10-18T07:33:37Z</time>
      </trkpt>
      <trkpt lat="43.98055" lon="1.90284">
        <ele>234.22</ele>
        <time>2014-10-18T07:33:47Z</time>
      </trkpt>
      <trkpt lat="43.98044" lon="1.90276">
        <ele>233.74</ele>
        <time>2014-10-18T07:33:58Z</time>
      </trkpt>
      <trkpt lat="43.98036" lon="1.9027">
        <ele>233.26</ele>
        <time>2014-10-18T07:34:07Z</time>
      </trkpt>
      <trkpt lat="43.98031" lon="1.90273">
        <ele>233.74</ele>
        <time>2014-10-18T07:34:17Z</time>
      </trkpt>
      <trkpt lat="43.98026" lon="1.90269">
        <ele>233.26</ele>
        <time>2014-10-18T07:34:27Z</time>
      </trkpt>
      <trkpt lat="43.98019" lon="1.90262">
        <ele>232.78</ele>
        <time>2014-10-18T07:34:37Z</time>
      </trkpt>
      <trkpt lat="43.9801" lon="1.90255">
        <ele>233.26</ele>
        <time>2014-10-18T07:34:46Z</time>
      </trkpt>
      <trkpt lat="43.98006" lon="1.90252">
        <ele>232.78</ele>
        <time>2014-10-18T07:34:50Z</time>
      </trkpt>
      <trkpt lat="43.98005" lon="1.90251">
        <ele>232.78</ele>
        <time>2014-10-18T07:34:51Z</time>
      </trkpt>
      <trkpt lat="43.97995" lon="1.90244">
        <ele>232.3</ele>
        <time>2014-10-18T07:35:00Z</time>
      </trkpt>
      <trkpt lat="43.97985" lon="1.90237">
        <ele>232.3</ele>
        <time>2014-10-18T07:35:10Z</time>
      </trkpt>
      <trkpt lat="43.97983" lon="1.90235">
        <ele>231.81</ele>
        <time>2014-10-18T07:35:12Z</time>
      </trkpt>
      <trkpt lat="43.97982" lon="1.90234">
        <ele>231.81</ele>
        <time>2014-10-18T07:35:13Z</time>
      </trkpt>
      <trkpt lat="43.97974" lon="1.90229">
        <ele>232.3</ele>
        <time>2014-10-18T07:35:22Z</time>
      </trkpt>
      <trkpt lat="43.97968" lon="1.90223">
        <ele>231.81</ele>
        <time>2014-10-18T07:35:28Z</time>
      </trkpt>
      <trkpt lat="43.97966" lon="1.90222">
        <ele>232.3</ele>
        <time>2014-10-18T07:35:30Z</time>
      </trkpt>
      <trkpt lat="43.97964" lon="1.90221">
        <ele>231.33</ele>
        <time>2014-10-18T07:35:31Z</time>
      </trkpt>
      <trkpt lat="43.97963" lon="1.9022">
        <ele>231.33</ele>
        <time>2014-10-18T07:35:32Z</time>
      </trkpt>
      <trkpt lat="43.97952" lon="1.90216">
        <ele>231.81</ele>
        <time>2014-10-18T07:35:41Z</time>
      </trkpt>
      <trkpt lat="43.97944" lon="1.90208">
        <ele>231.81</ele>
        <time>2014-10-18T07:35:51Z</time>
      </trkpt>
      <trkpt lat="43.97935" lon="1.902">
        <ele>231.33</ele>
        <time>2014-10-18T07:36:00Z</time>
      </trkpt>
      <trkpt lat="43.97925" lon="1.90193">
        <ele>231.33</ele>
        <time>2014-10-18T07:36:08Z</time>
      </trkpt>
      <trkpt lat="43.97917" lon="1.90186">
        <ele>230.85</ele>
        <time>2014-10-18T07:36:17Z</time>
      </trkpt>
      <trkpt lat="43.97916" lon="1.90185">
        <ele>231.33</ele>
        <time>2014-10-18T07:36:18Z</time>
      </trkpt>
      <trkpt lat="43.97915" lon="1.90184">
        <ele>231.81</ele>
        <time>2014-10-18T07:36:19Z</time>
      </trkpt>
      <trkpt lat="43.97904" lon="1.90173">
        <ele>231.33</ele>
        <time>2014-10-18T07:36:29Z</time>
      </trkpt>
      <trkpt lat="43.97897" lon="1.90166">
        <ele>229.89</ele>
        <time>2014-10-18T07:36:39Z</time>
      </trkpt>
      <trkpt lat="43.97896" lon="1.90165">
        <ele>229.89</ele>
        <time>2014-10-18T07:36:40Z</time>
      </trkpt>
      <trkpt lat="43.97888" lon="1.90159">
        <ele>228.45</ele>
        <time>2014-10-18T07:36:48Z</time>
      </trkpt>
      <trkpt lat="43.97887" lon="1.90157">
        <ele>228.45</ele>
        <time>2014-10-18T07:36:49Z</time>
      </trkpt>
      <trkpt lat="43.97876" lon="1.90152">
        <ele>227.49</ele>
        <time>2014-10-18T07:36:58Z</time>
      </trkpt>
      <trkpt lat="43.97866" lon="1.90146">
        <ele>226.05</ele>
        <time>2014-10-18T07:37:10Z</time>
      </trkpt>
      <trkpt lat="43.97855" lon="1.90144">
        <ele>224.12</ele>
        <time>2014-10-18T07:37:19Z</time>
      </trkpt>
      <trkpt lat="43.97845" lon="1.90141">
        <ele>223.16</ele>
        <time>2014-10-18T07:37:28Z</time>
      </trkpt>
      <trkpt lat="43.97837" lon="1.90138">
        <ele>221.72</ele>
        <time>2014-10-18T07:37:37Z</time>
      </trkpt>
      <trkpt lat="43.97836" lon="1.90138">
        <ele>221.24</ele>
        <time>2014-10-18T07:37:38Z</time>
      </trkpt>
      <trkpt lat="43.97826" lon="1.90133">
        <ele>219.32</ele>
        <time>2014-10-18T07:37:48Z</time>
      </trkpt>
      <trkpt lat="43.97816" lon="1.90128">
        <ele>218.84</ele>
        <time>2014-10-18T07:37:57Z</time>
      </trkpt>
      <trkpt lat="43.97805" lon="1.90124">
        <ele>218.36</ele>
        <time>2014-10-18T07:38:06Z</time>
      </trkpt>
      <trkpt lat="43.97795" lon="1.90121">
        <ele>217.88</ele>
        <time>2014-10-18T07:38:15Z</time>
      </trkpt>
      <trkpt lat="43.97788" lon="1.90112">
        <ele>217.88</ele>
        <time>2014-10-18T07:38:25Z</time>
      </trkpt>
      <trkpt lat="43.97788" lon="1.9011">
        <ele>218.36</ele>
        <time>2014-10-18T07:38:26Z</time>
      </trkpt>
      <trkpt lat="43.97787" lon="1.90109">
        <ele>218.36</ele>
        <time>2014-10-18T07:38:27Z</time>
      </trkpt>
      <trkpt lat="43.97786" lon="1.90102">
        <ele>217.88</ele>
        <time>2014-10-18T07:38:32Z</time>
      </trkpt>
      <trkpt lat="43.97786" lon="1.901">
        <ele>218.36</ele>
        <time>2014-10-18T07:38:33Z</time>
      </trkpt>
      <trkpt lat="43.97785" lon="1.90095">
        <ele>217.88</ele>
        <time>2014-10-18T07:38:37Z</time>
      </trkpt>
      <trkpt lat="43.97785" lon="1.90094">
        <ele>218.36</ele>
        <time>2014-10-18T07:38:38Z</time>
      </trkpt>
      <trkpt lat="43.97785" lon="1.90093">
        <ele>217.88</ele>
        <time>2014-10-18T07:38:39Z</time>
      </trkpt>
      <trkpt lat="43.97787" lon="1.90082">
        <ele>218.84</ele>
        <time>2014-10-18T07:38:47Z</time>
      </trkpt>
      <trkpt lat="43.97787" lon="1.90081">
        <ele>218.84</ele>
        <time>2014-10-18T07:38:48Z</time>
      </trkpt>
      <trkpt lat="43.97787" lon="1.90079">
        <ele>218.84</ele>
        <time>2014-10-18T07:38:49Z</time>
      </trkpt>
      <trkpt lat="43.97788" lon="1.90076">
        <ele>218.36</ele>
        <time>2014-10-18T07:38:50Z</time>
      </trkpt>
      <trkpt lat="43.97788" lon="1.90075">
        <ele>218.84</ele>
        <time>2014-10-18T07:38:51Z</time>
      </trkpt>
      <trkpt lat="43.97793" lon="1.90063">
        <ele>218.36</ele>
        <time>2014-10-18T07:39:00Z</time>
      </trkpt>
      <trkpt lat="43.97801" lon="1.90054">
        <ele>218.84</ele>
        <time>2014-10-18T07:39:10Z</time>
      </trkpt>
      <trkpt lat="43.97803" lon="1.90049">
        <ele>218.84</ele>
        <time>2014-10-18T07:39:15Z</time>
      </trkpt>
      <trkpt lat="43.97803" lon="1.90045">
        <ele>219.32</ele>
        <time>2014-10-18T07:39:19Z</time>
      </trkpt>
      <trkpt lat="43.978" lon="1.90034">
        <ele>219.8</ele>
        <time>2014-10-18T07:39:27Z</time>
      </trkpt>
      <trkpt lat="43.97798" lon="1.90029">
        <ele>219.8</ele>
        <time>2014-10-18T07:39:30Z</time>
      </trkpt>
      <trkpt lat="43.97798" lon="1.90027">
        <ele>219.8</ele>
        <time>2014-10-18T07:39:31Z</time>
      </trkpt>
      <trkpt lat="43.9779" lon="1.90008">
        <ele>220.28</ele>
        <time>2014-10-18T07:39:40Z</time>
      </trkpt>
      <trkpt lat="43.97785" lon="1.89998">
        <ele>220.76</ele>
        <time>2014-10-18T07:39:47Z</time>
      </trkpt>
      <trkpt lat="43.97782" lon="1.89994">
        <ele>221.24</ele>
        <time>2014-10-18T07:39:52Z</time>
      </trkpt>
      <trkpt lat="43.97781" lon="1.89993">
        <ele>220.28</ele>
        <time>2014-10-18T07:39:53Z</time>
      </trkpt>
      <trkpt lat="43.9778" lon="1.89992">
        <ele>220.28</ele>
        <time>2014-10-18T07:39:54Z</time>
      </trkpt>
      <trkpt lat="43.97773" lon="1.89982">
        <ele>220.28</ele>
        <time>2014-10-18T07:40:02Z</time>
      </trkpt>
      <trkpt lat="43.97773" lon="1.8998">
        <ele>220.76</ele>
        <time>2014-10-18T07:40:03Z</time>
      </trkpt>
      <trkpt lat="43.97772" lon="1.89979">
        <ele>220.76</ele>
        <time>2014-10-18T07:40:04Z</time>
      </trkpt>
      <trkpt lat="43.97771" lon="1.89977">
        <ele>220.76</ele>
        <time>2014-10-18T07:40:06Z</time>
      </trkpt>
      <trkpt lat="43.9777" lon="1.89976">
        <ele>221.24</ele>
        <time>2014-10-18T07:40:07Z</time>
      </trkpt>
      <trkpt lat="43.97769" lon="1.89974">
        <ele>220.76</ele>
        <time>2014-10-18T07:40:08Z</time>
      </trkpt>
      <trkpt lat="43.97768" lon="1.89973">
        <ele>221.24</ele>
        <time>2014-10-18T07:40:09Z</time>
      </trkpt>
      <trkpt lat="43.97767" lon="1.89972">
        <ele>221.24</ele>
        <time>2014-10-18T07:40:10Z</time>
      </trkpt>
      <trkpt lat="43.97758" lon="1.89961">
        <ele>221.24</ele>
        <time>2014-10-18T07:40:21Z</time>
      </trkpt>
      <trkpt lat="43.97755" lon="1.89952">
        <ele>221.24</ele>
        <time>2014-10-18T07:40:29Z</time>
      </trkpt>
      <trkpt lat="43.97754" lon="1.89949">
        <ele>221.72</ele>
        <time>2014-10-18T07:40:31Z</time>
      </trkpt>
      <trkpt lat="43.97753" lon="1.89948">
        <ele>221.72</ele>
        <time>2014-10-18T07:40:32Z</time>
      </trkpt>
      <trkpt lat="43.97747" lon="1.89934">
        <ele>221.72</ele>
        <time>2014-10-18T07:40:41Z</time>
      </trkpt>
      <trkpt lat="43.97744" lon="1.89931">
        <ele>221.72</ele>
        <time>2014-10-18T07:40:44Z</time>
      </trkpt>
      <trkpt lat="43.97743" lon="1.8993">
        <ele>221.24</ele>
        <time>2014-10-18T07:40:45Z</time>
      </trkpt>
      <trkpt lat="43.97743" lon="1.89928">
        <ele>222.2</ele>
        <time>2014-10-18T07:40:46Z</time>
      </trkpt>
      <trkpt lat="43.97741" lon="1.89912">
        <ele>222.2</ele>
        <time>2014-10-18T07:40:57Z</time>
      </trkpt>
      <trkpt lat="43.97736" lon="1.89898">
        <ele>223.16</ele>
        <time>2014-10-18T07:41:06Z</time>
      </trkpt>
      <trkpt lat="43.9773" lon="1.89888">
        <ele>223.64</ele>
        <time>2014-10-18T07:41:16Z</time>
      </trkpt>
      <trkpt lat="43.97728" lon="1.89883">
        <ele>223.16</ele>
        <time>2014-10-18T07:41:19Z</time>
      </trkpt>
      <trkpt lat="43.97728" lon="1.89882">
        <ele>223.64</ele>
        <time>2014-10-18T07:41:20Z</time>
      </trkpt>
      <trkpt lat="43.97726" lon="1.89879">
        <ele>223.64</ele>
        <time>2014-10-18T07:41:23Z</time>
      </trkpt>
      <trkpt lat="43.97726" lon="1.89878">
        <ele>224.12</ele>
        <time>2014-10-18T07:41:24Z</time>
      </trkpt>
      <trkpt lat="43.97717" lon="1.89864">
        <ele>224.61</ele>
        <time>2014-10-18T07:41:35Z</time>
      </trkpt>
      <trkpt lat="43.97716" lon="1.89862">
        <ele>224.61</ele>
        <time>2014-10-18T07:41:36Z</time>
      </trkpt>
      <trkpt lat="43.97716" lon="1.89861">
        <ele>224.61</ele>
        <time>2014-10-18T07:41:37Z</time>
      </trkpt>
      <trkpt lat="43.97714" lon="1.89856">
        <ele>224.61</ele>
        <time>2014-10-18T07:41:40Z</time>
      </trkpt>
      <trkpt lat="43.97714" lon="1.89854">
        <ele>224.61</ele>
        <time>2014-10-18T07:41:41Z</time>
      </trkpt>
      <trkpt lat="43.97711" lon="1.89848">
        <ele>224.61</ele>
        <time>2014-10-18T07:41:46Z</time>
      </trkpt>
      <trkpt lat="43.97709" lon="1.89845">
        <ele>225.09</ele>
        <time>2014-10-18T07:41:49Z</time>
      </trkpt>
      <trkpt lat="43.97708" lon="1.89843">
        <ele>224.61</ele>
        <time>2014-10-18T07:41:50Z</time>
      </trkpt>
      <trkpt lat="43.97706" lon="1.89839">
        <ele>225.09</ele>
        <time>2014-10-18T07:41:53Z</time>
      </trkpt>
      <trkpt lat="43.97706" lon="1.89838">
        <ele>225.09</ele>
        <time>2014-10-18T07:41:54Z</time>
      </trkpt>
      <trkpt lat="43.97705" lon="1.89836">
        <ele>224.61</ele>
        <time>2014-10-18T07:41:55Z</time>
      </trkpt>
      <trkpt lat="43.97701" lon="1.89828">
        <ele>224.61</ele>
        <time>2014-10-18T07:42:02Z</time>
      </trkpt>
      <trkpt lat="43.977" lon="1.89827">
        <ele>225.09</ele>
        <time>2014-10-18T07:42:03Z</time>
      </trkpt>
      <trkpt lat="43.97699" lon="1.89826">
        <ele>225.09</ele>
        <time>2014-10-18T07:42:04Z</time>
      </trkpt>
      <trkpt lat="43.97698" lon="1.89825">
        <ele>224.61</ele>
        <time>2014-10-18T07:42:05Z</time>
      </trkpt>
      <trkpt lat="43.97697" lon="1.89824">
        <ele>225.09</ele>
        <time>2014-10-18T07:42:06Z</time>
      </trkpt>
      <trkpt lat="43.97692" lon="1.89816">
        <ele>225.57</ele>
        <time>2014-10-18T07:42:13Z</time>
      </trkpt>
      <trkpt lat="43.97685" lon="1.89808">
        <ele>225.57</ele>
        <time>2014-10-18T07:42:21Z</time>
      </trkpt>
      <trkpt lat="43.97678" lon="1.89802">
        <ele>226.53</ele>
        <time>2014-10-18T07:42:29Z</time>
      </trkpt>
      <trkpt lat="43.97675" lon="1.89798">
        <ele>226.53</ele>
        <time>2014-10-18T07:42:34Z</time>
      </trkpt>
      <trkpt lat="43.97674" lon="1.89797">
        <ele>226.53</ele>
        <time>2014-10-18T07:42:35Z</time>
      </trkpt>
      <trkpt lat="43.97668" lon="1.89792">
        <ele>227.49</ele>
        <time>2014-10-18T07:42:43Z</time>
      </trkpt>
      <trkpt lat="43.97666" lon="1.89788">
        <ele>227.49</ele>
        <time>2014-10-18T07:42:48Z</time>
      </trkpt>
      <trkpt lat="43.97665" lon="1.89787">
        <ele>228.45</ele>
        <time>2014-10-18T07:42:49Z</time>
      </trkpt>
      <trkpt lat="43.97663" lon="1.89784">
        <ele>228.93</ele>
        <time>2014-10-18T07:42:52Z</time>
      </trkpt>
      <trkpt lat="43.97661" lon="1.89783">
        <ele>228.93</ele>
        <time>2014-10-18T07:42:53Z</time>
      </trkpt>
      <trkpt lat="43.97654" lon="1.89776">
        <ele>230.37</ele>
        <time>2014-10-18T07:43:02Z</time>
      </trkpt>
      <trkpt lat="43.97649" lon="1.89767">
        <ele>230.85</ele>
        <time>2014-10-18T07:43:11Z</time>
      </trkpt>
      <trkpt lat="43.97643" lon="1.89759">
        <ele>231.81</ele>
        <time>2014-10-18T07:43:19Z</time>
      </trkpt>
      <trkpt lat="43.9764" lon="1.89756">
        <ele>231.81</ele>
        <time>2014-10-18T07:43:22Z</time>
      </trkpt>
      <trkpt lat="43.97639" lon="1.89755">
        <ele>231.81</ele>
        <time>2014-10-18T07:43:23Z</time>
      </trkpt>
      <trkpt lat="43.97634" lon="1.89747">
        <ele>232.3</ele>
        <time>2014-10-18T07:43:30Z</time>
      </trkpt>
      <trkpt lat="43.97633" lon="1.89743">
        <ele>232.78</ele>
        <time>2014-10-18T07:43:34Z</time>
      </trkpt>
      <trkpt lat="43.97628" lon="1.89738">
        <ele>233.26</ele>
        <time>2014-10-18T07:43:40Z</time>
      </trkpt>
      <trkpt lat="43.97627" lon="1.89737">
        <ele>233.26</ele>
        <time>2014-10-18T07:43:41Z</time>
      </trkpt>
      <trkpt lat="43.97623" lon="1.89732">
        <ele>233.74</ele>
        <time>2014-10-18T07:43:47Z</time>
      </trkpt>
      <trkpt lat="43.97622" lon="1.8973">
        <ele>233.74</ele>
        <time>2014-10-18T07:43:48Z</time>
      </trkpt>
      <trkpt lat="43.97615" lon="1.89722">
        <ele>235.18</ele>
        <time>2014-10-18T07:43:57Z</time>
      </trkpt>
      <trkpt lat="43.97612" lon="1.89717">
        <ele>235.18</ele>
        <time>2014-10-18T07:44:01Z</time>
      </trkpt>
      <trkpt lat="43.97611" lon="1.89716">
        <ele>235.18</ele>
        <time>2014-10-18T07:44:02Z</time>
      </trkpt>
      <trkpt lat="43.97611" lon="1.89714">
        <ele>235.18</ele>
        <time>2014-10-18T07:44:03Z</time>
      </trkpt>
      <trkpt lat="43.97609" lon="1.89713">
        <ele>235.18</ele>
        <time>2014-10-18T07:44:05Z</time>
      </trkpt>
      <trkpt lat="43.97609" lon="1.89711">
        <ele>235.66</ele>
        <time>2014-10-18T07:44:06Z</time>
      </trkpt>
      <trkpt lat="43.97608" lon="1.89708">
        <ele>235.66</ele>
        <time>2014-10-18T07:44:09Z</time>
      </trkpt>
      <trkpt lat="43.97607" lon="1.89707">
        <ele>235.66</ele>
        <time>2014-10-18T07:44:10Z</time>
      </trkpt>
      <trkpt lat="43.97603" lon="1.897">
        <ele>236.14</ele>
        <time>2014-10-18T07:44:16Z</time>
      </trkpt>
      <trkpt lat="43.97602" lon="1.89699">
        <ele>236.62</ele>
        <time>2014-10-18T07:44:17Z</time>
      </trkpt>
      <trkpt lat="43.97598" lon="1.89689">
        <ele>237.58</ele>
        <time>2014-10-18T07:44:25Z</time>
      </trkpt>
      <trkpt lat="43.97593" lon="1.89678">
        <ele>238.06</ele>
        <time>2014-10-18T07:44:34Z</time>
      </trkpt>
      <trkpt lat="43.97591" lon="1.89671">
        <ele>238.06</ele>
        <time>2014-10-18T07:44:41Z</time>
      </trkpt>
      <trkpt lat="43.97591" lon="1.8967">
        <ele>238.06</ele>
        <time>2014-10-18T07:44:42Z</time>
      </trkpt>
      <trkpt lat="43.97589" lon="1.89662">
        <ele>238.54</ele>
        <time>2014-10-18T07:44:48Z</time>
      </trkpt>
      <trkpt lat="43.97587" lon="1.89659">
        <ele>239.02</ele>
        <time>2014-10-18T07:44:51Z</time>
      </trkpt>
      <trkpt lat="43.97587" lon="1.89658">
        <ele>239.51</ele>
        <time>2014-10-18T07:44:52Z</time>
      </trkpt>
      <trkpt lat="43.97581" lon="1.89647">
        <ele>239.99</ele>
        <time>2014-10-18T07:45:00Z</time>
      </trkpt>
      <trkpt lat="43.97578" lon="1.89635">
        <ele>240.47</ele>
        <time>2014-10-18T07:45:10Z</time>
      </trkpt>
      <trkpt lat="43.97573" lon="1.89626">
        <ele>240.95</ele>
        <time>2014-10-18T07:45:19Z</time>
      </trkpt>
      <trkpt lat="43.97568" lon="1.89616">
        <ele>240.95</ele>
        <time>2014-10-18T07:45:28Z</time>
      </trkpt>
      <trkpt lat="43.97563" lon="1.89605">
        <ele>241.91</ele>
        <time>2014-10-18T07:45:38Z</time>
      </trkpt>
      <trkpt lat="43.9756" lon="1.896">
        <ele>241.91</ele>
        <time>2014-10-18T07:45:42Z</time>
      </trkpt>
      <trkpt lat="43.97558" lon="1.89596">
        <ele>241.91</ele>
        <time>2014-10-18T07:45:46Z</time>
      </trkpt>
      <trkpt lat="43.97557" lon="1.89594">
        <ele>241.91</ele>
        <time>2014-10-18T07:45:47Z</time>
      </trkpt>
      <trkpt lat="43.97552" lon="1.89586">
        <ele>242.39</ele>
        <time>2014-10-18T07:45:56Z</time>
      </trkpt>
      <trkpt lat="43.97546" lon="1.89576">
        <ele>242.39</ele>
        <time>2014-10-18T07:46:05Z</time>
      </trkpt>
      <trkpt lat="43.9754" lon="1.89565">
        <ele>242.39</ele>
        <time>2014-10-18T07:46:14Z</time>
      </trkpt>
      <trkpt lat="43.97534" lon="1.89554">
        <ele>242.87</ele>
        <time>2014-10-18T07:46:23Z</time>
      </trkpt>
      <trkpt lat="43.97534" lon="1.89553">
        <ele>243.35</ele>
        <time>2014-10-18T07:46:24Z</time>
      </trkpt>
      <trkpt lat="43.97529" lon="1.89544">
        <ele>243.35</ele>
        <time>2014-10-18T07:46:33Z</time>
      </trkpt>
      <trkpt lat="43.97521" lon="1.89538">
        <ele>243.35</ele>
        <time>2014-10-18T07:46:41Z</time>
      </trkpt>
      <trkpt lat="43.97513" lon="1.8953">
        <ele>244.31</ele>
        <time>2014-10-18T07:46:51Z</time>
      </trkpt>
      <trkpt lat="43.97502" lon="1.89519">
        <ele>244.79</ele>
        <time>2014-10-18T07:47:04Z</time>
      </trkpt>
      <trkpt lat="43.97496" lon="1.89513">
        <ele>245.27</ele>
        <time>2014-10-18T07:47:13Z</time>
      </trkpt>
      <trkpt lat="43.97488" lon="1.89506">
        <ele>245.75</ele>
        <time>2014-10-18T07:47:21Z</time>
      </trkpt>
      <trkpt lat="43.97482" lon="1.895">
        <ele>245.75</ele>
        <time>2014-10-18T07:47:29Z</time>
      </trkpt>
      <trkpt lat="43.97476" lon="1.89494">
        <ele>246.72</ele>
        <time>2014-10-18T07:47:36Z</time>
      </trkpt>
      <trkpt lat="43.97473" lon="1.89491">
        <ele>246.72</ele>
        <time>2014-10-18T07:47:40Z</time>
      </trkpt>
      <trkpt lat="43.97472" lon="1.8949">
        <ele>246.72</ele>
        <time>2014-10-18T07:47:41Z</time>
      </trkpt>
      <trkpt lat="43.97464" lon="1.89484">
        <ele>247.2</ele>
        <time>2014-10-18T07:47:49Z</time>
      </trkpt>
      <trkpt lat="43.97458" lon="1.89478">
        <ele>248.16</ele>
        <time>2014-10-18T07:47:57Z</time>
      </trkpt>
      <trkpt lat="43.97457" lon="1.89477">
        <ele>248.64</ele>
        <time>2014-10-18T07:47:58Z</time>
      </trkpt>
      <trkpt lat="43.9745" lon="1.89472">
        <ele>249.12</ele>
        <time>2014-10-18T07:48:07Z</time>
      </trkpt>
      <trkpt lat="43.97447" lon="1.89468">
        <ele>249.6</ele>
        <time>2014-10-18T07:48:11Z</time>
      </trkpt>
      <trkpt lat="43.97441" lon="1.89462">
        <ele>250.08</ele>
        <time>2014-10-18T07:48:19Z</time>
      </trkpt>
      <trkpt lat="43.97437" lon="1.89458">
        <ele>251.04</ele>
        <time>2014-10-18T07:48:26Z</time>
      </trkpt>
      <trkpt lat="43.97436" lon="1.89457">
        <ele>250.56</ele>
        <time>2014-10-18T07:48:27Z</time>
      </trkpt>
      <trkpt lat="43.97427" lon="1.89447">
        <ele>252</ele>
        <time>2014-10-18T07:48:38Z</time>
      </trkpt>
      <trkpt lat="43.97419" lon="1.89443">
        <ele>252.96</ele>
        <time>2014-10-18T07:48:47Z</time>
      </trkpt>
      <trkpt lat="43.97413" lon="1.89438">
        <ele>253.93</ele>
        <time>2014-10-18T07:48:54Z</time>
      </trkpt>
      <trkpt lat="43.97408" lon="1.89433">
        <ele>254.89</ele>
        <time>2014-10-18T07:49:03Z</time>
      </trkpt>
      <trkpt lat="43.97407" lon="1.89432">
        <ele>254.89</ele>
        <time>2014-10-18T07:49:04Z</time>
      </trkpt>
      <trkpt lat="43.97399" lon="1.89423">
        <ele>255.37</ele>
        <time>2014-10-18T07:49:13Z</time>
      </trkpt>
      <trkpt lat="43.97391" lon="1.89417">
        <ele>257.29</ele>
        <time>2014-10-18T07:49:23Z</time>
      </trkpt>
      <trkpt lat="43.97386" lon="1.89411">
        <ele>257.77</ele>
        <time>2014-10-18T07:49:31Z</time>
      </trkpt>
      <trkpt lat="43.97379" lon="1.89405">
        <ele>259.21</ele>
        <time>2014-10-18T07:49:39Z</time>
      </trkpt>
      <trkpt lat="43.97378" lon="1.89404">
        <ele>259.21</ele>
        <time>2014-10-18T07:49:41Z</time>
      </trkpt>
      <trkpt lat="43.97377" lon="1.89403">
        <ele>259.21</ele>
        <time>2014-10-18T07:49:42Z</time>
      </trkpt>
      <trkpt lat="43.97376" lon="1.89402">
        <ele>259.21</ele>
        <time>2014-10-18T07:49:44Z</time>
      </trkpt>
      <trkpt lat="43.97375" lon="1.89401">
        <ele>259.69</ele>
        <time>2014-10-18T07:49:46Z</time>
      </trkpt>
      <trkpt lat="43.97372" lon="1.89399">
        <ele>260.17</ele>
        <time>2014-10-18T07:49:49Z</time>
      </trkpt>
      <trkpt lat="43.97371" lon="1.89397">
        <ele>260.65</ele>
        <time>2014-10-18T07:49:50Z</time>
      </trkpt>
      <trkpt lat="43.97364" lon="1.89391">
        <ele>261.14</ele>
        <time>2014-10-18T07:49:59Z</time>
      </trkpt>
      <trkpt lat="43.97364" lon="1.89389">
        <ele>262.1</ele>
        <time>2014-10-18T07:50:08Z</time>
      </trkpt>
      <trkpt lat="43.97362" lon="1.89386">
        <ele>262.58</ele>
        <time>2014-10-18T07:50:23Z</time>
      </trkpt>
      <trkpt lat="43.97363" lon="1.89385">
        <ele>262.58</ele>
        <time>2014-10-18T07:50:40Z</time>
      </trkpt>
      <trkpt lat="43.97363" lon="1.8939">
        <ele>261.62</ele>
        <time>2014-10-18T07:50:49Z</time>
      </trkpt>
      <trkpt lat="43.97364" lon="1.89391">
        <ele>262.1</ele>
        <time>2014-10-18T07:51:02Z</time>
      </trkpt>
      <trkpt lat="43.97363" lon="1.89389">
        <ele>262.1</ele>
        <time>2014-10-18T07:51:20Z</time>
      </trkpt>
      <trkpt lat="43.9736" lon="1.89388">
        <ele>262.1</ele>
        <time>2014-10-18T07:51:28Z</time>
      </trkpt>
      <trkpt lat="43.97356" lon="1.89386">
        <ele>262.1</ele>
        <time>2014-10-18T07:51:38Z</time>
      </trkpt>
      <trkpt lat="43.97354" lon="1.89386">
        <ele>262.1</ele>
        <time>2014-10-18T07:51:49Z</time>
      </trkpt>
      <trkpt lat="43.97354" lon="1.89385">
        <ele>262.1</ele>
        <time>2014-10-18T07:52:19Z</time>
      </trkpt>
      <trkpt lat="43.97354" lon="1.89386">
        <ele>261.62</ele>
        <time>2014-10-18T07:52:33Z</time>
      </trkpt>
      <trkpt lat="43.97354" lon="1.89387">
        <ele>261.62</ele>
        <time>2014-10-18T07:52:46Z</time>
      </trkpt>
      <trkpt lat="43.97353" lon="1.89386">
        <ele>261.62</ele>
        <time>2014-10-18T07:53:03Z</time>
      </trkpt>
      <trkpt lat="43.97352" lon="1.89384">
        <ele>261.62</ele>
        <time>2014-10-18T07:53:19Z</time>
      </trkpt>
      <trkpt lat="43.97351" lon="1.89384">
        <ele>261.62</ele>
        <time>2014-10-18T07:53:20Z</time>
      </trkpt>
      <trkpt lat="43.97348" lon="1.89378">
        <ele>261.62</ele>
        <time>2014-10-18T07:53:26Z</time>
      </trkpt>
      <trkpt lat="43.97347" lon="1.89377">
        <ele>262.1</ele>
        <time>2014-10-18T07:53:27Z</time>
      </trkpt>
      <trkpt lat="43.97342" lon="1.8937">
        <ele>262.1</ele>
        <time>2014-10-18T07:53:35Z</time>
      </trkpt>
      <trkpt lat="43.97339" lon="1.89364">
        <ele>262.1</ele>
        <time>2014-10-18T07:53:41Z</time>
      </trkpt>
      <trkpt lat="43.97338" lon="1.89363">
        <ele>262.1</ele>
        <time>2014-10-18T07:53:42Z</time>
      </trkpt>
      <trkpt lat="43.97332" lon="1.89355">
        <ele>262.58</ele>
        <time>2014-10-18T07:53:51Z</time>
      </trkpt>
      <trkpt lat="43.97328" lon="1.89347">
        <ele>262.58</ele>
        <time>2014-10-18T07:53:59Z</time>
      </trkpt>
      <trkpt lat="43.97324" lon="1.89336">
        <ele>263.06</ele>
        <time>2014-10-18T07:54:07Z</time>
      </trkpt>
      <trkpt lat="43.97323" lon="1.89333">
        <ele>263.06</ele>
        <time>2014-10-18T07:54:09Z</time>
      </trkpt>
      <trkpt lat="43.97322" lon="1.89332">
        <ele>262.58</ele>
        <time>2014-10-18T07:54:10Z</time>
      </trkpt>
      <trkpt lat="43.97321" lon="1.8933">
        <ele>263.06</ele>
        <time>2014-10-18T07:54:11Z</time>
      </trkpt>
      <trkpt lat="43.97319" lon="1.89319">
        <ele>262.58</ele>
        <time>2014-10-18T07:54:19Z</time>
      </trkpt>
      <trkpt lat="43.97315" lon="1.89303">
        <ele>263.06</ele>
        <time>2014-10-18T07:54:31Z</time>
      </trkpt>
      <trkpt lat="43.97314" lon="1.89293">
        <ele>262.58</ele>
        <time>2014-10-18T07:54:40Z</time>
      </trkpt>
      <trkpt lat="43.97314" lon="1.8928">
        <ele>262.1</ele>
        <time>2014-10-18T07:54:50Z</time>
      </trkpt>
      <trkpt lat="43.97314" lon="1.89261">
        <ele>260.65</ele>
        <time>2014-10-18T07:55:03Z</time>
      </trkpt>
      <trkpt lat="43.97313" lon="1.89247">
        <ele>260.17</ele>
        <time>2014-10-18T07:55:12Z</time>
      </trkpt>
      <trkpt lat="43.97311" lon="1.89228">
        <ele>259.21</ele>
        <time>2014-10-18T07:55:25Z</time>
      </trkpt>
      <trkpt lat="43.9731" lon="1.89208">
        <ele>258.25</ele>
        <time>2014-10-18T07:55:38Z</time>
      </trkpt>
      <trkpt lat="43.97309" lon="1.8919">
        <ele>257.77</ele>
        <time>2014-10-18T07:55:50Z</time>
      </trkpt>
      <trkpt lat="43.97306" lon="1.8917">
        <ele>257.29</ele>
        <time>2014-10-18T07:56:03Z</time>
      </trkpt>
      <trkpt lat="43.97304" lon="1.8915">
        <ele>256.81</ele>
        <time>2014-10-18T07:56:16Z</time>
      </trkpt>
      <trkpt lat="43.97298" lon="1.89127">
        <ele>255.85</ele>
        <time>2014-10-18T07:56:31Z</time>
      </trkpt>
      <trkpt lat="43.97291" lon="1.89107">
        <ele>254.41</ele>
        <time>2014-10-18T07:56:45Z</time>
      </trkpt>
      <trkpt lat="43.97285" lon="1.89088">
        <ele>253.44</ele>
        <time>2014-10-18T07:56:58Z</time>
      </trkpt>
      <trkpt lat="43.9728" lon="1.8907">
        <ele>252.48</ele>
        <time>2014-10-18T07:57:11Z</time>
      </trkpt>
      <trkpt lat="43.97274" lon="1.89051">
        <ele>251.04</ele>
        <time>2014-10-18T07:57:24Z</time>
      </trkpt>
      <trkpt lat="43.9727" lon="1.89032">
        <ele>250.08</ele>
        <time>2014-10-18T07:57:37Z</time>
      </trkpt>
      <trkpt lat="43.97265" lon="1.89013">
        <ele>249.12</ele>
        <time>2014-10-18T07:57:49Z</time>
      </trkpt>
      <trkpt lat="43.97261" lon="1.88995">
        <ele>248.64</ele>
        <time>2014-10-18T07:58:02Z</time>
      </trkpt>
      <trkpt lat="43.97256" lon="1.88975">
        <ele>248.16</ele>
        <time>2014-10-18T07:58:15Z</time>
      </trkpt>
      <trkpt lat="43.97253" lon="1.88956">
        <ele>247.2</ele>
        <time>2014-10-18T07:58:28Z</time>
      </trkpt>
      <trkpt lat="43.9725" lon="1.88936">
        <ele>246.72</ele>
        <time>2014-10-18T07:58:41Z</time>
      </trkpt>
      <trkpt lat="43.97246" lon="1.88915">
        <ele>245.27</ele>
        <time>2014-10-18T07:58:54Z</time>
      </trkpt>
      <trkpt lat="43.97244" lon="1.889">
        <ele>244.31</ele>
        <time>2014-10-18T07:59:04Z</time>
      </trkpt>
      <trkpt lat="43.97244" lon="1.88898">
        <ele>244.31</ele>
        <time>2014-10-18T07:59:05Z</time>
      </trkpt>
      <trkpt lat="43.97239" lon="1.88879">
        <ele>242.39</ele>
        <time>2014-10-18T07:59:18Z</time>
      </trkpt>
      <trkpt lat="43.97235" lon="1.8886">
        <ele>240.95</ele>
        <time>2014-10-18T07:59:31Z</time>
      </trkpt>
      <trkpt lat="43.97231" lon="1.88841">
        <ele>239.99</ele>
        <time>2014-10-18T07:59:43Z</time>
      </trkpt>
      <trkpt lat="43.97226" lon="1.88821">
        <ele>238.54</ele>
        <time>2014-10-18T07:59:57Z</time>
      </trkpt>
      <trkpt lat="43.97223" lon="1.88805">
        <ele>237.58</ele>
        <time>2014-10-18T08:00:08Z</time>
      </trkpt>
      <trkpt lat="43.97217" lon="1.88785">
        <ele>235.66</ele>
        <time>2014-10-18T08:00:22Z</time>
      </trkpt>
      <trkpt lat="43.97211" lon="1.88765">
        <ele>235.18</ele>
        <time>2014-10-18T08:00:36Z</time>
      </trkpt>
      <trkpt lat="43.97204" lon="1.88744">
        <ele>234.22</ele>
        <time>2014-10-18T08:00:50Z</time>
      </trkpt>
      <trkpt lat="43.97198" lon="1.88725">
        <ele>233.74</ele>
        <time>2014-10-18T08:01:03Z</time>
      </trkpt>
      <trkpt lat="43.97188" lon="1.88707">
        <ele>233.26</ele>
        <time>2014-10-18T08:01:17Z</time>
      </trkpt>
      <trkpt lat="43.97177" lon="1.88685">
        <ele>232.78</ele>
        <time>2014-10-18T08:01:33Z</time>
      </trkpt>
      <trkpt lat="43.97171" lon="1.88665">
        <ele>232.3</ele>
        <time>2014-10-18T08:01:47Z</time>
      </trkpt>
      <trkpt lat="43.97171" lon="1.88645">
        <ele>232.3</ele>
        <time>2014-10-18T08:01:59Z</time>
      </trkpt>
      <trkpt lat="43.97171" lon="1.88626">
        <ele>232.3</ele>
        <time>2014-10-18T08:02:11Z</time>
      </trkpt>
      <trkpt lat="43.97171" lon="1.88608">
        <ele>232.3</ele>
        <time>2014-10-18T08:02:23Z</time>
      </trkpt>
      <trkpt lat="43.97172" lon="1.8859">
        <ele>232.3</ele>
        <time>2014-10-18T08:02:34Z</time>
      </trkpt>
      <trkpt lat="43.97173" lon="1.88571">
        <ele>232.3</ele>
        <time>2014-10-18T08:02:46Z</time>
      </trkpt>
      <trkpt lat="43.97173" lon="1.88552">
        <ele>232.3</ele>
        <time>2014-10-18T08:02:58Z</time>
      </trkpt>
      <trkpt lat="43.97172" lon="1.88533">
        <ele>232.3</ele>
        <time>2014-10-18T08:03:10Z</time>
      </trkpt>
      <trkpt lat="43.97173" lon="1.88513">
        <ele>231.81</ele>
        <time>2014-10-18T08:03:23Z</time>
      </trkpt>
      <trkpt lat="43.9717" lon="1.88494">
        <ele>232.3</ele>
        <time>2014-10-18T08:03:35Z</time>
      </trkpt>
      <trkpt lat="43.97168" lon="1.88476">
        <ele>232.3</ele>
        <time>2014-10-18T08:03:46Z</time>
      </trkpt>
      <trkpt lat="43.97162" lon="1.88452">
        <ele>232.3</ele>
        <time>2014-10-18T08:04:02Z</time>
      </trkpt>
      <trkpt lat="43.97157" lon="1.88433">
        <ele>232.78</ele>
        <time>2014-10-18T08:04:16Z</time>
      </trkpt>
      <trkpt lat="43.97156" lon="1.88432">
        <ele>232.78</ele>
        <time>2014-10-18T08:04:17Z</time>
      </trkpt>
      <trkpt lat="43.97155" lon="1.88432">
        <ele>232.78</ele>
        <time>2014-10-18T08:04:18Z</time>
      </trkpt>
      <trkpt lat="43.97145" lon="1.88437">
        <ele>232.78</ele>
        <time>2014-10-18T08:04:29Z</time>
      </trkpt>
      <trkpt lat="43.97137" lon="1.88442">
        <ele>232.78</ele>
        <time>2014-10-18T08:04:39Z</time>
      </trkpt>
      <trkpt lat="43.97124" lon="1.88448">
        <ele>232.78</ele>
        <time>2014-10-18T08:04:52Z</time>
      </trkpt>
      <trkpt lat="43.97112" lon="1.88453">
        <ele>233.26</ele>
        <time>2014-10-18T08:05:04Z</time>
      </trkpt>
      <trkpt lat="43.97099" lon="1.88456">
        <ele>233.26</ele>
        <time>2014-10-18T08:05:16Z</time>
      </trkpt>
      <trkpt lat="43.97089" lon="1.8846">
        <ele>233.26</ele>
        <time>2014-10-18T08:05:26Z</time>
      </trkpt>
      <trkpt lat="43.97077" lon="1.88464">
        <ele>233.74</ele>
        <time>2014-10-18T08:05:38Z</time>
      </trkpt>
      <trkpt lat="43.97063" lon="1.88468">
        <ele>233.74</ele>
        <time>2014-10-18T08:05:52Z</time>
      </trkpt>
      <trkpt lat="43.9705" lon="1.88471">
        <ele>234.22</ele>
        <time>2014-10-18T08:06:04Z</time>
      </trkpt>
      <trkpt lat="43.97037" lon="1.88474">
        <ele>234.22</ele>
        <time>2014-10-18T08:06:16Z</time>
      </trkpt>
      <trkpt lat="43.97023" lon="1.88478">
        <ele>234.7</ele>
        <time>2014-10-18T08:06:29Z</time>
      </trkpt>
      <trkpt lat="43.97006" lon="1.88482">
        <ele>235.18</ele>
        <time>2014-10-18T08:06:43Z</time>
      </trkpt>
      <trkpt lat="43.96992" lon="1.88486">
        <ele>235.66</ele>
        <time>2014-10-18T08:06:57Z</time>
      </trkpt>
      <trkpt lat="43.96976" lon="1.8849">
        <ele>235.66</ele>
        <time>2014-10-18T08:07:11Z</time>
      </trkpt>
      <trkpt lat="43.96963" lon="1.88493">
        <ele>235.66</ele>
        <time>2014-10-18T08:07:23Z</time>
      </trkpt>
      <trkpt lat="43.96949" lon="1.88496">
        <ele>236.14</ele>
        <time>2014-10-18T08:07:35Z</time>
      </trkpt>
      <trkpt lat="43.96936" lon="1.88501">
        <ele>236.14</ele>
        <time>2014-10-18T08:07:48Z</time>
      </trkpt>
      <trkpt lat="43.96925" lon="1.88507">
        <ele>236.62</ele>
        <time>2014-10-18T08:08:00Z</time>
      </trkpt>
      <trkpt lat="43.96911" lon="1.88514">
        <ele>237.1</ele>
        <time>2014-10-18T08:08:14Z</time>
      </trkpt>
      <trkpt lat="43.96898" lon="1.88518">
        <ele>237.58</ele>
        <time>2014-10-18T08:08:26Z</time>
      </trkpt>
      <trkpt lat="43.96883" lon="1.88519">
        <ele>238.06</ele>
        <time>2014-10-18T08:08:41Z</time>
      </trkpt>
      <trkpt lat="43.9687" lon="1.88519">
        <ele>238.06</ele>
        <time>2014-10-18T08:08:52Z</time>
      </trkpt>
      <trkpt lat="43.96857" lon="1.88518">
        <ele>238.54</ele>
        <time>2014-10-18T08:09:04Z</time>
      </trkpt>
      <trkpt lat="43.96848" lon="1.88515">
        <ele>238.54</ele>
        <time>2014-10-18T08:09:15Z</time>
      </trkpt>
      <trkpt lat="43.96833" lon="1.88521">
        <ele>239.51</ele>
        <time>2014-10-18T08:09:29Z</time>
      </trkpt>
      <trkpt lat="43.96818" lon="1.88526">
        <ele>240.95</ele>
        <time>2014-10-18T08:09:43Z</time>
      </trkpt>
      <trkpt lat="43.968" lon="1.88533">
        <ele>240.95</ele>
        <time>2014-10-18T08:10:00Z</time>
      </trkpt>
      <trkpt lat="43.96788" lon="1.8854">
        <ele>241.43</ele>
        <time>2014-10-18T08:10:12Z</time>
      </trkpt>
      <trkpt lat="43.96775" lon="1.88547">
        <ele>241.91</ele>
        <time>2014-10-18T08:10:26Z</time>
      </trkpt>
      <trkpt lat="43.96762" lon="1.88553">
        <ele>242.87</ele>
        <time>2014-10-18T08:10:40Z</time>
      </trkpt>
      <trkpt lat="43.96749" lon="1.8856">
        <ele>243.35</ele>
        <time>2014-10-18T08:10:53Z</time>
      </trkpt>
      <trkpt lat="43.96736" lon="1.88567">
        <ele>243.83</ele>
        <time>2014-10-18T08:11:07Z</time>
      </trkpt>
      <trkpt lat="43.96721" lon="1.88572">
        <ele>244.31</ele>
        <time>2014-10-18T08:11:21Z</time>
      </trkpt>
      <trkpt lat="43.96707" lon="1.88576">
        <ele>244.79</ele>
        <time>2014-10-18T08:11:34Z</time>
      </trkpt>
      <trkpt lat="43.96693" lon="1.88577">
        <ele>245.27</ele>
        <time>2014-10-18T08:11:46Z</time>
      </trkpt>
      <trkpt lat="43.96678" lon="1.88578">
        <ele>246.23</ele>
        <time>2014-10-18T08:12:01Z</time>
      </trkpt>
      <trkpt lat="43.96666" lon="1.88579">
        <ele>246.72</ele>
        <time>2014-10-18T08:12:13Z</time>
      </trkpt>
      <trkpt lat="43.96655" lon="1.88578">
        <ele>247.68</ele>
        <time>2014-10-18T08:12:24Z</time>
      </trkpt>
      <trkpt lat="43.96643" lon="1.88578">
        <ele>248.64</ele>
        <time>2014-10-18T08:12:36Z</time>
      </trkpt>
      <trkpt lat="43.96632" lon="1.88579">
        <ele>250.08</ele>
        <time>2014-10-18T08:12:48Z</time>
      </trkpt>
      <trkpt lat="43.9662" lon="1.88578">
        <ele>251.04</ele>
        <time>2014-10-18T08:12:59Z</time>
      </trkpt>
      <trkpt lat="43.96608" lon="1.88577">
        <ele>252.48</ele>
        <time>2014-10-18T08:13:11Z</time>
      </trkpt>
      <trkpt lat="43.96595" lon="1.88577">
        <ele>253.44</ele>
        <time>2014-10-18T08:13:25Z</time>
      </trkpt>
      <trkpt lat="43.96585" lon="1.88578">
        <ele>254.89</ele>
        <time>2014-10-18T08:13:36Z</time>
      </trkpt>
      <trkpt lat="43.96573" lon="1.88578">
        <ele>256.33</ele>
        <time>2014-10-18T08:13:49Z</time>
      </trkpt>
      <trkpt lat="43.96563" lon="1.88578">
        <ele>256.81</ele>
        <time>2014-10-18T08:14:00Z</time>
      </trkpt>
      <trkpt lat="43.96554" lon="1.88579">
        <ele>257.29</ele>
        <time>2014-10-18T08:14:10Z</time>
      </trkpt>
      <trkpt lat="43.96546" lon="1.88578">
        <ele>257.29</ele>
        <time>2014-10-18T08:14:20Z</time>
      </trkpt>
      <trkpt lat="43.96534" lon="1.88576">
        <ele>257.29</ele>
        <time>2014-10-18T08:14:32Z</time>
      </trkpt>
      <trkpt lat="43.96521" lon="1.88577">
        <ele>257.29</ele>
        <time>2014-10-18T08:14:45Z</time>
      </trkpt>
      <trkpt lat="43.96516" lon="1.88576">
        <ele>257.29</ele>
        <time>2014-10-18T08:14:49Z</time>
      </trkpt>
      <trkpt lat="43.96515" lon="1.88576">
        <ele>257.29</ele>
        <time>2014-10-18T08:14:50Z</time>
      </trkpt>
      <trkpt lat="43.96503" lon="1.88574">
        <ele>257.29</ele>
        <time>2014-10-18T08:15:02Z</time>
      </trkpt>
      <trkpt lat="43.96489" lon="1.88573">
        <ele>257.77</ele>
        <time>2014-10-18T08:15:15Z</time>
      </trkpt>
      <trkpt lat="43.96475" lon="1.88571">
        <ele>258.25</ele>
        <time>2014-10-18T08:15:28Z</time>
      </trkpt>
      <trkpt lat="43.96464" lon="1.8857">
        <ele>258.73</ele>
        <time>2014-10-18T08:15:38Z</time>
      </trkpt>
      <trkpt lat="43.96453" lon="1.88569">
        <ele>259.21</ele>
        <time>2014-10-18T08:15:49Z</time>
      </trkpt>
      <trkpt lat="43.96441" lon="1.88567">
        <ele>259.69</ele>
        <time>2014-10-18T08:16:01Z</time>
      </trkpt>
      <trkpt lat="43.96427" lon="1.88567">
        <ele>260.65</ele>
        <time>2014-10-18T08:16:14Z</time>
      </trkpt>
      <trkpt lat="43.9641" lon="1.88569">
        <ele>261.62</ele>
        <time>2014-10-18T08:16:30Z</time>
      </trkpt>
      <trkpt lat="43.964" lon="1.88573">
        <ele>263.06</ele>
        <time>2014-10-18T08:16:41Z</time>
      </trkpt>
      <trkpt lat="43.96384" lon="1.88577">
        <ele>263.54</ele>
        <time>2014-10-18T08:16:55Z</time>
      </trkpt>
      <trkpt lat="43.96369" lon="1.88581">
        <ele>264.5</ele>
        <time>2014-10-18T08:17:10Z</time>
      </trkpt>
      <trkpt lat="43.96358" lon="1.88586">
        <ele>264.98</ele>
        <time>2014-10-18T08:17:21Z</time>
      </trkpt>
      <trkpt lat="43.96348" lon="1.88592">
        <ele>265.94</ele>
        <time>2014-10-18T08:17:32Z</time>
      </trkpt>
      <trkpt lat="43.96338" lon="1.88596">
        <ele>266.42</ele>
        <time>2014-10-18T08:17:42Z</time>
      </trkpt>
      <trkpt lat="43.96323" lon="1.88603">
        <ele>267.86</ele>
        <time>2014-10-18T08:17:56Z</time>
      </trkpt>
      <trkpt lat="43.9631" lon="1.88609">
        <ele>268.35</ele>
        <time>2014-10-18T08:18:09Z</time>
      </trkpt>
      <trkpt lat="43.96296" lon="1.88615">
        <ele>267.86</ele>
        <time>2014-10-18T08:18:22Z</time>
      </trkpt>
      <trkpt lat="43.96283" lon="1.88619">
        <ele>268.35</ele>
        <time>2014-10-18T08:18:34Z</time>
      </trkpt>
      <trkpt lat="43.96274" lon="1.88616">
        <ele>267.86</ele>
        <time>2014-10-18T08:18:44Z</time>
      </trkpt>
      <trkpt lat="43.96264" lon="1.88609">
        <ele>267.86</ele>
        <time>2014-10-18T08:18:55Z</time>
      </trkpt>
      <trkpt lat="43.96253" lon="1.88602">
        <ele>268.35</ele>
        <time>2014-10-18T08:19:08Z</time>
      </trkpt>
      <trkpt lat="43.96241" lon="1.88594">
        <ele>268.35</ele>
        <time>2014-10-18T08:19:20Z</time>
      </trkpt>
      <trkpt lat="43.96232" lon="1.88589">
        <ele>268.35</ele>
        <time>2014-10-18T08:19:30Z</time>
      </trkpt>
      <trkpt lat="43.96231" lon="1.88589">
        <ele>267.86</ele>
        <time>2014-10-18T08:19:31Z</time>
      </trkpt>
      <trkpt lat="43.96219" lon="1.88581">
        <ele>268.35</ele>
        <time>2014-10-18T08:19:43Z</time>
      </trkpt>
      <trkpt lat="43.96214" lon="1.88579">
        <ele>268.35</ele>
        <time>2014-10-18T08:19:48Z</time>
      </trkpt>
      <trkpt lat="43.96213" lon="1.88582">
        <ele>267.86</ele>
        <time>2014-10-18T08:19:51Z</time>
      </trkpt>
      <trkpt lat="43.96213" lon="1.88584">
        <ele>267.86</ele>
        <time>2014-10-18T08:19:52Z</time>
      </trkpt>
      <trkpt lat="43.96221" lon="1.88593">
        <ele>266.42</ele>
        <time>2014-10-18T08:20:03Z</time>
      </trkpt>
      <trkpt lat="43.96229" lon="1.886">
        <ele>264.98</ele>
        <time>2014-10-18T08:20:15Z</time>
      </trkpt>
      <trkpt lat="43.96228" lon="1.88614">
        <ele>263.06</ele>
        <time>2014-10-18T08:20:27Z</time>
      </trkpt>
      <trkpt lat="43.96223" lon="1.88629">
        <ele>261.14</ele>
        <time>2014-10-18T08:20:41Z</time>
      </trkpt>
      <trkpt lat="43.96222" lon="1.8863">
        <ele>261.62</ele>
        <time>2014-10-18T08:20:42Z</time>
      </trkpt>
      <trkpt lat="43.9622" lon="1.88641">
        <ele>260.17</ele>
        <time>2014-10-18T08:20:54Z</time>
      </trkpt>
      <trkpt lat="43.96218" lon="1.88643">
        <ele>260.65</ele>
        <time>2014-10-18T08:21:08Z</time>
      </trkpt>
      <trkpt lat="43.96216" lon="1.88644">
        <ele>260.17</ele>
        <time>2014-10-18T08:21:10Z</time>
      </trkpt>
      <trkpt lat="43.96205" lon="1.88657">
        <ele>257.77</ele>
        <time>2014-10-18T08:21:23Z</time>
      </trkpt>
      <trkpt lat="43.96201" lon="1.88665">
        <ele>257.29</ele>
        <time>2014-10-18T08:21:30Z</time>
      </trkpt>
      <trkpt lat="43.96199" lon="1.88669">
        <ele>256.81</ele>
        <time>2014-10-18T08:21:42Z</time>
      </trkpt>
      <trkpt lat="43.96197" lon="1.88669">
        <ele>256.81</ele>
        <time>2014-10-18T08:21:44Z</time>
      </trkpt>
      <trkpt lat="43.96194" lon="1.8867">
        <ele>256.81</ele>
        <time>2014-10-18T08:21:46Z</time>
      </trkpt>
      <trkpt lat="43.96191" lon="1.88672">
        <ele>256.33</ele>
        <time>2014-10-18T08:21:49Z</time>
      </trkpt>
      <trkpt lat="43.96181" lon="1.88686">
        <ele>254.89</ele>
        <time>2014-10-18T08:22:02Z</time>
      </trkpt>
      <trkpt lat="43.96178" lon="1.8869">
        <ele>254.41</ele>
        <time>2014-10-18T08:22:05Z</time>
      </trkpt>
      <trkpt lat="43.96178" lon="1.88691">
        <ele>254.41</ele>
        <time>2014-10-18T08:22:06Z</time>
      </trkpt>
      <trkpt lat="43.96177" lon="1.88692">
        <ele>254.41</ele>
        <time>2014-10-18T08:22:07Z</time>
      </trkpt>
      <trkpt lat="43.96165" lon="1.8871">
        <ele>252.48</ele>
        <time>2014-10-18T08:22:22Z</time>
      </trkpt>
      <trkpt lat="43.96158" lon="1.88725">
        <ele>251.04</ele>
        <time>2014-10-18T08:22:35Z</time>
      </trkpt>
      <trkpt lat="43.96149" lon="1.88739">
        <ele>249.12</ele>
        <time>2014-10-18T08:22:49Z</time>
      </trkpt>
      <trkpt lat="43.96139" lon="1.88751">
        <ele>248.16</ele>
        <time>2014-10-18T08:23:01Z</time>
      </trkpt>
      <trkpt lat="43.96127" lon="1.88761">
        <ele>246.72</ele>
        <time>2014-10-18T08:23:14Z</time>
      </trkpt>
      <trkpt lat="43.96121" lon="1.88767">
        <ele>245.75</ele>
        <time>2014-10-18T08:23:22Z</time>
      </trkpt>
      <trkpt lat="43.9612" lon="1.88768">
        <ele>245.27</ele>
        <time>2014-10-18T08:23:23Z</time>
      </trkpt>
      <trkpt lat="43.9611" lon="1.8878">
        <ele>244.79</ele>
        <time>2014-10-18T08:23:36Z</time>
      </trkpt>
      <trkpt lat="43.96099" lon="1.88791">
        <ele>243.35</ele>
        <time>2014-10-18T08:23:48Z</time>
      </trkpt>
      <trkpt lat="43.96086" lon="1.88802">
        <ele>242.39</ele>
        <time>2014-10-18T08:24:02Z</time>
      </trkpt>
      <trkpt lat="43.96074" lon="1.88809">
        <ele>240.95</ele>
        <time>2014-10-18T08:24:14Z</time>
      </trkpt>
      <trkpt lat="43.96062" lon="1.88816">
        <ele>241.43</ele>
        <time>2014-10-18T08:24:25Z</time>
      </trkpt>
      <trkpt lat="43.9605" lon="1.88824">
        <ele>239.99</ele>
        <time>2014-10-18T08:24:37Z</time>
      </trkpt>
      <trkpt lat="43.96037" lon="1.88831">
        <ele>239.02</ele>
        <time>2014-10-18T08:24:50Z</time>
      </trkpt>
      <trkpt lat="43.96022" lon="1.88838">
        <ele>238.06</ele>
        <time>2014-10-18T08:25:04Z</time>
      </trkpt>
      <trkpt lat="43.9601" lon="1.88844">
        <ele>236.14</ele>
        <time>2014-10-18T08:25:17Z</time>
      </trkpt>
      <trkpt lat="43.95999" lon="1.88848">
        <ele>235.18</ele>
        <time>2014-10-18T08:25:29Z</time>
      </trkpt>
      <trkpt lat="43.95992" lon="1.8885">
        <ele>233.74</ele>
        <time>2014-10-18T08:25:40Z</time>
      </trkpt>
      <trkpt lat="43.95991" lon="1.88848">
        <ele>234.22</ele>
        <time>2014-10-18T08:25:59Z</time>
      </trkpt>
      <trkpt lat="43.95991" lon="1.8885">
        <ele>233.74</ele>
        <time>2014-10-18T08:26:20Z</time>
      </trkpt>
      <trkpt lat="43.95991" lon="1.88851">
        <ele>233.26</ele>
        <time>2014-10-18T08:26:32Z</time>
      </trkpt>
      <trkpt lat="43.9599" lon="1.8885">
        <ele>233.74</ele>
        <time>2014-10-18T08:26:50Z</time>
      </trkpt>
      <trkpt lat="43.9599" lon="1.88851">
        <ele>234.22</ele>
        <time>2014-10-18T08:27:12Z</time>
      </trkpt>
      <trkpt lat="43.95991" lon="1.88848">
        <ele>234.22</ele>
        <time>2014-10-18T08:27:30Z</time>
      </trkpt>
      <trkpt lat="43.9599" lon="1.8885">
        <ele>234.22</ele>
        <time>2014-10-18T08:27:53Z</time>
      </trkpt>
      <trkpt lat="43.9599" lon="1.88847">
        <ele>234.22</ele>
        <time>2014-10-18T08:28:17Z</time>
      </trkpt>
      <trkpt lat="43.95989" lon="1.88851">
        <ele>234.22</ele>
        <time>2014-10-18T08:28:39Z</time>
      </trkpt>
      <trkpt lat="43.9599" lon="1.88848">
        <ele>234.7</ele>
        <time>2014-10-18T08:28:55Z</time>
      </trkpt>
      <trkpt lat="43.95989" lon="1.88849">
        <ele>234.7</ele>
        <time>2014-10-18T08:29:16Z</time>
      </trkpt>
      <trkpt lat="43.9599" lon="1.88848">
        <ele>234.22</ele>
        <time>2014-10-18T08:29:34Z</time>
      </trkpt>
      <trkpt lat="43.95989" lon="1.88849">
        <ele>234.7</ele>
        <time>2014-10-18T08:30:03Z</time>
      </trkpt>
      <trkpt lat="43.95988" lon="1.88849">
        <ele>234.7</ele>
        <time>2014-10-18T08:30:24Z</time>
      </trkpt>
      <trkpt lat="43.95991" lon="1.88854">
        <ele>234.7</ele>
        <time>2014-10-18T08:30:37Z</time>
      </trkpt>
      <trkpt lat="43.9599" lon="1.88853">
        <ele>234.7</ele>
        <time>2014-10-18T08:31:05Z</time>
      </trkpt>
      <trkpt lat="43.95989" lon="1.88849">
        <ele>234.7</ele>
        <time>2014-10-18T08:31:28Z</time>
      </trkpt>
      <trkpt lat="43.95987" lon="1.88853">
        <ele>234.7</ele>
        <time>2014-10-18T08:31:42Z</time>
      </trkpt>
      <trkpt lat="43.95987" lon="1.88854">
        <ele>234.22</ele>
        <time>2014-10-18T08:31:57Z</time>
      </trkpt>
      <trkpt lat="43.95986" lon="1.88854">
        <ele>234.22</ele>
        <time>2014-10-18T08:32:21Z</time>
      </trkpt>
      <trkpt lat="43.95987" lon="1.88853">
        <ele>234.22</ele>
        <time>2014-10-18T08:32:39Z</time>
      </trkpt>
      <trkpt lat="43.95987" lon="1.88854">
        <ele>234.22</ele>
        <time>2014-10-18T08:32:55Z</time>
      </trkpt>
      <trkpt lat="43.95986" lon="1.88855">
        <ele>234.22</ele>
        <time>2014-10-18T08:33:16Z</time>
      </trkpt>
      <trkpt lat="43.95985" lon="1.88859">
        <ele>234.22</ele>
        <time>2014-10-18T08:33:24Z</time>
      </trkpt>
      <trkpt lat="43.95976" lon="1.88868">
        <ele>233.26</ele>
        <time>2014-10-18T08:33:35Z</time>
      </trkpt>
      <trkpt lat="43.95967" lon="1.88879">
        <ele>232.3</ele>
        <time>2014-10-18T08:33:46Z</time>
      </trkpt>
      <trkpt lat="43.95958" lon="1.88891">
        <ele>231.81</ele>
        <time>2014-10-18T08:33:58Z</time>
      </trkpt>
      <trkpt lat="43.95948" lon="1.88905">
        <ele>231.81</ele>
        <time>2014-10-18T08:34:11Z</time>
      </trkpt>
      <trkpt lat="43.9594" lon="1.88917">
        <ele>231.33</ele>
        <time>2014-10-18T08:34:22Z</time>
      </trkpt>
      <trkpt lat="43.95929" lon="1.88929">
        <ele>231.33</ele>
        <time>2014-10-18T08:34:34Z</time>
      </trkpt>
      <trkpt lat="43.95918" lon="1.88943">
        <ele>230.37</ele>
        <time>2014-10-18T08:34:46Z</time>
      </trkpt>
      <trkpt lat="43.95907" lon="1.88956">
        <ele>229.89</ele>
        <time>2014-10-18T08:34:58Z</time>
      </trkpt>
      <trkpt lat="43.95893" lon="1.88971">
        <ele>229.41</ele>
        <time>2014-10-18T08:35:12Z</time>
      </trkpt>
      <trkpt lat="43.95881" lon="1.88983">
        <ele>228.45</ele>
        <time>2014-10-18T08:35:25Z</time>
      </trkpt>
      <trkpt lat="43.95868" lon="1.88995">
        <ele>227.49</ele>
        <time>2014-10-18T08:35:38Z</time>
      </trkpt>
      <trkpt lat="43.95856" lon="1.89007">
        <ele>227.01</ele>
        <time>2014-10-18T08:35:50Z</time>
      </trkpt>
      <trkpt lat="43.95842" lon="1.89018">
        <ele>227.01</ele>
        <time>2014-10-18T08:36:03Z</time>
      </trkpt>
      <trkpt lat="43.95827" lon="1.89018">
        <ele>227.01</ele>
        <time>2014-10-18T08:36:16Z</time>
      </trkpt>
      <trkpt lat="43.9582" lon="1.89021">
        <ele>227.01</ele>
        <time>2014-10-18T08:36:27Z</time>
      </trkpt>
      <trkpt lat="43.9582" lon="1.8902">
        <ele>227.01</ele>
        <time>2014-10-18T08:36:50Z</time>
      </trkpt>
      <trkpt lat="43.95819" lon="1.8902">
        <ele>226.53</ele>
        <time>2014-10-18T08:36:51Z</time>
      </trkpt>
      <trkpt lat="43.95808" lon="1.89021">
        <ele>226.53</ele>
        <time>2014-10-18T08:37:00Z</time>
      </trkpt>
      <trkpt lat="43.9579" lon="1.89022">
        <ele>225.09</ele>
        <time>2014-10-18T08:37:13Z</time>
      </trkpt>
      <trkpt lat="43.95777" lon="1.89024">
        <ele>224.61</ele>
        <time>2014-10-18T08:37:25Z</time>
      </trkpt>
      <trkpt lat="43.95775" lon="1.89024">
        <ele>224.61</ele>
        <time>2014-10-18T08:37:28Z</time>
      </trkpt>
      <trkpt lat="43.95774" lon="1.89023">
        <ele>224.61</ele>
        <time>2014-10-18T08:37:29Z</time>
      </trkpt>
      <trkpt lat="43.95766" lon="1.89">
        <ele>224.12</ele>
        <time>2014-10-18T08:37:43Z</time>
      </trkpt>
      <trkpt lat="43.95761" lon="1.88977">
        <ele>224.61</ele>
        <time>2014-10-18T08:37:56Z</time>
      </trkpt>
      <trkpt lat="43.95753" lon="1.88953">
        <ele>224.12</ele>
        <time>2014-10-18T08:38:10Z</time>
      </trkpt>
      <trkpt lat="43.95749" lon="1.88932">
        <ele>226.53</ele>
        <time>2014-10-18T08:38:24Z</time>
      </trkpt>
      <trkpt lat="43.95749" lon="1.88931">
        <ele>226.05</ele>
        <time>2014-10-18T08:38:25Z</time>
      </trkpt>
      <trkpt lat="43.9575" lon="1.88929">
        <ele>227.01</ele>
        <time>2014-10-18T08:38:26Z</time>
      </trkpt>
      <trkpt lat="43.95754" lon="1.88914">
        <ele>227.97</ele>
        <time>2014-10-18T08:38:37Z</time>
      </trkpt>
      <trkpt lat="43.95758" lon="1.88896">
        <ele>229.89</ele>
        <time>2014-10-18T08:38:50Z</time>
      </trkpt>
      <trkpt lat="43.95762" lon="1.88882">
        <ele>231.81</ele>
        <time>2014-10-18T08:39:01Z</time>
      </trkpt>
      <trkpt lat="43.95765" lon="1.88866">
        <ele>232.78</ele>
        <time>2014-10-18T08:39:15Z</time>
      </trkpt>
      <trkpt lat="43.95769" lon="1.88848">
        <ele>233.74</ele>
        <time>2014-10-18T08:39:28Z</time>
      </trkpt>
      <trkpt lat="43.95772" lon="1.88835">
        <ele>235.18</ele>
        <time>2014-10-18T08:39:39Z</time>
      </trkpt>
      <trkpt lat="43.95777" lon="1.88821">
        <ele>236.14</ele>
        <time>2014-10-18T08:39:51Z</time>
      </trkpt>
      <trkpt lat="43.95782" lon="1.88817">
        <ele>236.62</ele>
        <time>2014-10-18T08:40:01Z</time>
      </trkpt>
      <trkpt lat="43.95787" lon="1.88806">
        <ele>236.62</ele>
        <time>2014-10-18T08:40:11Z</time>
      </trkpt>
      <trkpt lat="43.95793" lon="1.88791">
        <ele>238.54</ele>
        <time>2014-10-18T08:40:23Z</time>
      </trkpt>
      <trkpt lat="43.95797" lon="1.88785">
        <ele>239.02</ele>
        <time>2014-10-18T08:40:27Z</time>
      </trkpt>
      <trkpt lat="43.95797" lon="1.88784">
        <ele>238.54</ele>
        <time>2014-10-18T08:40:28Z</time>
      </trkpt>
      <trkpt lat="43.95801" lon="1.88771">
        <ele>239.51</ele>
        <time>2014-10-18T08:40:39Z</time>
      </trkpt>
      <trkpt lat="43.958" lon="1.88751">
        <ele>241.43</ele>
        <time>2014-10-18T08:40:52Z</time>
      </trkpt>
      <trkpt lat="43.95797" lon="1.88734">
        <ele>242.39</ele>
        <time>2014-10-18T08:41:03Z</time>
      </trkpt>
      <trkpt lat="43.9579" lon="1.88719">
        <ele>242.87</ele>
        <time>2014-10-18T08:41:15Z</time>
      </trkpt>
      <trkpt lat="43.95779" lon="1.88708">
        <ele>243.35</ele>
        <time>2014-10-18T08:41:27Z</time>
      </trkpt>
      <trkpt lat="43.95765" lon="1.88698">
        <ele>244.79</ele>
        <time>2014-10-18T08:41:40Z</time>
      </trkpt>
      <trkpt lat="43.95754" lon="1.88688">
        <ele>245.75</ele>
        <time>2014-10-18T08:41:52Z</time>
      </trkpt>
      <trkpt lat="43.95742" lon="1.88679">
        <ele>246.23</ele>
        <time>2014-10-18T08:42:05Z</time>
      </trkpt>
      <trkpt lat="43.95731" lon="1.88668">
        <ele>247.68</ele>
        <time>2014-10-18T08:42:17Z</time>
      </trkpt>
      <trkpt lat="43.9572" lon="1.88655">
        <ele>248.64</ele>
        <time>2014-10-18T08:42:30Z</time>
      </trkpt>
      <trkpt lat="43.95711" lon="1.88643">
        <ele>248.64</ele>
        <time>2014-10-18T08:42:41Z</time>
      </trkpt>
      <trkpt lat="43.95708" lon="1.8864">
        <ele>249.12</ele>
        <time>2014-10-18T08:42:51Z</time>
      </trkpt>
      <trkpt lat="43.95707" lon="1.8864">
        <ele>249.12</ele>
        <time>2014-10-18T08:43:07Z</time>
      </trkpt>
      <trkpt lat="43.95707" lon="1.88637">
        <ele>249.12</ele>
        <time>2014-10-18T08:43:26Z</time>
      </trkpt>
      <trkpt lat="43.95707" lon="1.88636">
        <ele>249.12</ele>
        <time>2014-10-18T08:43:47Z</time>
      </trkpt>
      <trkpt lat="43.95707" lon="1.88637">
        <ele>248.64</ele>
        <time>2014-10-18T08:44:10Z</time>
      </trkpt>
      <trkpt lat="43.95706" lon="1.88638">
        <ele>249.12</ele>
        <time>2014-10-18T08:44:32Z</time>
      </trkpt>
      <trkpt lat="43.95706" lon="1.88639">
        <ele>249.12</ele>
        <time>2014-10-18T08:44:56Z</time>
      </trkpt>
      <trkpt lat="43.95706" lon="1.88639">
        <ele>249.12</ele>
        <time>2014-10-18T08:45:18Z</time>
      </trkpt>
      <trkpt lat="43.95706" lon="1.88639">
        <ele>249.12</ele>
        <time>2014-10-18T08:45:44Z</time>
      </trkpt>
      <trkpt lat="43.95702" lon="1.88635">
        <ele>248.64</ele>
        <time>2014-10-18T08:46:13Z</time>
      </trkpt>
      <trkpt lat="43.95696" lon="1.88644">
        <ele>248.16</ele>
        <time>2014-10-18T08:46:27Z</time>
      </trkpt>
      <trkpt lat="43.95694" lon="1.88654">
        <ele>247.68</ele>
        <time>2014-10-18T08:46:35Z</time>
      </trkpt>
      <trkpt lat="43.95689" lon="1.88668">
        <ele>247.2</ele>
        <time>2014-10-18T08:46:47Z</time>
      </trkpt>
      <trkpt lat="43.95681" lon="1.88684">
        <ele>246.72</ele>
        <time>2014-10-18T08:47:01Z</time>
      </trkpt>
      <trkpt lat="43.95673" lon="1.887">
        <ele>246.23</ele>
        <time>2014-10-18T08:47:14Z</time>
      </trkpt>
      <trkpt lat="43.95663" lon="1.88716">
        <ele>246.23</ele>
        <time>2014-10-18T08:47:27Z</time>
      </trkpt>
      <trkpt lat="43.95652" lon="1.88731">
        <ele>246.23</ele>
        <time>2014-10-18T08:47:41Z</time>
      </trkpt>
      <trkpt lat="43.95645" lon="1.88739">
        <ele>245.75</ele>
        <time>2014-10-18T08:47:54Z</time>
      </trkpt>
      <trkpt lat="43.95638" lon="1.88752">
        <ele>245.75</ele>
        <time>2014-10-18T08:48:07Z</time>
      </trkpt>
      <trkpt lat="43.95631" lon="1.88765">
        <ele>245.27</ele>
        <time>2014-10-18T08:48:19Z</time>
      </trkpt>
      <trkpt lat="43.95621" lon="1.88778">
        <ele>245.75</ele>
        <time>2014-10-18T08:48:32Z</time>
      </trkpt>
      <trkpt lat="43.95611" lon="1.88789">
        <ele>245.75</ele>
        <time>2014-10-18T08:48:44Z</time>
      </trkpt>
      <trkpt lat="43.95601" lon="1.888">
        <ele>245.75</ele>
        <time>2014-10-18T08:48:57Z</time>
      </trkpt>
      <trkpt lat="43.95589" lon="1.88815">
        <ele>246.23</ele>
        <time>2014-10-18T08:49:12Z</time>
      </trkpt>
      <trkpt lat="43.95577" lon="1.88829">
        <ele>245.75</ele>
        <time>2014-10-18T08:49:26Z</time>
      </trkpt>
      <trkpt lat="43.95568" lon="1.88839">
        <ele>245.75</ele>
        <time>2014-10-18T08:49:37Z</time>
      </trkpt>
      <trkpt lat="43.95556" lon="1.88849">
        <ele>245.75</ele>
        <time>2014-10-18T08:49:49Z</time>
      </trkpt>
      <trkpt lat="43.95543" lon="1.88862">
        <ele>245.27</ele>
        <time>2014-10-18T08:50:02Z</time>
      </trkpt>
      <trkpt lat="43.95531" lon="1.88877">
        <ele>245.27</ele>
        <time>2014-10-18T08:50:16Z</time>
      </trkpt>
      <trkpt lat="43.95516" lon="1.88896">
        <ele>244.31</ele>
        <time>2014-10-18T08:50:33Z</time>
      </trkpt>
      <trkpt lat="43.95504" lon="1.88911">
        <ele>243.83</ele>
        <time>2014-10-18T08:50:47Z</time>
      </trkpt>
      <trkpt lat="43.95491" lon="1.8892">
        <ele>242.87</ele>
        <time>2014-10-18T08:51:00Z</time>
      </trkpt>
      <trkpt lat="43.95477" lon="1.88919">
        <ele>242.39</ele>
        <time>2014-10-18T08:51:13Z</time>
      </trkpt>
      <trkpt lat="43.95463" lon="1.88907">
        <ele>241.43</ele>
        <time>2014-10-18T08:51:27Z</time>
      </trkpt>
      <trkpt lat="43.9545" lon="1.88897">
        <ele>240.47</ele>
        <time>2014-10-18T08:51:40Z</time>
      </trkpt>
      <trkpt lat="43.95435" lon="1.88891">
        <ele>238.54</ele>
        <time>2014-10-18T08:51:54Z</time>
      </trkpt>
      <trkpt lat="43.9542" lon="1.88891">
        <ele>237.58</ele>
        <time>2014-10-18T08:52:07Z</time>
      </trkpt>
      <trkpt lat="43.95407" lon="1.889">
        <ele>237.1</ele>
        <time>2014-10-18T08:52:20Z</time>
      </trkpt>
      <trkpt lat="43.95399" lon="1.88915">
        <ele>237.1</ele>
        <time>2014-10-18T08:52:31Z</time>
      </trkpt>
      <trkpt lat="43.95393" lon="1.88933">
        <ele>237.58</ele>
        <time>2014-10-18T08:52:43Z</time>
      </trkpt>
      <trkpt lat="43.95384" lon="1.88948">
        <ele>237.1</ele>
        <time>2014-10-18T08:52:56Z</time>
      </trkpt>
      <trkpt lat="43.95372" lon="1.8896">
        <ele>236.62</ele>
        <time>2014-10-18T08:53:09Z</time>
      </trkpt>
      <trkpt lat="43.95362" lon="1.88975">
        <ele>236.62</ele>
        <time>2014-10-18T08:53:21Z</time>
      </trkpt>
      <trkpt lat="43.95356" lon="1.88995">
        <ele>236.62</ele>
        <time>2014-10-18T08:53:34Z</time>
      </trkpt>
      <trkpt lat="43.95351" lon="1.89018">
        <ele>235.66</ele>
        <time>2014-10-18T08:53:48Z</time>
      </trkpt>
      <trkpt lat="43.95345" lon="1.8904">
        <ele>235.18</ele>
        <time>2014-10-18T08:54:02Z</time>
      </trkpt>
      <trkpt lat="43.95342" lon="1.8906">
        <ele>234.22</ele>
        <time>2014-10-18T08:54:16Z</time>
      </trkpt>
      <trkpt lat="43.95348" lon="1.89063">
        <ele>235.18</ele>
        <time>2014-10-18T08:54:25Z</time>
      </trkpt>
      <trkpt lat="43.95347" lon="1.89066">
        <ele>234.7</ele>
        <time>2014-10-18T08:54:37Z</time>
      </trkpt>
      <trkpt lat="43.95345" lon="1.89066">
        <ele>234.7</ele>
        <time>2014-10-18T08:54:49Z</time>
      </trkpt>
      <trkpt lat="43.95345" lon="1.8907">
        <ele>234.7</ele>
        <time>2014-10-18T08:55:01Z</time>
      </trkpt>
      <trkpt lat="43.95343" lon="1.89066">
        <ele>234.7</ele>
        <time>2014-10-18T08:55:12Z</time>
      </trkpt>
      <trkpt lat="43.95336" lon="1.89069">
        <ele>234.22</ele>
        <time>2014-10-18T08:55:23Z</time>
      </trkpt>
      <trkpt lat="43.95334" lon="1.89075">
        <ele>234.22</ele>
        <time>2014-10-18T08:55:33Z</time>
      </trkpt>
      <trkpt lat="43.95334" lon="1.89075">
        <ele>233.74</ele>
        <time>2014-10-18T08:55:43Z</time>
      </trkpt>
      <trkpt lat="43.95329" lon="1.89073">
        <ele>233.74</ele>
        <time>2014-10-18T08:55:50Z</time>
      </trkpt>
      <trkpt lat="43.95326" lon="1.89075">
        <ele>233.26</ele>
        <time>2014-10-18T08:55:54Z</time>
      </trkpt>
      <trkpt lat="43.95321" lon="1.89081">
        <ele>232.78</ele>
        <time>2014-10-18T08:56:04Z</time>
      </trkpt>
      <trkpt lat="43.95313" lon="1.8909">
        <ele>232.3</ele>
        <time>2014-10-18T08:56:18Z</time>
      </trkpt>
      <trkpt lat="43.95309" lon="1.89095">
        <ele>231.81</ele>
        <time>2014-10-18T08:56:31Z</time>
      </trkpt>
      <trkpt lat="43.95307" lon="1.89105">
        <ele>231.81</ele>
        <time>2014-10-18T08:56:41Z</time>
      </trkpt>
      <trkpt lat="43.9531" lon="1.89112">
        <ele>231.33</ele>
        <time>2014-10-18T08:56:52Z</time>
      </trkpt>
      <trkpt lat="43.95311" lon="1.89113">
        <ele>231.33</ele>
        <time>2014-10-18T08:57:05Z</time>
      </trkpt>
      <trkpt lat="43.95311" lon="1.89113">
        <ele>231.33</ele>
        <time>2014-10-18T08:57:23Z</time>
      </trkpt>
      <trkpt lat="43.95309" lon="1.89115">
        <ele>231.33</ele>
        <time>2014-10-18T08:57:36Z</time>
      </trkpt>
      <trkpt lat="43.95309" lon="1.89118">
        <ele>231.33</ele>
        <time>2014-10-18T08:57:58Z</time>
      </trkpt>
      <trkpt lat="43.95309" lon="1.89118">
        <ele>231.33</ele>
        <time>2014-10-18T08:58:08Z</time>
      </trkpt>
      <trkpt lat="43.95311" lon="1.89125">
        <ele>230.37</ele>
        <time>2014-10-18T08:58:19Z</time>
      </trkpt>
      <trkpt lat="43.95309" lon="1.89128">
        <ele>229.41</ele>
        <time>2014-10-18T08:58:30Z</time>
      </trkpt>
      <trkpt lat="43.95311" lon="1.89136">
        <ele>228.93</ele>
        <time>2014-10-18T08:58:43Z</time>
      </trkpt>
      <trkpt lat="43.9531" lon="1.89136">
        <ele>228.93</ele>
        <time>2014-10-18T08:59:03Z</time>
      </trkpt>
      <trkpt lat="43.9531" lon="1.89134">
        <ele>228.93</ele>
        <time>2014-10-18T08:59:18Z</time>
      </trkpt>
      <trkpt lat="43.95309" lon="1.89129">
        <ele>228.93</ele>
        <time>2014-10-18T08:59:27Z</time>
      </trkpt>
      <trkpt lat="43.95307" lon="1.89128">
        <ele>228.93</ele>
        <time>2014-10-18T08:59:28Z</time>
      </trkpt>
      <trkpt lat="43.95304" lon="1.89129">
        <ele>228.93</ele>
        <time>2014-10-18T08:59:31Z</time>
      </trkpt>
      <trkpt lat="43.95296" lon="1.8913">
        <ele>227.49</ele>
        <time>2014-10-18T08:59:43Z</time>
      </trkpt>
      <trkpt lat="43.953" lon="1.89138">
        <ele>226.53</ele>
        <time>2014-10-18T08:59:55Z</time>
      </trkpt>
      <trkpt lat="43.95302" lon="1.89148">
        <ele>225.57</ele>
        <time>2014-10-18T09:00:02Z</time>
      </trkpt>
      <trkpt lat="43.95307" lon="1.89149">
        <ele>224.12</ele>
        <time>2014-10-18T09:00:10Z</time>
      </trkpt>
      <trkpt lat="43.95308" lon="1.89152">
        <ele>223.64</ele>
        <time>2014-10-18T09:00:18Z</time>
      </trkpt>
      <trkpt lat="43.95303" lon="1.89154">
        <ele>223.16</ele>
        <time>2014-10-18T09:00:23Z</time>
      </trkpt>
      <trkpt lat="43.95302" lon="1.89155">
        <ele>222.68</ele>
        <time>2014-10-18T09:00:24Z</time>
      </trkpt>
      <trkpt lat="43.95298" lon="1.89157">
        <ele>221.72</ele>
        <time>2014-10-18T09:00:36Z</time>
      </trkpt>
      <trkpt lat="43.9529" lon="1.89157">
        <ele>222.68</ele>
        <time>2014-10-18T09:00:46Z</time>
      </trkpt>
      <trkpt lat="43.95283" lon="1.8916">
        <ele>219.8</ele>
        <time>2014-10-18T09:00:56Z</time>
      </trkpt>
      <trkpt lat="43.95267" lon="1.89158">
        <ele>217.88</ele>
        <time>2014-10-18T09:01:11Z</time>
      </trkpt>
      <trkpt lat="43.95266" lon="1.89157">
        <ele>217.88</ele>
        <time>2014-10-18T09:01:12Z</time>
      </trkpt>
      <trkpt lat="43.95256" lon="1.8915">
        <ele>216.91</ele>
        <time>2014-10-18T09:01:23Z</time>
      </trkpt>
      <trkpt lat="43.95253" lon="1.89141">
        <ele>216.43</ele>
        <time>2014-10-18T09:01:31Z</time>
      </trkpt>
      <trkpt lat="43.95241" lon="1.89138">
        <ele>214.99</ele>
        <time>2014-10-18T09:01:43Z</time>
      </trkpt>
      <trkpt lat="43.95225" lon="1.89137">
        <ele>212.59</ele>
        <time>2014-10-18T09:01:57Z</time>
      </trkpt>
      <trkpt lat="43.95213" lon="1.89136">
        <ele>210.19</ele>
        <time>2014-10-18T09:02:11Z</time>
      </trkpt>
      <trkpt lat="43.95199" lon="1.89133">
        <ele>208.74</ele>
        <time>2014-10-18T09:02:24Z</time>
      </trkpt>
      <trkpt lat="43.95185" lon="1.8913">
        <ele>206.34</ele>
        <time>2014-10-18T09:02:38Z</time>
      </trkpt>
      <trkpt lat="43.95173" lon="1.89129">
        <ele>204.42</ele>
        <time>2014-10-18T09:02:50Z</time>
      </trkpt>
      <trkpt lat="43.9516" lon="1.89126">
        <ele>202.98</ele>
        <time>2014-10-18T09:03:04Z</time>
      </trkpt>
      <trkpt lat="43.95144" lon="1.89125">
        <ele>201.53</ele>
        <time>2014-10-18T09:03:18Z</time>
      </trkpt>
      <trkpt lat="43.95141" lon="1.89129">
        <ele>201.05</ele>
        <time>2014-10-18T09:03:21Z</time>
      </trkpt>
      <trkpt lat="43.95139" lon="1.89146">
        <ele>201.05</ele>
        <time>2014-10-18T09:03:32Z</time>
      </trkpt>
      <trkpt lat="43.95137" lon="1.89161">
        <ele>200.57</ele>
        <time>2014-10-18T09:03:42Z</time>
      </trkpt>
      <trkpt lat="43.95137" lon="1.89162">
        <ele>200.57</ele>
        <time>2014-10-18T09:03:43Z</time>
      </trkpt>
      <trkpt lat="43.95135" lon="1.8918">
        <ele>200.57</ele>
        <time>2014-10-18T09:03:55Z</time>
      </trkpt>
      <trkpt lat="43.95132" lon="1.89201">
        <ele>200.09</ele>
        <time>2014-10-18T09:04:09Z</time>
      </trkpt>
      <trkpt lat="43.95128" lon="1.8922">
        <ele>200.09</ele>
        <time>2014-10-18T09:04:21Z</time>
      </trkpt>
      <trkpt lat="43.95123" lon="1.89245">
        <ele>199.61</ele>
        <time>2014-10-18T09:04:36Z</time>
      </trkpt>
      <trkpt lat="43.95119" lon="1.89269">
        <ele>199.13</ele>
        <time>2014-10-18T09:04:50Z</time>
      </trkpt>
      <trkpt lat="43.95114" lon="1.8929">
        <ele>199.13</ele>
        <time>2014-10-18T09:05:04Z</time>
      </trkpt>
      <trkpt lat="43.95105" lon="1.89302">
        <ele>199.13</ele>
        <time>2014-10-18T09:05:16Z</time>
      </trkpt>
      <trkpt lat="43.9509" lon="1.89313">
        <ele>199.61</ele>
        <time>2014-10-18T09:05:30Z</time>
      </trkpt>
      <trkpt lat="43.95078" lon="1.89324">
        <ele>200.09</ele>
        <time>2014-10-18T09:05:42Z</time>
      </trkpt>
      <trkpt lat="43.95067" lon="1.89337">
        <ele>200.09</ele>
        <time>2014-10-18T09:05:54Z</time>
      </trkpt>
      <trkpt lat="43.95058" lon="1.89347">
        <ele>200.57</ele>
        <time>2014-10-18T09:06:04Z</time>
      </trkpt>
      <trkpt lat="43.95057" lon="1.89348">
        <ele>200.57</ele>
        <time>2014-10-18T09:06:05Z</time>
      </trkpt>
      <trkpt lat="43.95045" lon="1.89364">
        <ele>201.05</ele>
        <time>2014-10-18T09:06:19Z</time>
      </trkpt>
      <trkpt lat="43.95035" lon="1.89377">
        <ele>201.53</ele>
        <time>2014-10-18T09:06:31Z</time>
      </trkpt>
      <trkpt lat="43.95023" lon="1.8939">
        <ele>201.53</ele>
        <time>2014-10-18T09:06:44Z</time>
      </trkpt>
      <trkpt lat="43.95012" lon="1.89402">
        <ele>202.49</ele>
        <time>2014-10-18T09:06:56Z</time>
      </trkpt>
      <trkpt lat="43.95001" lon="1.89416">
        <ele>202.98</ele>
        <time>2014-10-18T09:07:09Z</time>
      </trkpt>
      <trkpt lat="43.94989" lon="1.89431">
        <ele>203.46</ele>
        <time>2014-10-18T09:07:24Z</time>
      </trkpt>
      <trkpt lat="43.94977" lon="1.89446">
        <ele>204.42</ele>
        <time>2014-10-18T09:07:38Z</time>
      </trkpt>
      <trkpt lat="43.94968" lon="1.89457">
        <ele>204.9</ele>
        <time>2014-10-18T09:07:49Z</time>
      </trkpt>
      <trkpt lat="43.94957" lon="1.89471">
        <ele>205.86</ele>
        <time>2014-10-18T09:08:02Z</time>
      </trkpt>
      <trkpt lat="43.94947" lon="1.89487">
        <ele>206.34</ele>
        <time>2014-10-18T09:08:16Z</time>
      </trkpt>
      <trkpt lat="43.94937" lon="1.89505">
        <ele>206.82</ele>
        <time>2014-10-18T09:08:30Z</time>
      </trkpt>
      <trkpt lat="43.94927" lon="1.89522">
        <ele>207.3</ele>
        <time>2014-10-18T09:08:44Z</time>
      </trkpt>
      <trkpt lat="43.94917" lon="1.89539">
        <ele>207.78</ele>
        <time>2014-10-18T09:08:57Z</time>
      </trkpt>
      <trkpt lat="43.94907" lon="1.89554">
        <ele>207.78</ele>
        <time>2014-10-18T09:09:10Z</time>
      </trkpt>
      <trkpt lat="43.94897" lon="1.89567">
        <ele>208.26</ele>
        <time>2014-10-18T09:09:23Z</time>
      </trkpt>
      <trkpt lat="43.94882" lon="1.8958">
        <ele>208.26</ele>
        <time>2014-10-18T09:09:38Z</time>
      </trkpt>
      <trkpt lat="43.94864" lon="1.89589">
        <ele>208.74</ele>
        <time>2014-10-18T09:09:53Z</time>
      </trkpt>
      <trkpt lat="43.94847" lon="1.89595">
        <ele>209.22</ele>
        <time>2014-10-18T09:10:07Z</time>
      </trkpt>
      <trkpt lat="43.94829" lon="1.89599">
        <ele>209.22</ele>
        <time>2014-10-18T09:10:22Z</time>
      </trkpt>
      <trkpt lat="43.94814" lon="1.89599">
        <ele>209.7</ele>
        <time>2014-10-18T09:10:35Z</time>
      </trkpt>
      <trkpt lat="43.94808" lon="1.89599">
        <ele>210.19</ele>
        <time>2014-10-18T09:10:40Z</time>
      </trkpt>
      <trkpt lat="43.94807" lon="1.89599">
        <ele>209.7</ele>
        <time>2014-10-18T09:10:41Z</time>
      </trkpt>
      <trkpt lat="43.94789" lon="1.89599">
        <ele>210.67</ele>
        <time>2014-10-18T09:10:56Z</time>
      </trkpt>
      <trkpt lat="43.94775" lon="1.896">
        <ele>211.63</ele>
        <time>2014-10-18T09:11:09Z</time>
      </trkpt>
      <trkpt lat="43.94759" lon="1.89601">
        <ele>212.59</ele>
        <time>2014-10-18T09:11:23Z</time>
      </trkpt>
      <trkpt lat="43.94748" lon="1.89604">
        <ele>213.55</ele>
        <time>2014-10-18T09:11:36Z</time>
      </trkpt>
      <trkpt lat="43.94735" lon="1.89609">
        <ele>214.51</ele>
        <time>2014-10-18T09:11:48Z</time>
      </trkpt>
      <trkpt lat="43.94722" lon="1.89613">
        <ele>215.47</ele>
        <time>2014-10-18T09:12:00Z</time>
      </trkpt>
      <trkpt lat="43.94709" lon="1.89619">
        <ele>216.91</ele>
        <time>2014-10-18T09:12:13Z</time>
      </trkpt>
      <trkpt lat="43.94696" lon="1.89625">
        <ele>218.84</ele>
        <time>2014-10-18T09:12:26Z</time>
      </trkpt>
      <trkpt lat="43.94681" lon="1.89634">
        <ele>220.76</ele>
        <time>2014-10-18T09:12:42Z</time>
      </trkpt>
      <trkpt lat="43.9467" lon="1.89641">
        <ele>222.2</ele>
        <time>2014-10-18T09:12:54Z</time>
      </trkpt>
      <trkpt lat="43.94656" lon="1.89647">
        <ele>223.64</ele>
        <time>2014-10-18T09:13:08Z</time>
      </trkpt>
      <trkpt lat="43.94644" lon="1.89654">
        <ele>225.09</ele>
        <time>2014-10-18T09:13:21Z</time>
      </trkpt>
      <trkpt lat="43.94634" lon="1.89663">
        <ele>227.01</ele>
        <time>2014-10-18T09:13:34Z</time>
      </trkpt>
      <trkpt lat="43.94624" lon="1.8967">
        <ele>228.45</ele>
        <time>2014-10-18T09:13:45Z</time>
      </trkpt>
      <trkpt lat="43.94614" lon="1.89678">
        <ele>230.85</ele>
        <time>2014-10-18T09:13:59Z</time>
      </trkpt>
      <trkpt lat="43.94605" lon="1.89688">
        <ele>231.81</ele>
        <time>2014-10-18T09:14:10Z</time>
      </trkpt>
      <trkpt lat="43.94597" lon="1.89697">
        <ele>233.74</ele>
        <time>2014-10-18T09:14:24Z</time>
      </trkpt>
      <trkpt lat="43.94588" lon="1.8971">
        <ele>235.18</ele>
        <time>2014-10-18T09:14:37Z</time>
      </trkpt>
      <trkpt lat="43.94577" lon="1.89722">
        <ele>236.62</ele>
        <time>2014-10-18T09:14:51Z</time>
      </trkpt>
      <trkpt lat="43.94567" lon="1.89732">
        <ele>238.06</ele>
        <time>2014-10-18T09:15:03Z</time>
      </trkpt>
      <trkpt lat="43.94556" lon="1.89738">
        <ele>239.99</ele>
        <time>2014-10-18T09:15:15Z</time>
      </trkpt>
      <trkpt lat="43.94539" lon="1.89744">
        <ele>240.95</ele>
        <time>2014-10-18T09:15:30Z</time>
      </trkpt>
      <trkpt lat="43.94527" lon="1.89747">
        <ele>241.91</ele>
        <time>2014-10-18T09:15:41Z</time>
      </trkpt>
      <trkpt lat="43.94516" lon="1.89751">
        <ele>242.87</ele>
        <time>2014-10-18T09:15:52Z</time>
      </trkpt>
      <trkpt lat="43.94502" lon="1.89757">
        <ele>243.83</ele>
        <time>2014-10-18T09:16:05Z</time>
      </trkpt>
      <trkpt lat="43.94485" lon="1.89764">
        <ele>244.79</ele>
        <time>2014-10-18T09:16:20Z</time>
      </trkpt>
      <trkpt lat="43.94471" lon="1.89772">
        <ele>245.75</ele>
        <time>2014-10-18T09:16:34Z</time>
      </trkpt>
      <trkpt lat="43.94456" lon="1.89779">
        <ele>246.23</ele>
        <time>2014-10-18T09:16:48Z</time>
      </trkpt>
      <trkpt lat="43.94447" lon="1.8979">
        <ele>245.75</ele>
        <time>2014-10-18T09:17:00Z</time>
      </trkpt>
      <trkpt lat="43.94446" lon="1.89793">
        <ele>246.23</ele>
        <time>2014-10-18T09:17:03Z</time>
      </trkpt>
      <trkpt lat="43.94447" lon="1.89806">
        <ele>244.79</ele>
        <time>2014-10-18T09:17:13Z</time>
      </trkpt>
      <trkpt lat="43.94449" lon="1.89823">
        <ele>244.31</ele>
        <time>2014-10-18T09:17:27Z</time>
      </trkpt>
      <trkpt lat="43.94447" lon="1.8984">
        <ele>243.35</ele>
        <time>2014-10-18T09:17:41Z</time>
      </trkpt>
      <trkpt lat="43.94443" lon="1.89856">
        <ele>243.35</ele>
        <time>2014-10-18T09:17:54Z</time>
      </trkpt>
      <trkpt lat="43.94437" lon="1.89874">
        <ele>242.39</ele>
        <time>2014-10-18T09:18:07Z</time>
      </trkpt>
      <trkpt lat="43.94428" lon="1.89895">
        <ele>241.91</ele>
        <time>2014-10-18T09:18:23Z</time>
      </trkpt>
      <trkpt lat="43.94418" lon="1.89915">
        <ele>241.43</ele>
        <time>2014-10-18T09:18:38Z</time>
      </trkpt>
      <trkpt lat="43.94407" lon="1.89939">
        <ele>240.47</ele>
        <time>2014-10-18T09:18:55Z</time>
      </trkpt>
      <trkpt lat="43.94405" lon="1.89962">
        <ele>239.51</ele>
        <time>2014-10-18T09:19:09Z</time>
      </trkpt>
      <trkpt lat="43.94414" lon="1.89977">
        <ele>239.02</ele>
        <time>2014-10-18T09:19:21Z</time>
      </trkpt>
      <trkpt lat="43.94431" lon="1.89989">
        <ele>238.06</ele>
        <time>2014-10-18T09:19:37Z</time>
      </trkpt>
      <trkpt lat="43.94443" lon="1.90002">
        <ele>237.58</ele>
        <time>2014-10-18T09:19:51Z</time>
      </trkpt>
      <trkpt lat="43.9445" lon="1.90026">
        <ele>237.58</ele>
        <time>2014-10-18T09:20:07Z</time>
      </trkpt>
      <trkpt lat="43.94458" lon="1.90046">
        <ele>236.62</ele>
        <time>2014-10-18T09:20:21Z</time>
      </trkpt>
      <trkpt lat="43.94474" lon="1.90059">
        <ele>235.66</ele>
        <time>2014-10-18T09:20:36Z</time>
      </trkpt>
      <trkpt lat="43.94487" lon="1.90073">
        <ele>235.18</ele>
        <time>2014-10-18T09:20:51Z</time>
      </trkpt>
      <trkpt lat="43.94489" lon="1.90085">
        <ele>234.7</ele>
        <time>2014-10-18T09:21:00Z</time>
      </trkpt>
      <trkpt lat="43.94488" lon="1.90101">
        <ele>234.22</ele>
        <time>2014-10-18T09:21:10Z</time>
      </trkpt>
      <trkpt lat="43.94484" lon="1.90121">
        <ele>234.22</ele>
        <time>2014-10-18T09:21:24Z</time>
      </trkpt>
      <trkpt lat="43.94483" lon="1.90141">
        <ele>233.74</ele>
        <time>2014-10-18T09:21:36Z</time>
      </trkpt>
      <trkpt lat="43.94483" lon="1.90165">
        <ele>233.26</ele>
        <time>2014-10-18T09:21:50Z</time>
      </trkpt>
      <trkpt lat="43.94479" lon="1.90183">
        <ele>233.26</ele>
        <time>2014-10-18T09:22:03Z</time>
      </trkpt>
      <trkpt lat="43.94474" lon="1.90201">
        <ele>233.26</ele>
        <time>2014-10-18T09:22:16Z</time>
      </trkpt>
      <trkpt lat="43.94469" lon="1.90213">
        <ele>233.26</ele>
        <time>2014-10-18T09:22:27Z</time>
      </trkpt>
      <trkpt lat="43.94468" lon="1.90215">
        <ele>233.26</ele>
        <time>2014-10-18T09:22:28Z</time>
      </trkpt>
      <trkpt lat="43.94465" lon="1.90224">
        <ele>233.26</ele>
        <time>2014-10-18T09:22:35Z</time>
      </trkpt>
      <trkpt lat="43.94461" lon="1.90242">
        <ele>232.78</ele>
        <time>2014-10-18T09:22:48Z</time>
      </trkpt>
      <trkpt lat="43.94462" lon="1.90261">
        <ele>232.3</ele>
        <time>2014-10-18T09:23:01Z</time>
      </trkpt>
      <trkpt lat="43.94459" lon="1.90264">
        <ele>232.3</ele>
        <time>2014-10-18T09:23:16Z</time>
      </trkpt>
      <trkpt lat="43.94457" lon="1.90261">
        <ele>232.3</ele>
        <time>2014-10-18T09:23:37Z</time>
      </trkpt>
      <trkpt lat="43.94456" lon="1.90262">
        <ele>232.3</ele>
        <time>2014-10-18T09:23:53Z</time>
      </trkpt>
      <trkpt lat="43.94455" lon="1.90265">
        <ele>232.3</ele>
        <time>2014-10-18T09:24:05Z</time>
      </trkpt>
      <trkpt lat="43.94455" lon="1.90263">
        <ele>231.81</ele>
        <time>2014-10-18T09:24:17Z</time>
      </trkpt>
      <trkpt lat="43.94455" lon="1.90263">
        <ele>232.3</ele>
        <time>2014-10-18T09:24:37Z</time>
      </trkpt>
      <trkpt lat="43.94456" lon="1.90265">
        <ele>232.3</ele>
        <time>2014-10-18T09:24:59Z</time>
      </trkpt>
      <trkpt lat="43.94453" lon="1.90263">
        <ele>232.3</ele>
        <time>2014-10-18T09:25:26Z</time>
      </trkpt>
      <trkpt lat="43.94452" lon="1.90263">
        <ele>232.3</ele>
        <time>2014-10-18T09:25:48Z</time>
      </trkpt>
      <trkpt lat="43.94452" lon="1.90262">
        <ele>232.3</ele>
        <time>2014-10-18T09:26:11Z</time>
      </trkpt>
      <trkpt lat="43.94452" lon="1.90262">
        <ele>232.3</ele>
        <time>2014-10-18T09:26:26Z</time>
      </trkpt>
      <trkpt lat="43.94453" lon="1.90263">
        <ele>232.3</ele>
        <time>2014-10-18T09:26:43Z</time>
      </trkpt>
      <trkpt lat="43.94453" lon="1.90262">
        <ele>232.3</ele>
        <time>2014-10-18T09:26:55Z</time>
      </trkpt>
      <trkpt lat="43.94457" lon="1.90263">
        <ele>232.78</ele>
        <time>2014-10-18T09:27:11Z</time>
      </trkpt>
      <trkpt lat="43.94454" lon="1.90265">
        <ele>232.78</ele>
        <time>2014-10-18T09:27:31Z</time>
      </trkpt>
      <trkpt lat="43.94455" lon="1.90266">
        <ele>232.78</ele>
        <time>2014-10-18T09:27:51Z</time>
      </trkpt>
      <trkpt lat="43.94451" lon="1.90261">
        <ele>233.26</ele>
        <time>2014-10-18T09:28:06Z</time>
      </trkpt>
      <trkpt lat="43.94441" lon="1.90257">
        <ele>232.78</ele>
        <time>2014-10-18T09:28:17Z</time>
      </trkpt>
      <trkpt lat="43.94427" lon="1.90247">
        <ele>232.78</ele>
        <time>2014-10-18T09:28:32Z</time>
      </trkpt>
      <trkpt lat="43.94414" lon="1.90241">
        <ele>232.3</ele>
        <time>2014-10-18T09:28:44Z</time>
      </trkpt>
      <trkpt lat="43.94402" lon="1.90236">
        <ele>231.33</ele>
        <time>2014-10-18T09:28:56Z</time>
      </trkpt>
      <trkpt lat="43.94389" lon="1.90222">
        <ele>230.37</ele>
        <time>2014-10-18T09:29:09Z</time>
      </trkpt>
      <trkpt lat="43.94375" lon="1.9021">
        <ele>229.89</ele>
        <time>2014-10-18T09:29:24Z</time>
      </trkpt>
      <trkpt lat="43.94363" lon="1.90198">
        <ele>229.41</ele>
        <time>2014-10-18T09:29:36Z</time>
      </trkpt>
      <trkpt lat="43.94349" lon="1.9019">
        <ele>229.41</ele>
        <time>2014-10-18T09:29:51Z</time>
      </trkpt>
      <trkpt lat="43.9434" lon="1.90185">
        <ele>230.85</ele>
        <time>2014-10-18T09:30:02Z</time>
      </trkpt>
      <trkpt lat="43.94328" lon="1.90179">
        <ele>232.3</ele>
        <time>2014-10-18T09:30:15Z</time>
      </trkpt>
      <trkpt lat="43.94311" lon="1.90175">
        <ele>233.26</ele>
        <time>2014-10-18T09:30:30Z</time>
      </trkpt>
      <trkpt lat="43.94298" lon="1.90172">
        <ele>233.74</ele>
        <time>2014-10-18T09:30:43Z</time>
      </trkpt>
      <trkpt lat="43.94285" lon="1.9017">
        <ele>235.18</ele>
        <time>2014-10-18T09:30:55Z</time>
      </trkpt>
      <trkpt lat="43.94276" lon="1.90165">
        <ele>236.14</ele>
        <time>2014-10-18T09:31:04Z</time>
      </trkpt>
      <trkpt lat="43.94266" lon="1.90159">
        <ele>238.06</ele>
        <time>2014-10-18T09:31:16Z</time>
      </trkpt>
      <trkpt lat="43.94256" lon="1.90145">
        <ele>239.51</ele>
        <time>2014-10-18T09:31:29Z</time>
      </trkpt>
      <trkpt lat="43.94255" lon="1.90144">
        <ele>239.99</ele>
        <time>2014-10-18T09:31:32Z</time>
      </trkpt>
      <trkpt lat="43.9425" lon="1.90147">
        <ele>239.51</ele>
        <time>2014-10-18T09:31:40Z</time>
      </trkpt>
      <trkpt lat="43.94234" lon="1.90155">
        <ele>239.02</ele>
        <time>2014-10-18T09:31:53Z</time>
      </trkpt>
      <trkpt lat="43.94225" lon="1.90167">
        <ele>237.58</ele>
        <time>2014-10-18T09:32:05Z</time>
      </trkpt>
      <trkpt lat="43.94214" lon="1.90179">
        <ele>237.1</ele>
        <time>2014-10-18T09:32:18Z</time>
      </trkpt>
      <trkpt lat="43.94206" lon="1.90194">
        <ele>236.62</ele>
        <time>2014-10-18T09:32:32Z</time>
      </trkpt>
      <trkpt lat="43.94198" lon="1.9021">
        <ele>236.62</ele>
        <time>2014-10-18T09:32:45Z</time>
      </trkpt>
      <trkpt lat="43.94188" lon="1.90223">
        <ele>236.14</ele>
        <time>2014-10-18T09:32:58Z</time>
      </trkpt>
      <trkpt lat="43.94176" lon="1.90235">
        <ele>236.14</ele>
        <time>2014-10-18T09:33:10Z</time>
      </trkpt>
      <trkpt lat="43.94164" lon="1.90251">
        <ele>236.14</ele>
        <time>2014-10-18T09:33:24Z</time>
      </trkpt>
      <trkpt lat="43.94155" lon="1.90269">
        <ele>236.14</ele>
        <time>2014-10-18T09:33:38Z</time>
      </trkpt>
      <trkpt lat="43.94146" lon="1.90282">
        <ele>236.14</ele>
        <time>2014-10-18T09:33:50Z</time>
      </trkpt>
      <trkpt lat="43.94136" lon="1.90301">
        <ele>236.14</ele>
        <time>2014-10-18T09:34:05Z</time>
      </trkpt>
      <trkpt lat="43.94125" lon="1.90317">
        <ele>234.7</ele>
        <time>2014-10-18T09:34:18Z</time>
      </trkpt>
      <trkpt lat="43.94117" lon="1.90331">
        <ele>233.74</ele>
        <time>2014-10-18T09:34:31Z</time>
      </trkpt>
      <trkpt lat="43.9411" lon="1.90349">
        <ele>231.81</ele>
        <time>2014-10-18T09:34:44Z</time>
      </trkpt>
      <trkpt lat="43.94105" lon="1.90353">
        <ele>230.85</ele>
        <time>2014-10-18T09:34:56Z</time>
      </trkpt>
      <trkpt lat="43.94107" lon="1.90356">
        <ele>230.85</ele>
        <time>2014-10-18T09:35:09Z</time>
      </trkpt>
      <trkpt lat="43.94107" lon="1.9036">
        <ele>230.85</ele>
        <time>2014-10-18T09:35:14Z</time>
      </trkpt>
      <trkpt lat="43.9411" lon="1.90366">
        <ele>229.89</ele>
        <time>2014-10-18T09:35:20Z</time>
      </trkpt>
      <trkpt lat="43.94104" lon="1.90385">
        <ele>228.45</ele>
        <time>2014-10-18T09:35:33Z</time>
      </trkpt>
      <trkpt lat="43.94094" lon="1.90394">
        <ele>227.01</ele>
        <time>2014-10-18T09:35:45Z</time>
      </trkpt>
      <trkpt lat="43.9408" lon="1.90403">
        <ele>225.57</ele>
        <time>2014-10-18T09:35:59Z</time>
      </trkpt>
      <trkpt lat="43.94073" lon="1.90409">
        <ele>225.09</ele>
        <time>2014-10-18T09:36:06Z</time>
      </trkpt>
      <trkpt lat="43.94063" lon="1.90428">
        <ele>223.16</ele>
        <time>2014-10-18T09:36:20Z</time>
      </trkpt>
      <trkpt lat="43.94055" lon="1.90447">
        <ele>221.72</ele>
        <time>2014-10-18T09:36:34Z</time>
      </trkpt>
      <trkpt lat="43.94045" lon="1.90467">
        <ele>219.32</ele>
        <time>2014-10-18T09:36:50Z</time>
      </trkpt>
      <trkpt lat="43.94036" lon="1.90483">
        <ele>217.4</ele>
        <time>2014-10-18T09:37:03Z</time>
      </trkpt>
      <trkpt lat="43.94025" lon="1.90502">
        <ele>214.99</ele>
        <time>2014-10-18T09:37:18Z</time>
      </trkpt>
      <trkpt lat="43.94016" lon="1.90516">
        <ele>212.59</ele>
        <time>2014-10-18T09:37:31Z</time>
      </trkpt>
      <trkpt lat="43.94007" lon="1.90529">
        <ele>210.67</ele>
        <time>2014-10-18T09:37:44Z</time>
      </trkpt>
      <trkpt lat="43.94002" lon="1.90538">
        <ele>209.7</ele>
        <time>2014-10-18T09:37:52Z</time>
      </trkpt>
      <trkpt lat="43.93998" lon="1.90557">
        <ele>207.78</ele>
        <time>2014-10-18T09:38:08Z</time>
      </trkpt>
      <trkpt lat="43.94004" lon="1.90565">
        <ele>207.3</ele>
        <time>2014-10-18T09:38:20Z</time>
      </trkpt>
      <trkpt lat="43.94002" lon="1.9057">
        <ele>206.34</ele>
        <time>2014-10-18T09:38:30Z</time>
      </trkpt>
      <trkpt lat="43.93998" lon="1.90569">
        <ele>206.34</ele>
        <time>2014-10-18T09:38:33Z</time>
      </trkpt>
      <trkpt lat="43.93987" lon="1.9057">
        <ele>204.9</ele>
        <time>2014-10-18T09:38:45Z</time>
      </trkpt>
      <trkpt lat="43.93979" lon="1.90585">
        <ele>201.53</ele>
        <time>2014-10-18T09:39:00Z</time>
      </trkpt>
      <trkpt lat="43.93978" lon="1.90587">
        <ele>201.53</ele>
        <time>2014-10-18T09:39:02Z</time>
      </trkpt>
      <trkpt lat="43.93969" lon="1.90603">
        <ele>199.13</ele>
        <time>2014-10-18T09:39:16Z</time>
      </trkpt>
      <trkpt lat="43.93962" lon="1.90614">
        <ele>196.25</ele>
        <time>2014-10-18T09:39:28Z</time>
      </trkpt>
      <trkpt lat="43.93952" lon="1.9063">
        <ele>193.36</ele>
        <time>2014-10-18T09:39:41Z</time>
      </trkpt>
      <trkpt lat="43.93943" lon="1.90648">
        <ele>191.44</ele>
        <time>2014-10-18T09:39:55Z</time>
      </trkpt>
      <trkpt lat="43.93935" lon="1.9066">
        <ele>190</ele>
        <time>2014-10-18T09:40:06Z</time>
      </trkpt>
      <trkpt lat="43.93923" lon="1.90677">
        <ele>189.04</ele>
        <time>2014-10-18T09:40:20Z</time>
      </trkpt>
      <trkpt lat="43.93913" lon="1.90694">
        <ele>187.59</ele>
        <time>2014-10-18T09:40:34Z</time>
      </trkpt>
      <trkpt lat="43.939" lon="1.90709">
        <ele>185.67</ele>
        <time>2014-10-18T09:40:48Z</time>
      </trkpt>
      <trkpt lat="43.93888" lon="1.90726">
        <ele>185.19</ele>
        <time>2014-10-18T09:41:03Z</time>
      </trkpt>
      <trkpt lat="43.93878" lon="1.90742">
        <ele>184.71</ele>
        <time>2014-10-18T09:41:16Z</time>
      </trkpt>
      <trkpt lat="43.93868" lon="1.90756">
        <ele>185.19</ele>
        <time>2014-10-18T09:41:28Z</time>
      </trkpt>
      <trkpt lat="43.93855" lon="1.9077">
        <ele>185.19</ele>
        <time>2014-10-18T09:41:41Z</time>
      </trkpt>
      <trkpt lat="43.93845" lon="1.90784">
        <ele>186.15</ele>
        <time>2014-10-18T09:41:53Z</time>
      </trkpt>
      <trkpt lat="43.93835" lon="1.90797">
        <ele>187.11</ele>
        <time>2014-10-18T09:42:06Z</time>
      </trkpt>
      <trkpt lat="43.93825" lon="1.90807">
        <ele>187.59</ele>
        <time>2014-10-18T09:42:16Z</time>
      </trkpt>
      <trkpt lat="43.93813" lon="1.90813">
        <ele>188.56</ele>
        <time>2014-10-18T09:42:27Z</time>
      </trkpt>
      <trkpt lat="43.938" lon="1.90823">
        <ele>190.48</ele>
        <time>2014-10-18T09:42:40Z</time>
      </trkpt>
      <trkpt lat="43.93794" lon="1.90832">
        <ele>191.92</ele>
        <time>2014-10-18T09:42:50Z</time>
      </trkpt>
      <trkpt lat="43.93789" lon="1.90845">
        <ele>192.88</ele>
        <time>2014-10-18T09:43:00Z</time>
      </trkpt>
      <trkpt lat="43.93783" lon="1.90862">
        <ele>195.28</ele>
        <time>2014-10-18T09:43:13Z</time>
      </trkpt>
      <trkpt lat="43.93775" lon="1.90873">
        <ele>197.21</ele>
        <time>2014-10-18T09:43:25Z</time>
      </trkpt>
      <trkpt lat="43.93769" lon="1.90889">
        <ele>198.17</ele>
        <time>2014-10-18T09:43:37Z</time>
      </trkpt>
      <trkpt lat="43.93756" lon="1.90906">
        <ele>199.13</ele>
        <time>2014-10-18T09:43:53Z</time>
      </trkpt>
      <trkpt lat="43.93748" lon="1.90919">
        <ele>199.13</ele>
        <time>2014-10-18T09:44:04Z</time>
      </trkpt>
      <trkpt lat="43.93741" lon="1.90936">
        <ele>198.65</ele>
        <time>2014-10-18T09:44:17Z</time>
      </trkpt>
      <trkpt lat="43.93733" lon="1.90953">
        <ele>197.69</ele>
        <time>2014-10-18T09:44:30Z</time>
      </trkpt>
      <trkpt lat="43.93727" lon="1.90964">
        <ele>196.73</ele>
        <time>2014-10-18T09:44:41Z</time>
      </trkpt>
      <trkpt lat="43.93723" lon="1.90974">
        <ele>196.73</ele>
        <time>2014-10-18T09:44:50Z</time>
      </trkpt>
      <trkpt lat="43.93716" lon="1.90985">
        <ele>195.77</ele>
        <time>2014-10-18T09:45:01Z</time>
      </trkpt>
      <trkpt lat="43.93715" lon="1.90986">
        <ele>195.77</ele>
        <time>2014-10-18T09:45:02Z</time>
      </trkpt>
      <trkpt lat="43.93704" lon="1.91003">
        <ele>194.8</ele>
        <time>2014-10-18T09:45:17Z</time>
      </trkpt>
      <trkpt lat="43.93693" lon="1.91014">
        <ele>193.84</ele>
        <time>2014-10-18T09:45:29Z</time>
      </trkpt>
      <trkpt lat="43.9368" lon="1.91026">
        <ele>193.36</ele>
        <time>2014-10-18T09:45:42Z</time>
      </trkpt>
      <trkpt lat="43.93671" lon="1.91034">
        <ele>192.88</ele>
        <time>2014-10-18T09:45:50Z</time>
      </trkpt>
      <trkpt lat="43.93659" lon="1.91046">
        <ele>190.96</ele>
        <time>2014-10-18T09:46:05Z</time>
      </trkpt>
      <trkpt lat="43.93647" lon="1.91061">
        <ele>189.52</ele>
        <time>2014-10-18T09:46:20Z</time>
      </trkpt>
      <trkpt lat="43.9364" lon="1.91062">
        <ele>189.52</ele>
        <time>2014-10-18T09:46:30Z</time>
      </trkpt>
      <trkpt lat="43.93639" lon="1.91066">
        <ele>189.52</ele>
        <time>2014-10-18T09:46:47Z</time>
      </trkpt>
      <trkpt lat="43.93637" lon="1.91068">
        <ele>189.52</ele>
        <time>2014-10-18T09:47:02Z</time>
      </trkpt>
      <trkpt lat="43.93638" lon="1.91067">
        <ele>189.52</ele>
        <time>2014-10-18T09:47:20Z</time>
      </trkpt>
      <trkpt lat="43.93637" lon="1.91068">
        <ele>189.52</ele>
        <time>2014-10-18T09:47:45Z</time>
      </trkpt>
      <trkpt lat="43.93636" lon="1.91075">
        <ele>189.52</ele>
        <time>2014-10-18T09:47:57Z</time>
      </trkpt>
      <trkpt lat="43.93636" lon="1.91076">
        <ele>189.04</ele>
        <time>2014-10-18T09:47:58Z</time>
      </trkpt>
      <trkpt lat="43.93634" lon="1.91079">
        <ele>189.04</ele>
        <time>2014-10-18T09:48:01Z</time>
      </trkpt>
      <trkpt lat="43.93625" lon="1.91096">
        <ele>188.08</ele>
        <time>2014-10-18T09:48:16Z</time>
      </trkpt>
      <trkpt lat="43.9362" lon="1.91113">
        <ele>186.63</ele>
        <time>2014-10-18T09:48:29Z</time>
      </trkpt>
      <trkpt lat="43.93618" lon="1.91132">
        <ele>185.67</ele>
        <time>2014-10-18T09:48:42Z</time>
      </trkpt>
      <trkpt lat="43.9362" lon="1.91147">
        <ele>183.75</ele>
        <time>2014-10-18T09:48:54Z</time>
      </trkpt>
      <trkpt lat="43.9362" lon="1.91166">
        <ele>182.79</ele>
        <time>2014-10-18T09:49:06Z</time>
      </trkpt>
      <trkpt lat="43.93622" lon="1.91187">
        <ele>181.83</ele>
        <time>2014-10-18T09:49:19Z</time>
      </trkpt>
      <trkpt lat="43.93624" lon="1.91199">
        <ele>180.87</ele>
        <time>2014-10-18T09:49:28Z</time>
      </trkpt>
      <trkpt lat="43.93627" lon="1.9122">
        <ele>179.9</ele>
        <time>2014-10-18T09:49:42Z</time>
      </trkpt>
      <trkpt lat="43.9363" lon="1.91235">
        <ele>178.94</ele>
        <time>2014-10-18T09:49:53Z</time>
      </trkpt>
      <trkpt lat="43.93633" lon="1.91254">
        <ele>177.5</ele>
        <time>2014-10-18T09:50:06Z</time>
      </trkpt>
      <trkpt lat="43.93635" lon="1.91273">
        <ele>176.06</ele>
        <time>2014-10-18T09:50:19Z</time>
      </trkpt>
      <trkpt lat="43.93636" lon="1.91288">
        <ele>175.1</ele>
        <time>2014-10-18T09:50:31Z</time>
      </trkpt>
      <trkpt lat="43.93638" lon="1.91307">
        <ele>173.17</ele>
        <time>2014-10-18T09:50:45Z</time>
      </trkpt>
      <trkpt lat="43.9364" lon="1.91323">
        <ele>171.73</ele>
        <time>2014-10-18T09:50:57Z</time>
      </trkpt>
      <trkpt lat="43.93644" lon="1.91342">
        <ele>170.77</ele>
        <time>2014-10-18T09:51:11Z</time>
      </trkpt>
      <trkpt lat="43.93648" lon="1.91352">
        <ele>170.29</ele>
        <time>2014-10-18T09:51:18Z</time>
      </trkpt>
      <trkpt lat="43.93657" lon="1.91375">
        <ele>168.37</ele>
        <time>2014-10-18T09:51:33Z</time>
      </trkpt>
      <trkpt lat="43.93663" lon="1.91395">
        <ele>167.41</ele>
        <time>2014-10-18T09:51:47Z</time>
      </trkpt>
      <trkpt lat="43.93671" lon="1.91412">
        <ele>166.93</ele>
        <time>2014-10-18T09:52:00Z</time>
      </trkpt>
      <trkpt lat="43.9368" lon="1.91427">
        <ele>166.93</ele>
        <time>2014-10-18T09:52:13Z</time>
      </trkpt>
      <trkpt lat="43.93689" lon="1.91447">
        <ele>166.93</ele>
        <time>2014-10-18T09:52:27Z</time>
      </trkpt>
      <trkpt lat="43.9369" lon="1.91464">
        <ele>166.93</ele>
        <time>2014-10-18T09:52:38Z</time>
      </trkpt>
      <trkpt lat="43.93692" lon="1.91478">
        <ele>167.41</ele>
        <time>2014-10-18T09:52:47Z</time>
      </trkpt>
      <trkpt lat="43.93691" lon="1.91485">
        <ele>167.41</ele>
        <time>2014-10-18T09:52:51Z</time>
      </trkpt>
      <trkpt lat="43.93685" lon="1.91505">
        <ele>167.89</ele>
        <time>2014-10-18T09:53:04Z</time>
      </trkpt>
      <trkpt lat="43.93679" lon="1.91515">
        <ele>167.89</ele>
        <time>2014-10-18T09:53:14Z</time>
      </trkpt>
      <trkpt lat="43.93675" lon="1.9152">
        <ele>167.89</ele>
        <time>2014-10-18T09:53:27Z</time>
      </trkpt>
      <trkpt lat="43.93671" lon="1.91526">
        <ele>167.89</ele>
        <time>2014-10-18T09:53:33Z</time>
      </trkpt>
      <trkpt lat="43.93654" lon="1.91536">
        <ele>167.89</ele>
        <time>2014-10-18T09:53:48Z</time>
      </trkpt>
      <trkpt lat="43.93642" lon="1.91547">
        <ele>167.89</ele>
        <time>2014-10-18T09:54:00Z</time>
      </trkpt>
      <trkpt lat="43.93633" lon="1.91565">
        <ele>167.89</ele>
        <time>2014-10-18T09:54:13Z</time>
      </trkpt>
      <trkpt lat="43.93627" lon="1.91586">
        <ele>167.89</ele>
        <time>2014-10-18T09:54:27Z</time>
      </trkpt>
      <trkpt lat="43.93622" lon="1.91603">
        <ele>167.41</ele>
        <time>2014-10-18T09:54:40Z</time>
      </trkpt>
      <trkpt lat="43.9362" lon="1.91606">
        <ele>167.41</ele>
        <time>2014-10-18T09:54:54Z</time>
      </trkpt>
      <trkpt lat="43.93616" lon="1.91617">
        <ele>167.41</ele>
        <time>2014-10-18T09:55:05Z</time>
      </trkpt>
      <trkpt lat="43.93615" lon="1.91624">
        <ele>167.41</ele>
        <time>2014-10-18T09:55:15Z</time>
      </trkpt>
      <trkpt lat="43.93609" lon="1.91636">
        <ele>167.41</ele>
        <time>2014-10-18T09:55:28Z</time>
      </trkpt>
      <trkpt lat="43.93605" lon="1.91653">
        <ele>167.41</ele>
        <time>2014-10-18T09:55:42Z</time>
      </trkpt>
      <trkpt lat="43.93606" lon="1.91662">
        <ele>167.89</ele>
        <time>2014-10-18T09:55:54Z</time>
      </trkpt>
      <trkpt lat="43.93613" lon="1.91673">
        <ele>169.33</ele>
        <time>2014-10-18T09:56:07Z</time>
      </trkpt>
      <trkpt lat="43.93614" lon="1.91674">
        <ele>169.33</ele>
        <time>2014-10-18T09:56:18Z</time>
      </trkpt>
      <trkpt lat="43.93612" lon="1.91666">
        <ele>168.85</ele>
        <time>2014-10-18T09:56:32Z</time>
      </trkpt>
      <trkpt lat="43.93608" lon="1.91664">
        <ele>168.37</ele>
        <time>2014-10-18T09:56:46Z</time>
      </trkpt>
      <trkpt lat="43.93601" lon="1.91653">
        <ele>167.89</ele>
        <time>2014-10-18T09:56:58Z</time>
      </trkpt>
      <trkpt lat="43.93596" lon="1.91642">
        <ele>166.93</ele>
        <time>2014-10-18T09:57:11Z</time>
      </trkpt>
      <trkpt lat="43.93592" lon="1.9163">
        <ele>166.45</ele>
        <time>2014-10-18T09:57:20Z</time>
      </trkpt>
      <trkpt lat="43.93581" lon="1.91612">
        <ele>166.93</ele>
        <time>2014-10-18T09:57:34Z</time>
      </trkpt>
      <trkpt lat="43.9357" lon="1.91605">
        <ele>166.93</ele>
        <time>2014-10-18T09:57:45Z</time>
      </trkpt>
      <trkpt lat="43.93569" lon="1.91605">
        <ele>166.93</ele>
        <time>2014-10-18T09:57:46Z</time>
      </trkpt>
      <trkpt lat="43.93551" lon="1.91601">
        <ele>166.93</ele>
        <time>2014-10-18T09:58:02Z</time>
      </trkpt>
      <trkpt lat="43.93538" lon="1.916">
        <ele>166.45</ele>
        <time>2014-10-18T09:58:14Z</time>
      </trkpt>
      <trkpt lat="43.93525" lon="1.91599">
        <ele>166.45</ele>
        <time>2014-10-18T09:58:26Z</time>
      </trkpt>
      <trkpt lat="43.9351" lon="1.91602">
        <ele>165.96</ele>
        <time>2014-10-18T09:58:41Z</time>
      </trkpt>
      <trkpt lat="43.93495" lon="1.91606">
        <ele>165.96</ele>
        <time>2014-10-18T09:58:55Z</time>
      </trkpt>
      <trkpt lat="43.93476" lon="1.91609">
        <ele>165.48</ele>
        <time>2014-10-18T09:59:09Z</time>
      </trkpt>
      <trkpt lat="43.9346" lon="1.91615">
        <ele>165.48</ele>
        <time>2014-10-18T09:59:26Z</time>
      </trkpt>
      <trkpt lat="43.93442" lon="1.91621">
        <ele>165</ele>
        <time>2014-10-18T09:59:41Z</time>
      </trkpt>
      <trkpt lat="43.93429" lon="1.91629">
        <ele>165</ele>
        <time>2014-10-18T09:59:52Z</time>
      </trkpt>
      <trkpt lat="43.93415" lon="1.91635">
        <ele>164.52</ele>
        <time>2014-10-18T10:00:05Z</time>
      </trkpt>
      <trkpt lat="43.93403" lon="1.91644">
        <ele>165</ele>
        <time>2014-10-18T10:00:17Z</time>
      </trkpt>
      <trkpt lat="43.93392" lon="1.91652">
        <ele>165</ele>
        <time>2014-10-18T10:00:28Z</time>
      </trkpt>
      <trkpt lat="43.93382" lon="1.91662">
        <ele>164.52</ele>
        <time>2014-10-18T10:00:39Z</time>
      </trkpt>
      <trkpt lat="43.93375" lon="1.91673">
        <ele>164.52</ele>
        <time>2014-10-18T10:00:52Z</time>
      </trkpt>
      <trkpt lat="43.93376" lon="1.91687">
        <ele>164.52</ele>
        <time>2014-10-18T10:01:04Z</time>
      </trkpt>
      <trkpt lat="43.93378" lon="1.91698">
        <ele>165</ele>
        <time>2014-10-18T10:01:17Z</time>
      </trkpt>
      <trkpt lat="43.93376" lon="1.91706">
        <ele>165</ele>
        <time>2014-10-18T10:01:33Z</time>
      </trkpt>
      <trkpt lat="43.93377" lon="1.91715">
        <ele>165.48</ele>
        <time>2014-10-18T10:01:44Z</time>
      </trkpt>
      <trkpt lat="43.93378" lon="1.91716">
        <ele>165.96</ele>
        <time>2014-10-18T10:01:46Z</time>
      </trkpt>
      <trkpt lat="43.93393" lon="1.91726">
        <ele>165.48</ele>
        <time>2014-10-18T10:02:01Z</time>
      </trkpt>
      <trkpt lat="43.93405" lon="1.91739">
        <ele>165.48</ele>
        <time>2014-10-18T10:02:14Z</time>
      </trkpt>
      <trkpt lat="43.93407" lon="1.91742">
        <ele>165.48</ele>
        <time>2014-10-18T10:02:25Z</time>
      </trkpt>
      <trkpt lat="43.93406" lon="1.91743">
        <ele>165.48</ele>
        <time>2014-10-18T10:02:42Z</time>
      </trkpt>
      <trkpt lat="43.93409" lon="1.91747">
        <ele>165.48</ele>
        <time>2014-10-18T10:02:59Z</time>
      </trkpt>
      <trkpt lat="43.93409" lon="1.91748">
        <ele>165.48</ele>
        <time>2014-10-18T10:03:21Z</time>
      </trkpt>
      <trkpt lat="43.93408" lon="1.91749">
        <ele>165.48</ele>
        <time>2014-10-18T10:03:42Z</time>
      </trkpt>
      <trkpt lat="43.93408" lon="1.91749">
        <ele>165.48</ele>
        <time>2014-10-18T10:04:03Z</time>
      </trkpt>
      <trkpt lat="43.93409" lon="1.91747">
        <ele>165.48</ele>
        <time>2014-10-18T10:04:22Z</time>
      </trkpt>
      <trkpt lat="43.93411" lon="1.91753">
        <ele>165.48</ele>
        <time>2014-10-18T10:04:36Z</time>
      </trkpt>
      <trkpt lat="43.93418" lon="1.91767">
        <ele>165.48</ele>
        <time>2014-10-18T10:04:49Z</time>
      </trkpt>
      <trkpt lat="43.9343" lon="1.91789">
        <ele>164.52</ele>
        <time>2014-10-18T10:05:10Z</time>
      </trkpt>
      <trkpt lat="43.93442" lon="1.91787">
        <ele>165</ele>
        <time>2014-10-18T10:05:28Z</time>
      </trkpt>
      <trkpt lat="43.93444" lon="1.91785">
        <ele>165.48</ele>
        <time>2014-10-18T10:05:30Z</time>
      </trkpt>
      <trkpt lat="43.93464" lon="1.91778">
        <ele>165.48</ele>
        <time>2014-10-18T10:05:49Z</time>
      </trkpt>
      <trkpt lat="43.93472" lon="1.91773">
        <ele>165.96</ele>
        <time>2014-10-18T10:05:58Z</time>
      </trkpt>
      <trkpt lat="43.93494" lon="1.91758">
        <ele>166.93</ele>
        <time>2014-10-18T10:06:19Z</time>
      </trkpt>
      <trkpt lat="43.93506" lon="1.9177">
        <ele>167.41</ele>
        <time>2014-10-18T10:06:38Z</time>
      </trkpt>
      <trkpt lat="43.93516" lon="1.91784">
        <ele>167.41</ele>
        <time>2014-10-18T10:06:52Z</time>
      </trkpt>
      <trkpt lat="43.93531" lon="1.918">
        <ele>167.89</ele>
        <time>2014-10-18T10:07:11Z</time>
      </trkpt>
      <trkpt lat="43.93542" lon="1.91816">
        <ele>167.41</ele>
        <time>2014-10-18T10:07:31Z</time>
      </trkpt>
      <trkpt lat="43.93556" lon="1.91838">
        <ele>168.37</ele>
        <time>2014-10-18T10:07:51Z</time>
      </trkpt>
      <trkpt lat="43.93568" lon="1.91864">
        <ele>168.37</ele>
        <time>2014-10-18T10:08:11Z</time>
      </trkpt>
      <trkpt lat="43.93581" lon="1.91883">
        <ele>168.85</ele>
        <time>2014-10-18T10:08:30Z</time>
      </trkpt>
      <trkpt lat="43.93586" lon="1.91914">
        <ele>170.29</ele>
        <time>2014-10-18T10:08:51Z</time>
      </trkpt>
      <trkpt lat="43.93589" lon="1.91927">
        <ele>169.81</ele>
        <time>2014-10-18T10:09:00Z</time>
      </trkpt>
      <trkpt lat="43.93604" lon="1.91944">
        <ele>170.77</ele>
        <time>2014-10-18T10:09:19Z</time>
      </trkpt>
      <trkpt lat="43.93617" lon="1.91966">
        <ele>170.77</ele>
        <time>2014-10-18T10:09:36Z</time>
      </trkpt>
      <trkpt lat="43.93634" lon="1.91971">
        <ele>171.73</ele>
        <time>2014-10-18T10:09:55Z</time>
      </trkpt>
      <trkpt lat="43.9365" lon="1.91966">
        <ele>172.69</ele>
        <time>2014-10-18T10:10:18Z</time>
      </trkpt>
      <trkpt lat="43.93663" lon="1.91978">
        <ele>173.17</ele>
        <time>2014-10-18T10:10:33Z</time>
      </trkpt>
      <trkpt lat="43.93687" lon="1.91987">
        <ele>174.14</ele>
        <time>2014-10-18T10:10:58Z</time>
      </trkpt>
      <trkpt lat="43.93704" lon="1.91994">
        <ele>174.14</ele>
        <time>2014-10-18T10:11:17Z</time>
      </trkpt>
      <trkpt lat="43.93726" lon="1.92003">
        <ele>175.1</ele>
        <time>2014-10-18T10:11:37Z</time>
      </trkpt>
      <trkpt lat="43.93751" lon="1.92004">
        <ele>177.02</ele>
        <time>2014-10-18T10:12:01Z</time>
      </trkpt>
      <trkpt lat="43.93775" lon="1.92">
        <ele>177.5</ele>
        <time>2014-10-18T10:12:23Z</time>
      </trkpt>
      <trkpt lat="43.93798" lon="1.9199">
        <ele>179.42</ele>
        <time>2014-10-18T10:12:47Z</time>
      </trkpt>
      <trkpt lat="43.9382" lon="1.91984">
        <ele>180.87</ele>
        <time>2014-10-18T10:13:07Z</time>
      </trkpt>
      <trkpt lat="43.93839" lon="1.91975">
        <ele>181.35</ele>
        <time>2014-10-18T10:13:29Z</time>
      </trkpt>
      <trkpt lat="43.93862" lon="1.91971">
        <ele>181.83</ele>
        <time>2014-10-18T10:13:49Z</time>
      </trkpt>
      <trkpt lat="43.93884" lon="1.91964">
        <ele>183.27</ele>
        <time>2014-10-18T10:14:10Z</time>
      </trkpt>
      <trkpt lat="43.9391" lon="1.91959">
        <ele>184.23</ele>
        <time>2014-10-18T10:14:32Z</time>
      </trkpt>
      <trkpt lat="43.9393" lon="1.91951">
        <ele>185.19</ele>
        <time>2014-10-18T10:14:55Z</time>
      </trkpt>
      <trkpt lat="43.93956" lon="1.91949">
        <ele>184.71</ele>
        <time>2014-10-18T10:15:17Z</time>
      </trkpt>
      <trkpt lat="43.93958" lon="1.9195">
        <ele>185.67</ele>
        <time>2014-10-18T10:15:19Z</time>
      </trkpt>
      <trkpt lat="43.9398" lon="1.91946">
        <ele>185.67</ele>
        <time>2014-10-18T10:15:41Z</time>
      </trkpt>
      <trkpt lat="43.94001" lon="1.91951">
        <ele>186.15</ele>
        <time>2014-10-18T10:16:00Z</time>
      </trkpt>
      <trkpt lat="43.94007" lon="1.91952">
        <ele>186.15</ele>
        <time>2014-10-18T10:16:17Z</time>
      </trkpt>
      <trkpt lat="43.94005" lon="1.91968">
        <ele>186.15</ele>
        <time>2014-10-18T10:16:37Z</time>
      </trkpt>
      <trkpt lat="43.94015" lon="1.91999">
        <ele>186.63</ele>
        <time>2014-10-18T10:16:58Z</time>
      </trkpt>
      <trkpt lat="43.94022" lon="1.92019">
        <ele>187.59</ele>
        <time>2014-10-18T10:17:18Z</time>
      </trkpt>
      <trkpt lat="43.94023" lon="1.9202">
        <ele>188.08</ele>
        <time>2014-10-18T10:17:19Z</time>
      </trkpt>
      <trkpt lat="43.94038" lon="1.92041">
        <ele>188.56</ele>
        <time>2014-10-18T10:17:37Z</time>
      </trkpt>
      <trkpt lat="43.9404" lon="1.92045">
        <ele>189.04</ele>
        <time>2014-10-18T10:17:40Z</time>
      </trkpt>
      <trkpt lat="43.94054" lon="1.9207">
        <ele>190</ele>
        <time>2014-10-18T10:17:59Z</time>
      </trkpt>
      <trkpt lat="43.94067" lon="1.92083">
        <ele>192.88</ele>
        <time>2014-10-18T10:18:18Z</time>
      </trkpt>
      <trkpt lat="43.9408" lon="1.92102">
        <ele>193.84</ele>
        <time>2014-10-18T10:18:37Z</time>
      </trkpt>
      <trkpt lat="43.94094" lon="1.92112">
        <ele>196.25</ele>
        <time>2014-10-18T10:18:54Z</time>
      </trkpt>
      <trkpt lat="43.94105" lon="1.92122">
        <ele>199.61</ele>
        <time>2014-10-18T10:19:07Z</time>
      </trkpt>
      <trkpt lat="43.94119" lon="1.92135">
        <ele>201.53</ele>
        <time>2014-10-18T10:19:26Z</time>
      </trkpt>
      <trkpt lat="43.94129" lon="1.92147">
        <ele>204.42</ele>
        <time>2014-10-18T10:19:38Z</time>
      </trkpt>
      <trkpt lat="43.94143" lon="1.92158">
        <ele>207.78</ele>
        <time>2014-10-18T10:19:55Z</time>
      </trkpt>
      <trkpt lat="43.94159" lon="1.92168">
        <ele>210.19</ele>
        <time>2014-10-18T10:20:10Z</time>
      </trkpt>
      <trkpt lat="43.94176" lon="1.92172">
        <ele>213.55</ele>
        <time>2014-10-18T10:20:27Z</time>
      </trkpt>
      <trkpt lat="43.94187" lon="1.92172">
        <ele>214.99</ele>
        <time>2014-10-18T10:20:42Z</time>
      </trkpt>
      <trkpt lat="43.94211" lon="1.92188">
        <ele>219.32</ele>
        <time>2014-10-18T10:21:04Z</time>
      </trkpt>
      <trkpt lat="43.94228" lon="1.92195">
        <ele>221.24</ele>
        <time>2014-10-18T10:21:23Z</time>
      </trkpt>
      <trkpt lat="43.94247" lon="1.92197">
        <ele>223.16</ele>
        <time>2014-10-18T10:21:42Z</time>
      </trkpt>
      <trkpt lat="43.94261" lon="1.9221">
        <ele>226.53</ele>
        <time>2014-10-18T10:21:58Z</time>
      </trkpt>
      <trkpt lat="43.94266" lon="1.92234">
        <ele>227.97</ele>
        <time>2014-10-18T10:22:16Z</time>
      </trkpt>
      <trkpt lat="43.94266" lon="1.92241">
        <ele>228.93</ele>
        <time>2014-10-18T10:22:32Z</time>
      </trkpt>
      <trkpt lat="43.94265" lon="1.9224">
        <ele>228.45</ele>
        <time>2014-10-18T10:22:52Z</time>
      </trkpt>
      <trkpt lat="43.94271" lon="1.92246">
        <ele>228.45</ele>
        <time>2014-10-18T10:23:07Z</time>
      </trkpt>
      <trkpt lat="43.94267" lon="1.9224">
        <ele>228.45</ele>
        <time>2014-10-18T10:23:21Z</time>
      </trkpt>
      <trkpt lat="43.94261" lon="1.92245">
        <ele>227.97</ele>
        <time>2014-10-18T10:23:40Z</time>
      </trkpt>
      <trkpt lat="43.94261" lon="1.92242">
        <ele>227.97</ele>
        <time>2014-10-18T10:24:01Z</time>
      </trkpt>
      <trkpt lat="43.94265" lon="1.9224">
        <ele>227.97</ele>
        <time>2014-10-18T10:24:23Z</time>
      </trkpt>
      <trkpt lat="43.94258" lon="1.92235">
        <ele>227.97</ele>
        <time>2014-10-18T10:24:46Z</time>
      </trkpt>
      <trkpt lat="43.94262" lon="1.92236">
        <ele>227.49</ele>
        <time>2014-10-18T10:25:09Z</time>
      </trkpt>
      <trkpt lat="43.94263" lon="1.92237">
        <ele>227.97</ele>
        <time>2014-10-18T10:25:28Z</time>
      </trkpt>
      <trkpt lat="43.94268" lon="1.92237">
        <ele>227.49</ele>
        <time>2014-10-18T10:25:46Z</time>
      </trkpt>
      <trkpt lat="43.94267" lon="1.92235">
        <ele>227.49</ele>
        <time>2014-10-18T10:26:10Z</time>
      </trkpt>
      <trkpt lat="43.94271" lon="1.92244">
        <ele>227.49</ele>
        <time>2014-10-18T10:26:32Z</time>
      </trkpt>
      <trkpt lat="43.94269" lon="1.92239">
        <ele>227.97</ele>
        <time>2014-10-18T10:26:52Z</time>
      </trkpt>
      <trkpt lat="43.94269" lon="1.92242">
        <ele>227.49</ele>
        <time>2014-10-18T10:27:11Z</time>
      </trkpt>
      <trkpt lat="43.9427" lon="1.92255">
        <ele>227.97</ele>
        <time>2014-10-18T10:27:25Z</time>
      </trkpt>
      <trkpt lat="43.94271" lon="1.9226">
        <ele>227.97</ele>
        <time>2014-10-18T10:27:30Z</time>
      </trkpt>
      <trkpt lat="43.94278" lon="1.9228">
        <ele>227.01</ele>
        <time>2014-10-18T10:27:44Z</time>
      </trkpt>
      <trkpt lat="43.94286" lon="1.92296">
        <ele>226.53</ele>
        <time>2014-10-18T10:27:58Z</time>
      </trkpt>
      <trkpt lat="43.94294" lon="1.92311">
        <ele>227.01</ele>
        <time>2014-10-18T10:28:11Z</time>
      </trkpt>
      <trkpt lat="43.94303" lon="1.92325">
        <ele>227.49</ele>
        <time>2014-10-18T10:28:24Z</time>
      </trkpt>
      <trkpt lat="43.94312" lon="1.92341">
        <ele>228.45</ele>
        <time>2014-10-18T10:28:37Z</time>
      </trkpt>
      <trkpt lat="43.94322" lon="1.92355">
        <ele>228.45</ele>
        <time>2014-10-18T10:28:50Z</time>
      </trkpt>
      <trkpt lat="43.94332" lon="1.92365">
        <ele>227.97</ele>
        <time>2014-10-18T10:29:01Z</time>
      </trkpt>
      <trkpt lat="43.94342" lon="1.92375">
        <ele>227.97</ele>
        <time>2014-10-18T10:29:13Z</time>
      </trkpt>
      <trkpt lat="43.94355" lon="1.92387">
        <ele>227.97</ele>
        <time>2014-10-18T10:29:26Z</time>
      </trkpt>
      <trkpt lat="43.94365" lon="1.92396">
        <ele>227.49</ele>
        <time>2014-10-18T10:29:39Z</time>
      </trkpt>
      <trkpt lat="43.94382" lon="1.924">
        <ele>227.01</ele>
        <time>2014-10-18T10:29:54Z</time>
      </trkpt>
      <trkpt lat="43.94395" lon="1.92406">
        <ele>227.49</ele>
        <time>2014-10-18T10:30:07Z</time>
      </trkpt>
      <trkpt lat="43.9441" lon="1.92415">
        <ele>227.97</ele>
        <time>2014-10-18T10:30:21Z</time>
      </trkpt>
      <trkpt lat="43.94422" lon="1.92422">
        <ele>227.97</ele>
        <time>2014-10-18T10:30:33Z</time>
      </trkpt>
      <trkpt lat="43.94435" lon="1.92431">
        <ele>228.93</ele>
        <time>2014-10-18T10:30:46Z</time>
      </trkpt>
      <trkpt lat="43.94447" lon="1.9244">
        <ele>229.89</ele>
        <time>2014-10-18T10:30:59Z</time>
      </trkpt>
      <trkpt lat="43.94457" lon="1.92452">
        <ele>230.37</ele>
        <time>2014-10-18T10:31:12Z</time>
      </trkpt>
      <trkpt lat="43.94461" lon="1.92454">
        <ele>230.37</ele>
        <time>2014-10-18T10:31:27Z</time>
      </trkpt>
      <trkpt lat="43.9447" lon="1.92463">
        <ele>231.33</ele>
        <time>2014-10-18T10:31:39Z</time>
      </trkpt>
      <trkpt lat="43.94481" lon="1.92477">
        <ele>231.81</ele>
        <time>2014-10-18T10:31:55Z</time>
      </trkpt>
      <trkpt lat="43.94492" lon="1.92488">
        <ele>232.3</ele>
        <time>2014-10-18T10:32:09Z</time>
      </trkpt>
      <trkpt lat="43.94494" lon="1.9249">
        <ele>232.3</ele>
        <time>2014-10-18T10:32:11Z</time>
      </trkpt>
      <trkpt lat="43.94507" lon="1.92503">
        <ele>232.78</ele>
        <time>2014-10-18T10:32:25Z</time>
      </trkpt>
      <trkpt lat="43.94518" lon="1.92514">
        <ele>233.26</ele>
        <time>2014-10-18T10:32:38Z</time>
      </trkpt>
      <trkpt lat="43.9453" lon="1.92523">
        <ele>234.22</ele>
        <time>2014-10-18T10:32:50Z</time>
      </trkpt>
      <trkpt lat="43.94541" lon="1.92534">
        <ele>234.22</ele>
        <time>2014-10-18T10:33:03Z</time>
      </trkpt>
      <trkpt lat="43.94555" lon="1.92546">
        <ele>234.7</ele>
        <time>2014-10-18T10:33:18Z</time>
      </trkpt>
      <trkpt lat="43.94564" lon="1.92554">
        <ele>234.7</ele>
        <time>2014-10-18T10:33:28Z</time>
      </trkpt>
      <trkpt lat="43.94578" lon="1.92563">
        <ele>233.26</ele>
        <time>2014-10-18T10:33:44Z</time>
      </trkpt>
      <trkpt lat="43.94589" lon="1.92572">
        <ele>231.81</ele>
        <time>2014-10-18T10:33:59Z</time>
      </trkpt>
      <trkpt lat="43.94596" lon="1.92577">
        <ele>230.85</ele>
        <time>2014-10-18T10:34:07Z</time>
      </trkpt>
      <trkpt lat="43.94607" lon="1.92586">
        <ele>229.89</ele>
        <time>2014-10-18T10:34:20Z</time>
      </trkpt>
      <trkpt lat="43.9461" lon="1.92592">
        <ele>229.41</ele>
        <time>2014-10-18T10:34:33Z</time>
      </trkpt>
      <trkpt lat="43.94612" lon="1.92595">
        <ele>229.41</ele>
        <time>2014-10-18T10:34:47Z</time>
      </trkpt>
      <trkpt lat="43.94611" lon="1.92594">
        <ele>229.41</ele>
        <time>2014-10-18T10:35:04Z</time>
      </trkpt>
      <trkpt lat="43.94612" lon="1.92596">
        <ele>229.41</ele>
        <time>2014-10-18T10:35:22Z</time>
      </trkpt>
      <trkpt lat="43.94609" lon="1.9259">
        <ele>229.89</ele>
        <time>2014-10-18T10:35:46Z</time>
      </trkpt>
      <trkpt lat="43.94606" lon="1.92585">
        <ele>229.89</ele>
        <time>2014-10-18T10:36:00Z</time>
      </trkpt>
      <trkpt lat="43.94595" lon="1.92573">
        <ele>231.33</ele>
        <time>2014-10-18T10:36:13Z</time>
      </trkpt>
      <trkpt lat="43.94584" lon="1.92564">
        <ele>232.78</ele>
        <time>2014-10-18T10:36:25Z</time>
      </trkpt>
      <trkpt lat="43.94571" lon="1.92555">
        <ele>233.74</ele>
        <time>2014-10-18T10:36:38Z</time>
      </trkpt>
      <trkpt lat="43.94562" lon="1.9255">
        <ele>235.18</ele>
        <time>2014-10-18T10:36:51Z</time>
      </trkpt>
      <trkpt lat="43.94558" lon="1.92543">
        <ele>235.66</ele>
        <time>2014-10-18T10:37:04Z</time>
      </trkpt>
      <trkpt lat="43.94557" lon="1.92543">
        <ele>235.66</ele>
        <time>2014-10-18T10:37:17Z</time>
      </trkpt>
      <trkpt lat="43.94555" lon="1.92545">
        <ele>235.18</ele>
        <time>2014-10-18T10:37:28Z</time>
      </trkpt>
      <trkpt lat="43.94556" lon="1.92548">
        <ele>235.18</ele>
        <time>2014-10-18T10:37:39Z</time>
      </trkpt>
      <trkpt lat="43.94557" lon="1.92552">
        <ele>235.18</ele>
        <time>2014-10-18T10:37:52Z</time>
      </trkpt>
      <trkpt lat="43.94557" lon="1.92553">
        <ele>235.66</ele>
        <time>2014-10-18T10:38:14Z</time>
      </trkpt>
      <trkpt lat="43.94558" lon="1.92549">
        <ele>235.18</ele>
        <time>2014-10-18T10:38:34Z</time>
      </trkpt>
      <trkpt lat="43.94557" lon="1.92548">
        <ele>235.18</ele>
        <time>2014-10-18T10:38:50Z</time>
      </trkpt>
      <trkpt lat="43.94556" lon="1.92548">
        <ele>235.66</ele>
        <time>2014-10-18T10:39:09Z</time>
      </trkpt>
      <trkpt lat="43.94557" lon="1.92549">
        <ele>234.7</ele>
        <time>2014-10-18T10:39:20Z</time>
      </trkpt>
      <trkpt lat="43.94558" lon="1.92548">
        <ele>234.7</ele>
        <time>2014-10-18T10:39:39Z</time>
      </trkpt>
      <trkpt lat="43.94558" lon="1.92548">
        <ele>234.7</ele>
        <time>2014-10-18T10:39:54Z</time>
      </trkpt>
      <trkpt lat="43.94558" lon="1.92549">
        <ele>234.7</ele>
        <time>2014-10-18T10:40:14Z</time>
      </trkpt>
      <trkpt lat="43.94558" lon="1.92549">
        <ele>234.7</ele>
        <time>2014-10-18T10:40:37Z</time>
      </trkpt>
      <trkpt lat="43.94556" lon="1.92549">
        <ele>234.7</ele>
        <time>2014-10-18T10:41:00Z</time>
      </trkpt>
      <trkpt lat="43.94558" lon="1.9255">
        <ele>234.7</ele>
        <time>2014-10-18T10:41:24Z</time>
      </trkpt>
      <trkpt lat="43.94558" lon="1.92553">
        <ele>234.7</ele>
        <time>2014-10-18T10:41:47Z</time>
      </trkpt>
      <trkpt lat="43.9456" lon="1.92552">
        <ele>234.7</ele>
        <time>2014-10-18T10:42:11Z</time>
      </trkpt>
      <trkpt lat="43.94558" lon="1.92554">
        <ele>235.18</ele>
        <time>2014-10-18T10:42:37Z</time>
      </trkpt>
      <trkpt lat="43.94559" lon="1.92555">
        <ele>235.18</ele>
        <time>2014-10-18T10:43:03Z</time>
      </trkpt>
      <trkpt lat="43.94559" lon="1.92559">
        <ele>235.18</ele>
        <time>2014-10-18T10:43:29Z</time>
      </trkpt>
      <trkpt lat="43.94562" lon="1.92559">
        <ele>235.66</ele>
        <time>2014-10-18T10:43:52Z</time>
      </trkpt>
      <trkpt lat="43.9456" lon="1.92557">
        <ele>235.66</ele>
        <time>2014-10-18T10:44:21Z</time>
      </trkpt>
      <trkpt lat="43.94561" lon="1.92556">
        <ele>235.66</ele>
        <time>2014-10-18T10:44:46Z</time>
      </trkpt>
      <trkpt lat="43.9456" lon="1.92557">
        <ele>236.14</ele>
        <time>2014-10-18T10:45:08Z</time>
      </trkpt>
      <trkpt lat="43.94561" lon="1.92558">
        <ele>236.14</ele>
        <time>2014-10-18T10:45:29Z</time>
      </trkpt>
      <trkpt lat="43.94558" lon="1.92559">
        <ele>236.62</ele>
        <time>2014-10-18T10:45:54Z</time>
      </trkpt>
      <trkpt lat="43.94558" lon="1.92557">
        <ele>236.62</ele>
        <time>2014-10-18T10:46:19Z</time>
      </trkpt>
      <trkpt lat="43.94559" lon="1.92556">
        <ele>237.1</ele>
        <time>2014-10-18T10:46:39Z</time>
      </trkpt>
      <trkpt lat="43.94561" lon="1.92548">
        <ele>237.1</ele>
        <time>2014-10-18T10:46:52Z</time>
      </trkpt>
      <trkpt lat="43.94559" lon="1.92549">
        <ele>237.1</ele>
        <time>2014-10-18T10:47:05Z</time>
      </trkpt>
      <trkpt lat="43.94555" lon="1.92547">
        <ele>237.1</ele>
        <time>2014-10-18T10:47:22Z</time>
      </trkpt>
      <trkpt lat="43.94555" lon="1.92546">
        <ele>237.1</ele>
        <time>2014-10-18T10:47:45Z</time>
      </trkpt>
      <trkpt lat="43.94557" lon="1.92549">
        <ele>237.58</ele>
        <time>2014-10-18T10:48:06Z</time>
      </trkpt>
      <trkpt lat="43.94558" lon="1.92549">
        <ele>237.1</ele>
        <time>2014-10-18T10:48:26Z</time>
      </trkpt>
      <trkpt lat="43.94557" lon="1.92548">
        <ele>237.58</ele>
        <time>2014-10-18T10:48:51Z</time>
      </trkpt>
      <trkpt lat="43.94555" lon="1.92549">
        <ele>237.58</ele>
        <time>2014-10-18T10:49:20Z</time>
      </trkpt>
      <trkpt lat="43.94556" lon="1.9255">
        <ele>238.06</ele>
        <time>2014-10-18T10:49:44Z</time>
      </trkpt>
      <trkpt lat="43.94557" lon="1.92554">
        <ele>237.58</ele>
        <time>2014-10-18T10:50:04Z</time>
      </trkpt>
      <trkpt lat="43.94559" lon="1.92548">
        <ele>238.06</ele>
        <time>2014-10-18T10:50:27Z</time>
      </trkpt>
      <trkpt lat="43.94556" lon="1.92554">
        <ele>238.54</ele>
        <time>2014-10-18T10:50:50Z</time>
      </trkpt>
      <trkpt lat="43.94559" lon="1.92554">
        <ele>238.06</ele>
        <time>2014-10-18T10:51:21Z</time>
      </trkpt>
      <trkpt lat="43.94558" lon="1.92553">
        <ele>238.54</ele>
        <time>2014-10-18T10:51:48Z</time>
      </trkpt>
      <trkpt lat="43.94557" lon="1.92554">
        <ele>238.06</ele>
        <time>2014-10-18T10:52:15Z</time>
      </trkpt>
      <trkpt lat="43.94561" lon="1.92553">
        <ele>238.54</ele>
        <time>2014-10-18T10:52:43Z</time>
      </trkpt>
      <trkpt lat="43.94561" lon="1.92553">
        <ele>238.54</ele>
        <time>2014-10-18T10:53:10Z</time>
      </trkpt>
      <trkpt lat="43.9456" lon="1.92555">
        <ele>239.02</ele>
        <time>2014-10-18T10:53:34Z</time>
      </trkpt>
      <trkpt lat="43.94562" lon="1.92556">
        <ele>239.02</ele>
        <time>2014-10-18T10:54:00Z</time>
      </trkpt>
      <trkpt lat="43.9456" lon="1.92556">
        <ele>239.02</ele>
        <time>2014-10-18T10:54:30Z</time>
      </trkpt>
      <trkpt lat="43.94559" lon="1.92549">
        <ele>239.02</ele>
        <time>2014-10-18T10:54:48Z</time>
      </trkpt>
      <trkpt lat="43.94558" lon="1.92549">
        <ele>239.02</ele>
        <time>2014-10-18T10:55:12Z</time>
      </trkpt>
      <trkpt lat="43.94556" lon="1.92552">
        <ele>239.02</ele>
        <time>2014-10-18T10:55:27Z</time>
      </trkpt>
      <trkpt lat="43.94558" lon="1.92551">
        <ele>239.02</ele>
        <time>2014-10-18T10:55:49Z</time>
      </trkpt>
      <trkpt lat="43.94555" lon="1.9255">
        <ele>239.02</ele>
        <time>2014-10-18T10:56:12Z</time>
      </trkpt>
      <trkpt lat="43.9456" lon="1.92546">
        <ele>238.54</ele>
        <time>2014-10-18T10:56:36Z</time>
      </trkpt>
      <trkpt lat="43.94558" lon="1.92546">
        <ele>239.02</ele>
        <time>2014-10-18T10:57:08Z</time>
      </trkpt>
      <trkpt lat="43.94555" lon="1.92548">
        <ele>239.02</ele>
        <time>2014-10-18T10:57:29Z</time>
      </trkpt>
      <trkpt lat="43.94556" lon="1.92546">
        <ele>239.02</ele>
        <time>2014-10-18T10:57:56Z</time>
      </trkpt>
      <trkpt lat="43.94557" lon="1.92552">
        <ele>238.54</ele>
        <time>2014-10-18T10:58:21Z</time>
      </trkpt>
      <trkpt lat="43.94556" lon="1.92552">
        <ele>238.54</ele>
        <time>2014-10-18T10:58:45Z</time>
      </trkpt>
      <trkpt lat="43.94555" lon="1.92551">
        <ele>238.54</ele>
        <time>2014-10-18T10:59:12Z</time>
      </trkpt>
      <trkpt lat="43.94557" lon="1.9255">
        <ele>238.54</ele>
        <time>2014-10-18T10:59:35Z</time>
      </trkpt>
      <trkpt lat="43.94555" lon="1.9255">
        <ele>238.54</ele>
        <time>2014-10-18T10:59:59Z</time>
      </trkpt>
      <trkpt lat="43.94555" lon="1.92551">
        <ele>238.54</ele>
        <time>2014-10-18T11:00:16Z</time>
      </trkpt>
      <trkpt lat="43.94556" lon="1.92551">
        <ele>238.54</ele>
        <time>2014-10-18T11:00:34Z</time>
      </trkpt>
      <trkpt lat="43.94559" lon="1.9255">
        <ele>238.06</ele>
        <time>2014-10-18T11:00:55Z</time>
      </trkpt>
      <trkpt lat="43.94556" lon="1.9255">
        <ele>238.54</ele>
        <time>2014-10-18T11:01:11Z</time>
      </trkpt>
      <trkpt lat="43.94556" lon="1.92547">
        <ele>238.06</ele>
        <time>2014-10-18T11:01:37Z</time>
      </trkpt>
      <trkpt lat="43.94559" lon="1.92548">
        <ele>238.06</ele>
        <time>2014-10-18T11:02:06Z</time>
      </trkpt>
      <trkpt lat="43.94546" lon="1.92541">
        <ele>238.54</ele>
        <time>2014-10-18T11:02:33Z</time>
      </trkpt>
      <trkpt lat="43.94552" lon="1.92544">
        <ele>238.06</ele>
        <time>2014-10-18T11:03:02Z</time>
      </trkpt>
      <trkpt lat="43.94552" lon="1.92544">
        <ele>238.54</ele>
        <time>2014-10-18T11:03:27Z</time>
      </trkpt>
      <trkpt lat="43.94552" lon="1.92545">
        <ele>238.54</ele>
        <time>2014-10-18T11:03:53Z</time>
      </trkpt>
      <trkpt lat="43.94555" lon="1.92547">
        <ele>238.54</ele>
        <time>2014-10-18T11:04:17Z</time>
      </trkpt>
      <trkpt lat="43.94556" lon="1.92553">
        <ele>238.54</ele>
        <time>2014-10-18T11:04:33Z</time>
      </trkpt>
      <trkpt lat="43.94555" lon="1.92555">
        <ele>238.54</ele>
        <time>2014-10-18T11:04:52Z</time>
      </trkpt>
      <trkpt lat="43.94556" lon="1.92553">
        <ele>238.54</ele>
        <time>2014-10-18T11:05:13Z</time>
      </trkpt>
      <trkpt lat="43.94557" lon="1.92552">
        <ele>239.02</ele>
        <time>2014-10-18T11:05:43Z</time>
      </trkpt>
      <trkpt lat="43.94557" lon="1.92551">
        <ele>239.02</ele>
        <time>2014-10-18T11:06:09Z</time>
      </trkpt>
      <trkpt lat="43.94556" lon="1.92552">
        <ele>239.02</ele>
        <time>2014-10-18T11:06:28Z</time>
      </trkpt>
      <trkpt lat="43.94554" lon="1.92553">
        <ele>239.02</ele>
        <time>2014-10-18T11:06:53Z</time>
      </trkpt>
      <trkpt lat="43.94554" lon="1.92552">
        <ele>239.02</ele>
        <time>2014-10-18T11:07:19Z</time>
      </trkpt>
      <trkpt lat="43.94552" lon="1.92554">
        <ele>239.02</ele>
        <time>2014-10-18T11:07:48Z</time>
      </trkpt>
      <trkpt lat="43.94555" lon="1.92551">
        <ele>239.51</ele>
        <time>2014-10-18T11:08:08Z</time>
      </trkpt>
      <trkpt lat="43.94556" lon="1.92552">
        <ele>239.02</ele>
        <time>2014-10-18T11:08:29Z</time>
      </trkpt>
      <trkpt lat="43.94555" lon="1.92552">
        <ele>239.02</ele>
        <time>2014-10-18T11:08:56Z</time>
      </trkpt>
      <trkpt lat="43.94555" lon="1.9255">
        <ele>239.51</ele>
        <time>2014-10-18T11:09:17Z</time>
      </trkpt>
      <trkpt lat="43.94554" lon="1.9255">
        <ele>239.02</ele>
        <time>2014-10-18T11:09:41Z</time>
      </trkpt>
      <trkpt lat="43.94554" lon="1.92548">
        <ele>239.51</ele>
        <time>2014-10-18T11:09:54Z</time>
      </trkpt>
      <trkpt lat="43.94556" lon="1.92551">
        <ele>239.51</ele>
        <time>2014-10-18T11:10:13Z</time>
      </trkpt>
      <trkpt lat="43.94558" lon="1.92551">
        <ele>239.51</ele>
        <time>2014-10-18T11:10:31Z</time>
      </trkpt>
      <trkpt lat="43.94556" lon="1.92551">
        <ele>239.51</ele>
        <time>2014-10-18T11:10:51Z</time>
      </trkpt>
      <trkpt lat="43.94557" lon="1.92551">
        <ele>239.51</ele>
        <time>2014-10-18T11:11:09Z</time>
      </trkpt>
      <trkpt lat="43.94557" lon="1.92552">
        <ele>239.51</ele>
        <time>2014-10-18T11:11:27Z</time>
      </trkpt>
      <trkpt lat="43.94557" lon="1.92551">
        <ele>239.51</ele>
        <time>2014-10-18T11:11:49Z</time>
      </trkpt>
      <trkpt lat="43.94556" lon="1.92551">
        <ele>239.51</ele>
        <time>2014-10-18T11:12:08Z</time>
      </trkpt>
      <trkpt lat="43.94556" lon="1.92552">
        <ele>239.51</ele>
        <time>2014-10-18T11:12:27Z</time>
      </trkpt>
      <trkpt lat="43.94554" lon="1.92551">
        <ele>239.99</ele>
        <time>2014-10-18T11:12:47Z</time>
      </trkpt>
      <trkpt lat="43.94555" lon="1.92551">
        <ele>239.99</ele>
        <time>2014-10-18T11:13:04Z</time>
      </trkpt>
      <trkpt lat="43.94556" lon="1.9255">
        <ele>239.99</ele>
        <time>2014-10-18T11:13:29Z</time>
      </trkpt>
      <trkpt lat="43.94555" lon="1.92554">
        <ele>239.99</ele>
        <time>2014-10-18T11:13:52Z</time>
      </trkpt>
      <trkpt lat="43.94556" lon="1.92551">
        <ele>239.99</ele>
        <time>2014-10-18T11:14:08Z</time>
      </trkpt>
      <trkpt lat="43.94554" lon="1.92549">
        <ele>239.99</ele>
        <time>2014-10-18T11:14:27Z</time>
      </trkpt>
      <trkpt lat="43.94554" lon="1.92549">
        <ele>240.47</ele>
        <time>2014-10-18T11:14:50Z</time>
      </trkpt>
      <trkpt lat="43.94555" lon="1.9255">
        <ele>240.47</ele>
        <time>2014-10-18T11:15:08Z</time>
      </trkpt>
      <trkpt lat="43.94557" lon="1.92553">
        <ele>239.99</ele>
        <time>2014-10-18T11:15:34Z</time>
      </trkpt>
      <trkpt lat="43.94558" lon="1.9255">
        <ele>239.99</ele>
        <time>2014-10-18T11:16:04Z</time>
      </trkpt>
      <trkpt lat="43.94559" lon="1.92551">
        <ele>239.99</ele>
        <time>2014-10-18T11:16:27Z</time>
      </trkpt>
      <trkpt lat="43.94558" lon="1.9255">
        <ele>239.99</ele>
        <time>2014-10-18T11:16:54Z</time>
      </trkpt>
      <trkpt lat="43.94557" lon="1.92551">
        <ele>239.99</ele>
        <time>2014-10-18T11:17:21Z</time>
      </trkpt>
      <trkpt lat="43.94555" lon="1.92551">
        <ele>239.51</ele>
        <time>2014-10-18T11:17:44Z</time>
      </trkpt>
      <trkpt lat="43.94555" lon="1.92552">
        <ele>239.51</ele>
        <time>2014-10-18T11:18:12Z</time>
      </trkpt>
      <trkpt lat="43.94556" lon="1.9255">
        <ele>239.99</ele>
        <time>2014-10-18T11:18:37Z</time>
      </trkpt>
      <trkpt lat="43.94557" lon="1.92548">
        <ele>239.99</ele>
        <time>2014-10-18T11:18:54Z</time>
      </trkpt>
      <trkpt lat="43.94555" lon="1.92547">
        <ele>239.99</ele>
        <time>2014-10-18T11:19:10Z</time>
      </trkpt>
      <trkpt lat="43.94555" lon="1.9255">
        <ele>239.99</ele>
        <time>2014-10-18T11:19:30Z</time>
      </trkpt>
      <trkpt lat="43.94555" lon="1.92547">
        <ele>239.99</ele>
        <time>2014-10-18T11:19:51Z</time>
      </trkpt>
      <trkpt lat="43.94555" lon="1.92548">
        <ele>239.99</ele>
        <time>2014-10-18T11:20:12Z</time>
      </trkpt>
      <trkpt lat="43.94556" lon="1.92544">
        <ele>239.99</ele>
        <time>2014-10-18T11:20:27Z</time>
      </trkpt>
      <trkpt lat="43.94556" lon="1.92545">
        <ele>240.47</ele>
        <time>2014-10-18T11:20:35Z</time>
      </trkpt>
      <trkpt lat="43.94557" lon="1.92549">
        <ele>239.99</ele>
        <time>2014-10-18T11:20:47Z</time>
      </trkpt>
      <trkpt lat="43.9456" lon="1.92554">
        <ele>239.99</ele>
        <time>2014-10-18T11:21:07Z</time>
      </trkpt>
      <trkpt lat="43.94561" lon="1.92555">
        <ele>239.99</ele>
        <time>2014-10-18T11:21:19Z</time>
      </trkpt>
      <trkpt lat="43.94564" lon="1.92556">
        <ele>239.51</ele>
        <time>2014-10-18T11:21:32Z</time>
      </trkpt>
      <trkpt lat="43.94565" lon="1.92559">
        <ele>239.51</ele>
        <time>2014-10-18T11:21:50Z</time>
      </trkpt>
      <trkpt lat="43.94566" lon="1.9256">
        <ele>239.02</ele>
        <time>2014-10-18T11:22:02Z</time>
      </trkpt>
      <trkpt lat="43.94566" lon="1.92561">
        <ele>239.02</ele>
        <time>2014-10-18T11:22:17Z</time>
      </trkpt>
      <trkpt lat="43.94569" lon="1.92558">
        <ele>238.54</ele>
        <time>2014-10-18T11:22:28Z</time>
      </trkpt>
      <trkpt lat="43.94567" lon="1.92553">
        <ele>239.02</ele>
        <time>2014-10-18T11:22:43Z</time>
      </trkpt>
      <trkpt lat="43.94567" lon="1.92551">
        <ele>239.02</ele>
        <time>2014-10-18T11:23:08Z</time>
      </trkpt>
      <trkpt lat="43.94568" lon="1.92555">
        <ele>239.02</ele>
        <time>2014-10-18T11:23:21Z</time>
      </trkpt>
      <trkpt lat="43.94571" lon="1.92557">
        <ele>239.02</ele>
        <time>2014-10-18T11:23:41Z</time>
      </trkpt>
      <trkpt lat="43.9457" lon="1.92556">
        <ele>239.51</ele>
        <time>2014-10-18T11:23:53Z</time>
      </trkpt>
      <trkpt lat="43.94565" lon="1.92558">
        <ele>239.02</ele>
        <time>2014-10-18T11:24:08Z</time>
      </trkpt>
      <trkpt lat="43.94563" lon="1.92551">
        <ele>238.54</ele>
        <time>2014-10-18T11:24:18Z</time>
      </trkpt>
      <trkpt lat="43.9456" lon="1.92547">
        <ele>239.51</ele>
        <time>2014-10-18T11:24:32Z</time>
      </trkpt>
      <trkpt lat="43.94558" lon="1.92549">
        <ele>239.51</ele>
        <time>2014-10-18T11:24:46Z</time>
      </trkpt>
      <trkpt lat="43.94558" lon="1.92551">
        <ele>239.51</ele>
        <time>2014-10-18T11:25:00Z</time>
      </trkpt>
      <trkpt lat="43.94557" lon="1.92548">
        <ele>239.99</ele>
        <time>2014-10-18T11:25:18Z</time>
      </trkpt>
      <trkpt lat="43.94557" lon="1.92547">
        <ele>239.99</ele>
        <time>2014-10-18T11:25:36Z</time>
      </trkpt>
      <trkpt lat="43.94556" lon="1.92546">
        <ele>239.99</ele>
        <time>2014-10-18T11:26:02Z</time>
      </trkpt>
      <trkpt lat="43.94556" lon="1.92549">
        <ele>239.99</ele>
        <time>2014-10-18T11:26:16Z</time>
      </trkpt>
      <trkpt lat="43.94556" lon="1.92552">
        <ele>239.99</ele>
        <time>2014-10-18T11:26:42Z</time>
      </trkpt>
      <trkpt lat="43.94557" lon="1.92549">
        <ele>239.99</ele>
        <time>2014-10-18T11:27:12Z</time>
      </trkpt>
      <trkpt lat="43.94557" lon="1.9255">
        <ele>239.99</ele>
        <time>2014-10-18T11:27:34Z</time>
      </trkpt>
      <trkpt lat="43.94556" lon="1.9255">
        <ele>239.99</ele>
        <time>2014-10-18T11:27:53Z</time>
      </trkpt>
      <trkpt lat="43.94557" lon="1.9255">
        <ele>239.99</ele>
        <time>2014-10-18T11:28:13Z</time>
      </trkpt>
      <trkpt lat="43.94557" lon="1.9255">
        <ele>239.99</ele>
        <time>2014-10-18T11:28:28Z</time>
      </trkpt>
      <trkpt lat="43.94557" lon="1.9255">
        <ele>239.99</ele>
        <time>2014-10-18T11:28:45Z</time>
      </trkpt>
      <trkpt lat="43.94559" lon="1.92553">
        <ele>239.99</ele>
        <time>2014-10-18T11:28:57Z</time>
      </trkpt>
      <trkpt lat="43.94563" lon="1.92557">
        <ele>239.51</ele>
        <time>2014-10-18T11:29:09Z</time>
      </trkpt>
      <trkpt lat="43.94568" lon="1.9256">
        <ele>239.51</ele>
        <time>2014-10-18T11:29:24Z</time>
      </trkpt>
      <trkpt lat="43.94576" lon="1.92567">
        <ele>238.54</ele>
        <time>2014-10-18T11:29:38Z</time>
      </trkpt>
      <trkpt lat="43.94585" lon="1.92572">
        <ele>237.1</ele>
        <time>2014-10-18T11:29:51Z</time>
      </trkpt>
      <trkpt lat="43.94592" lon="1.92576">
        <ele>236.62</ele>
        <time>2014-10-18T11:30:01Z</time>
      </trkpt>
      <trkpt lat="43.94601" lon="1.92583">
        <ele>235.18</ele>
        <time>2014-10-18T11:30:13Z</time>
      </trkpt>
      <trkpt lat="43.94613" lon="1.92591">
        <ele>234.22</ele>
        <time>2014-10-18T11:30:27Z</time>
      </trkpt>
      <trkpt lat="43.94618" lon="1.92586">
        <ele>234.22</ele>
        <time>2014-10-18T11:30:38Z</time>
      </trkpt>
      <trkpt lat="43.94623" lon="1.92584">
        <ele>233.74</ele>
        <time>2014-10-18T11:30:43Z</time>
      </trkpt>
      <trkpt lat="43.94636" lon="1.92575">
        <ele>232.78</ele>
        <time>2014-10-18T11:30:56Z</time>
      </trkpt>
      <trkpt lat="43.94643" lon="1.9257">
        <ele>231.33</ele>
        <time>2014-10-18T11:31:09Z</time>
      </trkpt>
      <trkpt lat="43.94647" lon="1.9257">
        <ele>230.85</ele>
        <time>2014-10-18T11:31:15Z</time>
      </trkpt>
      <trkpt lat="43.94656" lon="1.92577">
        <ele>228.45</ele>
        <time>2014-10-18T11:31:30Z</time>
      </trkpt>
      <trkpt lat="43.94663" lon="1.92582">
        <ele>227.01</ele>
        <time>2014-10-18T11:31:43Z</time>
      </trkpt>
      <trkpt lat="43.94675" lon="1.92574">
        <ele>226.53</ele>
        <time>2014-10-18T11:31:56Z</time>
      </trkpt>
      <trkpt lat="43.94681" lon="1.92571">
        <ele>226.05</ele>
        <time>2014-10-18T11:32:09Z</time>
      </trkpt>
      <trkpt lat="43.94691" lon="1.92574">
        <ele>225.09</ele>
        <time>2014-10-18T11:32:23Z</time>
      </trkpt>
      <trkpt lat="43.94698" lon="1.92576">
        <ele>223.64</ele>
        <time>2014-10-18T11:32:34Z</time>
      </trkpt>
      <trkpt lat="43.94706" lon="1.92581">
        <ele>222.2</ele>
        <time>2014-10-18T11:32:45Z</time>
      </trkpt>
      <trkpt lat="43.94716" lon="1.92587">
        <ele>220.28</ele>
        <time>2014-10-18T11:32:58Z</time>
      </trkpt>
      <trkpt lat="43.94726" lon="1.92591">
        <ele>217.88</ele>
        <time>2014-10-18T11:33:12Z</time>
      </trkpt>
      <trkpt lat="43.94735" lon="1.92597">
        <ele>216.43</ele>
        <time>2014-10-18T11:33:25Z</time>
      </trkpt>
      <trkpt lat="43.94745" lon="1.92602">
        <ele>214.99</ele>
        <time>2014-10-18T11:33:39Z</time>
      </trkpt>
      <trkpt lat="43.94755" lon="1.92608">
        <ele>213.55</ele>
        <time>2014-10-18T11:33:52Z</time>
      </trkpt>
      <trkpt lat="43.94763" lon="1.92612">
        <ele>212.11</ele>
        <time>2014-10-18T11:34:04Z</time>
      </trkpt>
      <trkpt lat="43.9477" lon="1.92617">
        <ele>210.19</ele>
        <time>2014-10-18T11:34:17Z</time>
      </trkpt>
      <trkpt lat="43.94776" lon="1.92622">
        <ele>209.22</ele>
        <time>2014-10-18T11:34:26Z</time>
      </trkpt>
      <trkpt lat="43.94784" lon="1.92631">
        <ele>208.26</ele>
        <time>2014-10-18T11:34:37Z</time>
      </trkpt>
      <trkpt lat="43.9479" lon="1.9264">
        <ele>206.82</ele>
        <time>2014-10-18T11:34:49Z</time>
      </trkpt>
      <trkpt lat="43.94796" lon="1.92649">
        <ele>205.86</ele>
        <time>2014-10-18T11:35:00Z</time>
      </trkpt>
      <trkpt lat="43.94801" lon="1.92658">
        <ele>204.9</ele>
        <time>2014-10-18T11:35:13Z</time>
      </trkpt>
      <trkpt lat="43.94807" lon="1.9267">
        <ele>203.94</ele>
        <time>2014-10-18T11:35:27Z</time>
      </trkpt>
      <trkpt lat="43.94814" lon="1.9268">
        <ele>202.98</ele>
        <time>2014-10-18T11:35:40Z</time>
      </trkpt>
      <trkpt lat="43.9482" lon="1.92692">
        <ele>202.49</ele>
        <time>2014-10-18T11:35:54Z</time>
      </trkpt>
      <trkpt lat="43.94829" lon="1.92703">
        <ele>202.01</ele>
        <time>2014-10-18T11:36:06Z</time>
      </trkpt>
      <trkpt lat="43.94836" lon="1.92712">
        <ele>201.05</ele>
        <time>2014-10-18T11:36:18Z</time>
      </trkpt>
      <trkpt lat="43.94845" lon="1.92724">
        <ele>200.57</ele>
        <time>2014-10-18T11:36:31Z</time>
      </trkpt>
      <trkpt lat="43.94853" lon="1.92733">
        <ele>199.61</ele>
        <time>2014-10-18T11:36:44Z</time>
      </trkpt>
      <trkpt lat="43.94861" lon="1.92745">
        <ele>199.61</ele>
        <time>2014-10-18T11:36:56Z</time>
      </trkpt>
      <trkpt lat="43.94869" lon="1.92758">
        <ele>198.65</ele>
        <time>2014-10-18T11:37:09Z</time>
      </trkpt>
      <trkpt lat="43.94878" lon="1.92772">
        <ele>198.17</ele>
        <time>2014-10-18T11:37:23Z</time>
      </trkpt>
      <trkpt lat="43.94887" lon="1.92784">
        <ele>198.17</ele>
        <time>2014-10-18T11:37:37Z</time>
      </trkpt>
      <trkpt lat="43.9489" lon="1.92785">
        <ele>198.17</ele>
        <time>2014-10-18T11:37:41Z</time>
      </trkpt>
      <trkpt lat="43.94902" lon="1.92779">
        <ele>198.17</ele>
        <time>2014-10-18T11:37:53Z</time>
      </trkpt>
      <trkpt lat="43.94905" lon="1.92778">
        <ele>198.65</ele>
        <time>2014-10-18T11:37:56Z</time>
      </trkpt>
      <trkpt lat="43.94916" lon="1.92779">
        <ele>199.61</ele>
        <time>2014-10-18T11:38:08Z</time>
      </trkpt>
      <trkpt lat="43.94917" lon="1.92779">
        <ele>200.09</ele>
        <time>2014-10-18T11:38:10Z</time>
      </trkpt>
      <trkpt lat="43.94928" lon="1.92788">
        <ele>200.57</ele>
        <time>2014-10-18T11:38:25Z</time>
      </trkpt>
      <trkpt lat="43.94937" lon="1.92796">
        <ele>201.53</ele>
        <time>2014-10-18T11:38:38Z</time>
      </trkpt>
      <trkpt lat="43.94946" lon="1.92802">
        <ele>202.98</ele>
        <time>2014-10-18T11:38:50Z</time>
      </trkpt>
      <trkpt lat="43.94957" lon="1.92808">
        <ele>203.94</ele>
        <time>2014-10-18T11:39:04Z</time>
      </trkpt>
      <trkpt lat="43.94968" lon="1.9281">
        <ele>204.9</ele>
        <time>2014-10-18T11:39:16Z</time>
      </trkpt>
      <trkpt lat="43.9498" lon="1.92807">
        <ele>205.86</ele>
        <time>2014-10-18T11:39:29Z</time>
      </trkpt>
      <trkpt lat="43.94984" lon="1.92804">
        <ele>206.34</ele>
        <time>2014-10-18T11:39:34Z</time>
      </trkpt>
      <trkpt lat="43.94995" lon="1.92799">
        <ele>207.78</ele>
        <time>2014-10-18T11:39:47Z</time>
      </trkpt>
      <trkpt lat="43.95006" lon="1.92791">
        <ele>209.22</ele>
        <time>2014-10-18T11:40:01Z</time>
      </trkpt>
      <trkpt lat="43.95008" lon="1.92791">
        <ele>209.22</ele>
        <time>2014-10-18T11:40:03Z</time>
      </trkpt>
      <trkpt lat="43.95021" lon="1.92785">
        <ele>209.7</ele>
        <time>2014-10-18T11:40:17Z</time>
      </trkpt>
      <trkpt lat="43.95021" lon="1.92784">
        <ele>210.67</ele>
        <time>2014-10-18T11:40:18Z</time>
      </trkpt>
      <trkpt lat="43.95031" lon="1.92768">
        <ele>211.15</ele>
        <time>2014-10-18T11:40:31Z</time>
      </trkpt>
      <trkpt lat="43.95043" lon="1.92755">
        <ele>211.63</ele>
        <time>2014-10-18T11:40:46Z</time>
      </trkpt>
      <trkpt lat="43.95051" lon="1.92744">
        <ele>212.11</ele>
        <time>2014-10-18T11:40:57Z</time>
      </trkpt>
      <trkpt lat="43.9506" lon="1.92737">
        <ele>212.59</ele>
        <time>2014-10-18T11:41:10Z</time>
      </trkpt>
      <trkpt lat="43.95064" lon="1.9274">
        <ele>212.11</ele>
        <time>2014-10-18T11:41:21Z</time>
      </trkpt>
      <trkpt lat="43.95062" lon="1.92741">
        <ele>212.11</ele>
        <time>2014-10-18T11:41:34Z</time>
      </trkpt>
      <trkpt lat="43.95062" lon="1.92745">
        <ele>212.11</ele>
        <time>2014-10-18T11:41:41Z</time>
      </trkpt>
      <trkpt lat="43.95066" lon="1.92763">
        <ele>210.67</ele>
        <time>2014-10-18T11:41:54Z</time>
      </trkpt>
      <trkpt lat="43.9507" lon="1.92778">
        <ele>209.22</ele>
        <time>2014-10-18T11:42:06Z</time>
      </trkpt>
      <trkpt lat="43.95076" lon="1.92795">
        <ele>208.26</ele>
        <time>2014-10-18T11:42:19Z</time>
      </trkpt>
      <trkpt lat="43.95083" lon="1.92812">
        <ele>206.34</ele>
        <time>2014-10-18T11:42:33Z</time>
      </trkpt>
      <trkpt lat="43.95086" lon="1.92827">
        <ele>204.9</ele>
        <time>2014-10-18T11:42:45Z</time>
      </trkpt>
      <trkpt lat="43.95092" lon="1.92842">
        <ele>203.46</ele>
        <time>2014-10-18T11:42:59Z</time>
      </trkpt>
      <trkpt lat="43.951" lon="1.92865">
        <ele>201.53</ele>
        <time>2014-10-18T11:43:16Z</time>
      </trkpt>
      <trkpt lat="43.95106" lon="1.92883">
        <ele>200.09</ele>
        <time>2014-10-18T11:43:30Z</time>
      </trkpt>
      <trkpt lat="43.95111" lon="1.92904">
        <ele>198.65</ele>
        <time>2014-10-18T11:43:45Z</time>
      </trkpt>
      <trkpt lat="43.95118" lon="1.92926">
        <ele>197.21</ele>
        <time>2014-10-18T11:44:00Z</time>
      </trkpt>
      <trkpt lat="43.95125" lon="1.92946">
        <ele>195.77</ele>
        <time>2014-10-18T11:44:15Z</time>
      </trkpt>
      <trkpt lat="43.95129" lon="1.9296">
        <ele>194.8</ele>
        <time>2014-10-18T11:44:25Z</time>
      </trkpt>
      <trkpt lat="43.95136" lon="1.92981">
        <ele>193.36</ele>
        <time>2014-10-18T11:44:40Z</time>
      </trkpt>
      <trkpt lat="43.95141" lon="1.92998">
        <ele>191.44</ele>
        <time>2014-10-18T11:44:53Z</time>
      </trkpt>
      <trkpt lat="43.95145" lon="1.93013">
        <ele>190.48</ele>
        <time>2014-10-18T11:45:05Z</time>
      </trkpt>
      <trkpt lat="43.95151" lon="1.93031">
        <ele>189.04</ele>
        <time>2014-10-18T11:45:18Z</time>
      </trkpt>
      <trkpt lat="43.95157" lon="1.93049">
        <ele>188.08</ele>
        <time>2014-10-18T11:45:32Z</time>
      </trkpt>
      <trkpt lat="43.95162" lon="1.93065">
        <ele>186.63</ele>
        <time>2014-10-18T11:45:44Z</time>
      </trkpt>
      <trkpt lat="43.95165" lon="1.93072">
        <ele>186.63</ele>
        <time>2014-10-18T11:45:49Z</time>
      </trkpt>
      <trkpt lat="43.95172" lon="1.93089">
        <ele>185.19</ele>
        <time>2014-10-18T11:46:03Z</time>
      </trkpt>
      <trkpt lat="43.95183" lon="1.93098">
        <ele>183.75</ele>
        <time>2014-10-18T11:46:15Z</time>
      </trkpt>
      <trkpt lat="43.95197" lon="1.93107">
        <ele>183.27</ele>
        <time>2014-10-18T11:46:30Z</time>
      </trkpt>
      <trkpt lat="43.9521" lon="1.93118">
        <ele>182.79</ele>
        <time>2014-10-18T11:46:44Z</time>
      </trkpt>
      <trkpt lat="43.95223" lon="1.9313">
        <ele>182.31</ele>
        <time>2014-10-18T11:46:58Z</time>
      </trkpt>
      <trkpt lat="43.95224" lon="1.93131">
        <ele>181.83</ele>
        <time>2014-10-18T11:47:00Z</time>
      </trkpt>
      <trkpt lat="43.95239" lon="1.93145">
        <ele>182.31</ele>
        <time>2014-10-18T11:47:16Z</time>
      </trkpt>
      <trkpt lat="43.95253" lon="1.93158">
        <ele>182.31</ele>
        <time>2014-10-18T11:47:32Z</time>
      </trkpt>
      <trkpt lat="43.95261" lon="1.93165">
        <ele>182.31</ele>
        <time>2014-10-18T11:47:44Z</time>
      </trkpt>
      <trkpt lat="43.9527" lon="1.93178">
        <ele>182.31</ele>
        <time>2014-10-18T11:47:57Z</time>
      </trkpt>
      <trkpt lat="43.95284" lon="1.93193">
        <ele>182.79</ele>
        <time>2014-10-18T11:48:12Z</time>
      </trkpt>
      <trkpt lat="43.95294" lon="1.93202">
        <ele>183.27</ele>
        <time>2014-10-18T11:48:24Z</time>
      </trkpt>
      <trkpt lat="43.95304" lon="1.93217">
        <ele>183.27</ele>
        <time>2014-10-18T11:48:37Z</time>
      </trkpt>
      <trkpt lat="43.95316" lon="1.93229">
        <ele>184.23</ele>
        <time>2014-10-18T11:48:51Z</time>
      </trkpt>
      <trkpt lat="43.95328" lon="1.93238">
        <ele>185.19</ele>
        <time>2014-10-18T11:49:03Z</time>
      </trkpt>
      <trkpt lat="43.95344" lon="1.93242">
        <ele>186.63</ele>
        <time>2014-10-18T11:49:19Z</time>
      </trkpt>
      <trkpt lat="43.95357" lon="1.93245">
        <ele>187.59</ele>
        <time>2014-10-18T11:49:33Z</time>
      </trkpt>
      <trkpt lat="43.95369" lon="1.93248">
        <ele>190</ele>
        <time>2014-10-18T11:49:46Z</time>
      </trkpt>
      <trkpt lat="43.95383" lon="1.93252">
        <ele>191.44</ele>
        <time>2014-10-18T11:50:00Z</time>
      </trkpt>
      <trkpt lat="43.95398" lon="1.93256">
        <ele>193.36</ele>
        <time>2014-10-18T11:50:16Z</time>
      </trkpt>
      <trkpt lat="43.95411" lon="1.93259">
        <ele>195.28</ele>
        <time>2014-10-18T11:50:30Z</time>
      </trkpt>
      <trkpt lat="43.95425" lon="1.93266">
        <ele>196.25</ele>
        <time>2014-10-18T11:50:45Z</time>
      </trkpt>
      <trkpt lat="43.95436" lon="1.93268">
        <ele>198.17</ele>
        <time>2014-10-18T11:50:57Z</time>
      </trkpt>
      <trkpt lat="43.95447" lon="1.93271">
        <ele>199.13</ele>
        <time>2014-10-18T11:51:09Z</time>
      </trkpt>
      <trkpt lat="43.9546" lon="1.93277">
        <ele>200.09</ele>
        <time>2014-10-18T11:51:21Z</time>
      </trkpt>
      <trkpt lat="43.95475" lon="1.93284">
        <ele>201.53</ele>
        <time>2014-10-18T11:51:36Z</time>
      </trkpt>
      <trkpt lat="43.95485" lon="1.93293">
        <ele>202.49</ele>
        <time>2014-10-18T11:51:47Z</time>
      </trkpt>
      <trkpt lat="43.95496" lon="1.93302">
        <ele>203.94</ele>
        <time>2014-10-18T11:51:59Z</time>
      </trkpt>
      <trkpt lat="43.95508" lon="1.93313">
        <ele>204.9</ele>
        <time>2014-10-18T11:52:14Z</time>
      </trkpt>
      <trkpt lat="43.9552" lon="1.93325">
        <ele>205.86</ele>
        <time>2014-10-18T11:52:28Z</time>
      </trkpt>
      <trkpt lat="43.95534" lon="1.93338">
        <ele>207.3</ele>
        <time>2014-10-18T11:52:44Z</time>
      </trkpt>
      <trkpt lat="43.95549" lon="1.93349">
        <ele>208.26</ele>
        <time>2014-10-18T11:52:59Z</time>
      </trkpt>
      <trkpt lat="43.95562" lon="1.93359">
        <ele>209.22</ele>
        <time>2014-10-18T11:53:13Z</time>
      </trkpt>
      <trkpt lat="43.95574" lon="1.93365">
        <ele>210.19</ele>
        <time>2014-10-18T11:53:25Z</time>
      </trkpt>
      <trkpt lat="43.95589" lon="1.93372">
        <ele>211.15</ele>
        <time>2014-10-18T11:53:39Z</time>
      </trkpt>
      <trkpt lat="43.95604" lon="1.93378">
        <ele>212.11</ele>
        <time>2014-10-18T11:53:53Z</time>
      </trkpt>
      <trkpt lat="43.95622" lon="1.9338">
        <ele>212.59</ele>
        <time>2014-10-18T11:54:09Z</time>
      </trkpt>
      <trkpt lat="43.95638" lon="1.93377">
        <ele>213.55</ele>
        <time>2014-10-18T11:54:24Z</time>
      </trkpt>
      <trkpt lat="43.95652" lon="1.93371">
        <ele>214.51</ele>
        <time>2014-10-18T11:54:37Z</time>
      </trkpt>
      <trkpt lat="43.95664" lon="1.93361">
        <ele>215.95</ele>
        <time>2014-10-18T11:54:51Z</time>
      </trkpt>
      <trkpt lat="43.95671" lon="1.9335">
        <ele>216.91</ele>
        <time>2014-10-18T11:55:01Z</time>
      </trkpt>
      <trkpt lat="43.9568" lon="1.93341">
        <ele>218.84</ele>
        <time>2014-10-18T11:55:13Z</time>
      </trkpt>
      <trkpt lat="43.9569" lon="1.93339">
        <ele>220.28</ele>
        <time>2014-10-18T11:55:24Z</time>
      </trkpt>
      <trkpt lat="43.95692" lon="1.9334">
        <ele>218.84</ele>
        <time>2014-10-18T11:55:37Z</time>
      </trkpt>
      <trkpt lat="43.95695" lon="1.93341">
        <ele>219.8</ele>
        <time>2014-10-18T11:55:42Z</time>
      </trkpt>
      <trkpt lat="43.95704" lon="1.93359">
        <ele>221.24</ele>
        <time>2014-10-18T11:55:57Z</time>
      </trkpt>
      <trkpt lat="43.95704" lon="1.93378">
        <ele>222.2</ele>
        <time>2014-10-18T11:56:11Z</time>
      </trkpt>
      <trkpt lat="43.95703" lon="1.93395">
        <ele>223.16</ele>
        <time>2014-10-18T11:56:23Z</time>
      </trkpt>
      <trkpt lat="43.95707" lon="1.93399">
        <ele>224.12</ele>
        <time>2014-10-18T11:56:29Z</time>
      </trkpt>
      <trkpt lat="43.95708" lon="1.93397">
        <ele>224.61</ele>
        <time>2014-10-18T11:56:31Z</time>
      </trkpt>
      <trkpt lat="43.95715" lon="1.93381">
        <ele>225.09</ele>
        <time>2014-10-18T11:56:43Z</time>
      </trkpt>
      <trkpt lat="43.95718" lon="1.93367">
        <ele>225.57</ele>
        <time>2014-10-18T11:56:55Z</time>
      </trkpt>
      <trkpt lat="43.9572" lon="1.93349">
        <ele>225.57</ele>
        <time>2014-10-18T11:57:08Z</time>
      </trkpt>
      <trkpt lat="43.95718" lon="1.93329">
        <ele>226.53</ele>
        <time>2014-10-18T11:57:21Z</time>
      </trkpt>
      <trkpt lat="43.95718" lon="1.93321">
        <ele>227.49</ele>
        <time>2014-10-18T11:57:28Z</time>
      </trkpt>
      <trkpt lat="43.95714" lon="1.93304">
        <ele>227.49</ele>
        <time>2014-10-18T11:57:42Z</time>
      </trkpt>
      <trkpt lat="43.95711" lon="1.93292">
        <ele>227.97</ele>
        <time>2014-10-18T11:57:50Z</time>
      </trkpt>
      <trkpt lat="43.95708" lon="1.93276">
        <ele>228.45</ele>
        <time>2014-10-18T11:58:03Z</time>
      </trkpt>
      <trkpt lat="43.95707" lon="1.93259">
        <ele>229.41</ele>
        <time>2014-10-18T11:58:16Z</time>
      </trkpt>
      <trkpt lat="43.95707" lon="1.93255">
        <ele>229.41</ele>
        <time>2014-10-18T11:58:19Z</time>
      </trkpt>
      <trkpt lat="43.95709" lon="1.93238">
        <ele>230.37</ele>
        <time>2014-10-18T11:58:32Z</time>
      </trkpt>
      <trkpt lat="43.95712" lon="1.93223">
        <ele>230.37</ele>
        <time>2014-10-18T11:58:44Z</time>
      </trkpt>
      <trkpt lat="43.95714" lon="1.93206">
        <ele>230.85</ele>
        <time>2014-10-18T11:58:57Z</time>
      </trkpt>
      <trkpt lat="43.95718" lon="1.93191">
        <ele>230.85</ele>
        <time>2014-10-18T11:59:11Z</time>
      </trkpt>
      <trkpt lat="43.95717" lon="1.93182">
        <ele>230.85</ele>
        <time>2014-10-18T11:59:23Z</time>
      </trkpt>
      <trkpt lat="43.95713" lon="1.9318">
        <ele>230.85</ele>
        <time>2014-10-18T11:59:41Z</time>
      </trkpt>
      <trkpt lat="43.95718" lon="1.93182">
        <ele>230.85</ele>
        <time>2014-10-18T11:59:55Z</time>
      </trkpt>
      <trkpt lat="43.9572" lon="1.93175">
        <ele>230.85</ele>
        <time>2014-10-18T12:00:06Z</time>
      </trkpt>
      <trkpt lat="43.95719" lon="1.93176">
        <ele>229.89</ele>
        <time>2014-10-18T12:00:21Z</time>
      </trkpt>
      <trkpt lat="43.95716" lon="1.93178">
        <ele>230.85</ele>
        <time>2014-10-18T12:00:43Z</time>
      </trkpt>
      <trkpt lat="43.95715" lon="1.93179">
        <ele>230.37</ele>
        <time>2014-10-18T12:01:06Z</time>
      </trkpt>
      <trkpt lat="43.95719" lon="1.93181">
        <ele>230.85</ele>
        <time>2014-10-18T12:01:25Z</time>
      </trkpt>
      <trkpt lat="43.95721" lon="1.93176">
        <ele>230.37</ele>
        <time>2014-10-18T12:01:42Z</time>
      </trkpt>
      <trkpt lat="43.95722" lon="1.93176">
        <ele>230.37</ele>
        <time>2014-10-18T12:01:57Z</time>
      </trkpt>
      <trkpt lat="43.95725" lon="1.93176">
        <ele>230.37</ele>
        <time>2014-10-18T12:02:20Z</time>
      </trkpt>
      <trkpt lat="43.95718" lon="1.93179">
        <ele>230.85</ele>
        <time>2014-10-18T12:02:40Z</time>
      </trkpt>
      <trkpt lat="43.95715" lon="1.93181">
        <ele>230.37</ele>
        <time>2014-10-18T12:03:05Z</time>
      </trkpt>
      <trkpt lat="43.95714" lon="1.93184">
        <ele>230.85</ele>
        <time>2014-10-18T12:03:29Z</time>
      </trkpt>
      <trkpt lat="43.95713" lon="1.93185">
        <ele>230.85</ele>
        <time>2014-10-18T12:03:54Z</time>
      </trkpt>
      <trkpt lat="43.95711" lon="1.93188">
        <ele>230.85</ele>
        <time>2014-10-18T12:04:18Z</time>
      </trkpt>
      <trkpt lat="43.9571" lon="1.93186">
        <ele>231.33</ele>
        <time>2014-10-18T12:04:43Z</time>
      </trkpt>
      <trkpt lat="43.95714" lon="1.93177">
        <ele>231.33</ele>
        <time>2014-10-18T12:05:05Z</time>
      </trkpt>
      <trkpt lat="43.95712" lon="1.93178">
        <ele>231.33</ele>
        <time>2014-10-18T12:05:31Z</time>
      </trkpt>
      <trkpt lat="43.95711" lon="1.93179">
        <ele>231.33</ele>
        <time>2014-10-18T12:06:00Z</time>
      </trkpt>
      <trkpt lat="43.95712" lon="1.93178">
        <ele>231.81</ele>
        <time>2014-10-18T12:06:24Z</time>
      </trkpt>
      <trkpt lat="43.9571" lon="1.9318">
        <ele>231.81</ele>
        <time>2014-10-18T12:06:52Z</time>
      </trkpt>
      <trkpt lat="43.9571" lon="1.9318">
        <ele>231.33</ele>
        <time>2014-10-18T12:07:19Z</time>
      </trkpt>
      <trkpt lat="43.95711" lon="1.93182">
        <ele>231.81</ele>
        <time>2014-10-18T12:07:41Z</time>
      </trkpt>
      <trkpt lat="43.9571" lon="1.93182">
        <ele>231.81</ele>
        <time>2014-10-18T12:08:02Z</time>
      </trkpt>
      <trkpt lat="43.95713" lon="1.9318">
        <ele>231.81</ele>
        <time>2014-10-18T12:08:27Z</time>
      </trkpt>
      <trkpt lat="43.95712" lon="1.93182">
        <ele>231.81</ele>
        <time>2014-10-18T12:08:54Z</time>
      </trkpt>
      <trkpt lat="43.95715" lon="1.93183">
        <ele>231.81</ele>
        <time>2014-10-18T12:09:18Z</time>
      </trkpt>
      <trkpt lat="43.95714" lon="1.93179">
        <ele>231.81</ele>
        <time>2014-10-18T12:09:44Z</time>
      </trkpt>
      <trkpt lat="43.95719" lon="1.93177">
        <ele>231.81</ele>
        <time>2014-10-18T12:10:04Z</time>
      </trkpt>
      <trkpt lat="43.95726" lon="1.9316">
        <ele>231.81</ele>
        <time>2014-10-18T12:10:20Z</time>
      </trkpt>
      <trkpt lat="43.95735" lon="1.93144">
        <ele>231.33</ele>
        <time>2014-10-18T12:10:36Z</time>
      </trkpt>
      <trkpt lat="43.95738" lon="1.93139">
        <ele>230.85</ele>
        <time>2014-10-18T12:10:41Z</time>
      </trkpt>
      <trkpt lat="43.95747" lon="1.93118">
        <ele>230.37</ele>
        <time>2014-10-18T12:10:59Z</time>
      </trkpt>
      <trkpt lat="43.95756" lon="1.93102">
        <ele>229.89</ele>
        <time>2014-10-18T12:11:14Z</time>
      </trkpt>
      <trkpt lat="43.95763" lon="1.93091">
        <ele>228.45</ele>
        <time>2014-10-18T12:11:28Z</time>
      </trkpt>
      <trkpt lat="43.95774" lon="1.9308">
        <ele>227.01</ele>
        <time>2014-10-18T12:11:46Z</time>
      </trkpt>
      <trkpt lat="43.95783" lon="1.93069">
        <ele>224.61</ele>
        <time>2014-10-18T12:12:02Z</time>
      </trkpt>
      <trkpt lat="43.95783" lon="1.93069">
        <ele>224.61</ele>
        <time>2014-10-18T12:12:03Z</time>
      </trkpt>
      <trkpt lat="43.95801" lon="1.93068">
        <ele>222.2</ele>
        <time>2014-10-18T12:12:18Z</time>
      </trkpt>
      <trkpt lat="43.95808" lon="1.93057">
        <ele>220.28</ele>
        <time>2014-10-18T12:12:31Z</time>
      </trkpt>
      <trkpt lat="43.95811" lon="1.93044">
        <ele>218.84</ele>
        <time>2014-10-18T12:12:44Z</time>
      </trkpt>
      <trkpt lat="43.95816" lon="1.93029">
        <ele>216.91</ele>
        <time>2014-10-18T12:12:59Z</time>
      </trkpt>
      <trkpt lat="43.95823" lon="1.93012">
        <ele>214.99</ele>
        <time>2014-10-18T12:13:14Z</time>
      </trkpt>
      <trkpt lat="43.95828" lon="1.92998">
        <ele>213.55</ele>
        <time>2014-10-18T12:13:26Z</time>
      </trkpt>
      <trkpt lat="43.95834" lon="1.92981">
        <ele>212.11</ele>
        <time>2014-10-18T12:13:39Z</time>
      </trkpt>
      <trkpt lat="43.95843" lon="1.92961">
        <ele>211.15</ele>
        <time>2014-10-18T12:13:53Z</time>
      </trkpt>
      <trkpt lat="43.95852" lon="1.92941">
        <ele>209.7</ele>
        <time>2014-10-18T12:14:08Z</time>
      </trkpt>
      <trkpt lat="43.95858" lon="1.92923">
        <ele>209.22</ele>
        <time>2014-10-18T12:14:22Z</time>
      </trkpt>
      <trkpt lat="43.95859" lon="1.9292">
        <ele>208.74</ele>
        <time>2014-10-18T12:14:37Z</time>
      </trkpt>
      <trkpt lat="43.95861" lon="1.92917">
        <ele>208.74</ele>
        <time>2014-10-18T12:14:51Z</time>
      </trkpt>
      <trkpt lat="43.95861" lon="1.92914">
        <ele>208.74</ele>
        <time>2014-10-18T12:15:07Z</time>
      </trkpt>
      <trkpt lat="43.95859" lon="1.9291">
        <ele>208.26</ele>
        <time>2014-10-18T12:15:19Z</time>
      </trkpt>
      <trkpt lat="43.95858" lon="1.92914">
        <ele>207.78</ele>
        <time>2014-10-18T12:15:34Z</time>
      </trkpt>
      <trkpt lat="43.95857" lon="1.92912">
        <ele>208.26</ele>
        <time>2014-10-18T12:15:49Z</time>
      </trkpt>
      <trkpt lat="43.95855" lon="1.92913">
        <ele>208.26</ele>
        <time>2014-10-18T12:16:06Z</time>
      </trkpt>
      <trkpt lat="43.95853" lon="1.92914">
        <ele>208.26</ele>
        <time>2014-10-18T12:16:20Z</time>
      </trkpt>
      <trkpt lat="43.95851" lon="1.92912">
        <ele>207.78</ele>
        <time>2014-10-18T12:16:32Z</time>
      </trkpt>
      <trkpt lat="43.95849" lon="1.92912">
        <ele>207.78</ele>
        <time>2014-10-18T12:16:46Z</time>
      </trkpt>
      <trkpt lat="43.95851" lon="1.92911">
        <ele>207.78</ele>
        <time>2014-10-18T12:17:01Z</time>
      </trkpt>
      <trkpt lat="43.95853" lon="1.92909">
        <ele>207.3</ele>
        <time>2014-10-18T12:17:16Z</time>
      </trkpt>
      <trkpt lat="43.95853" lon="1.92909">
        <ele>207.3</ele>
        <time>2014-10-18T12:17:36Z</time>
      </trkpt>
      <trkpt lat="43.95852" lon="1.92909">
        <ele>207.3</ele>
        <time>2014-10-18T12:17:52Z</time>
      </trkpt>
      <trkpt lat="43.95854" lon="1.92905">
        <ele>207.3</ele>
        <time>2014-10-18T12:18:06Z</time>
      </trkpt>
      <trkpt lat="43.95857" lon="1.92907">
        <ele>206.82</ele>
        <time>2014-10-18T12:18:17Z</time>
      </trkpt>
      <trkpt lat="43.95857" lon="1.92907">
        <ele>207.3</ele>
        <time>2014-10-18T12:18:28Z</time>
      </trkpt>
      <trkpt lat="43.95856" lon="1.92908">
        <ele>207.3</ele>
        <time>2014-10-18T12:18:42Z</time>
      </trkpt>
      <trkpt lat="43.95856" lon="1.9291">
        <ele>207.3</ele>
        <time>2014-10-18T12:19:00Z</time>
      </trkpt>
      <trkpt lat="43.95857" lon="1.92912">
        <ele>207.3</ele>
        <time>2014-10-18T12:19:16Z</time>
      </trkpt>
      <trkpt lat="43.95858" lon="1.92912">
        <ele>207.3</ele>
        <time>2014-10-18T12:19:35Z</time>
      </trkpt>
      <trkpt lat="43.95861" lon="1.92914">
        <ele>207.78</ele>
        <time>2014-10-18T12:19:46Z</time>
      </trkpt>
      <trkpt lat="43.95862" lon="1.92909">
        <ele>207.78</ele>
        <time>2014-10-18T12:19:59Z</time>
      </trkpt>
      <trkpt lat="43.95864" lon="1.92907">
        <ele>207.78</ele>
        <time>2014-10-18T12:20:14Z</time>
      </trkpt>
      <trkpt lat="43.95867" lon="1.929">
        <ele>206.82</ele>
        <time>2014-10-18T12:20:26Z</time>
      </trkpt>
      <trkpt lat="43.95872" lon="1.92885">
        <ele>206.34</ele>
        <time>2014-10-18T12:20:40Z</time>
      </trkpt>
      <trkpt lat="43.95875" lon="1.92882">
        <ele>205.86</ele>
        <time>2014-10-18T12:20:53Z</time>
      </trkpt>
      <trkpt lat="43.95875" lon="1.92878">
        <ele>206.34</ele>
        <time>2014-10-18T12:21:10Z</time>
      </trkpt>
      <trkpt lat="43.95874" lon="1.92875">
        <ele>206.34</ele>
        <time>2014-10-18T12:21:29Z</time>
      </trkpt>
      <trkpt lat="43.95878" lon="1.92868">
        <ele>205.38</ele>
        <time>2014-10-18T12:21:43Z</time>
      </trkpt>
      <trkpt lat="43.95883" lon="1.92853">
        <ele>204.42</ele>
        <time>2014-10-18T12:21:55Z</time>
      </trkpt>
      <trkpt lat="43.95889" lon="1.92839">
        <ele>203.94</ele>
        <time>2014-10-18T12:22:07Z</time>
      </trkpt>
      <trkpt lat="43.95896" lon="1.92823">
        <ele>202.49</ele>
        <time>2014-10-18T12:22:20Z</time>
      </trkpt>
      <trkpt lat="43.95901" lon="1.92808">
        <ele>201.53</ele>
        <time>2014-10-18T12:22:34Z</time>
      </trkpt>
      <trkpt lat="43.95907" lon="1.92794">
        <ele>201.53</ele>
        <time>2014-10-18T12:22:45Z</time>
      </trkpt>
      <trkpt lat="43.95912" lon="1.92782">
        <ele>200.57</ele>
        <time>2014-10-18T12:22:57Z</time>
      </trkpt>
      <trkpt lat="43.95917" lon="1.92768">
        <ele>200.09</ele>
        <time>2014-10-18T12:23:11Z</time>
      </trkpt>
      <trkpt lat="43.95923" lon="1.92751">
        <ele>199.13</ele>
        <time>2014-10-18T12:23:25Z</time>
      </trkpt>
      <trkpt lat="43.95927" lon="1.92735">
        <ele>198.17</ele>
        <time>2014-10-18T12:23:38Z</time>
      </trkpt>
      <trkpt lat="43.95932" lon="1.9272">
        <ele>197.69</ele>
        <time>2014-10-18T12:23:51Z</time>
      </trkpt>
      <trkpt lat="43.95937" lon="1.92702">
        <ele>197.21</ele>
        <time>2014-10-18T12:24:05Z</time>
      </trkpt>
      <trkpt lat="43.95944" lon="1.92685">
        <ele>197.21</ele>
        <time>2014-10-18T12:24:20Z</time>
      </trkpt>
      <trkpt lat="43.95949" lon="1.92676">
        <ele>197.21</ele>
        <time>2014-10-18T12:24:29Z</time>
      </trkpt>
      <trkpt lat="43.95949" lon="1.92656">
        <ele>196.25</ele>
        <time>2014-10-18T12:24:42Z</time>
      </trkpt>
      <trkpt lat="43.95948" lon="1.92634">
        <ele>195.28</ele>
        <time>2014-10-18T12:24:57Z</time>
      </trkpt>
      <trkpt lat="43.95948" lon="1.92611">
        <ele>194.32</ele>
        <time>2014-10-18T12:25:14Z</time>
      </trkpt>
      <trkpt lat="43.9595" lon="1.92593">
        <ele>193.84</ele>
        <time>2014-10-18T12:25:28Z</time>
      </trkpt>
      <trkpt lat="43.95952" lon="1.92575">
        <ele>193.36</ele>
        <time>2014-10-18T12:25:41Z</time>
      </trkpt>
      <trkpt lat="43.9595" lon="1.92573">
        <ele>193.36</ele>
        <time>2014-10-18T12:25:44Z</time>
      </trkpt>
      <trkpt lat="43.9595" lon="1.92583">
        <ele>192.88</ele>
        <time>2014-10-18T12:25:54Z</time>
      </trkpt>
      <trkpt lat="43.9595" lon="1.92581">
        <ele>192.88</ele>
        <time>2014-10-18T12:26:23Z</time>
      </trkpt>
      <trkpt lat="43.95954" lon="1.92553">
        <ele>192.4</ele>
        <time>2014-10-18T12:26:38Z</time>
      </trkpt>
      <trkpt lat="43.95957" lon="1.92528">
        <ele>191.92</ele>
        <time>2014-10-18T12:26:52Z</time>
      </trkpt>
      <trkpt lat="43.9596" lon="1.92503">
        <ele>191.44</ele>
        <time>2014-10-18T12:27:06Z</time>
      </trkpt>
      <trkpt lat="43.95963" lon="1.9248">
        <ele>190.96</ele>
        <time>2014-10-18T12:27:20Z</time>
      </trkpt>
      <trkpt lat="43.95965" lon="1.92457">
        <ele>190.96</ele>
        <time>2014-10-18T12:27:33Z</time>
      </trkpt>
      <trkpt lat="43.95965" lon="1.92447">
        <ele>190.96</ele>
        <time>2014-10-18T12:27:46Z</time>
      </trkpt>
      <trkpt lat="43.95965" lon="1.92449">
        <ele>190.48</ele>
        <time>2014-10-18T12:28:03Z</time>
      </trkpt>
      <trkpt lat="43.95966" lon="1.92424">
        <ele>190.48</ele>
        <time>2014-10-18T12:28:15Z</time>
      </trkpt>
      <trkpt lat="43.95966" lon="1.92402">
        <ele>190</ele>
        <time>2014-10-18T12:28:28Z</time>
      </trkpt>
      <trkpt lat="43.95966" lon="1.92381">
        <ele>189.52</ele>
        <time>2014-10-18T12:28:41Z</time>
      </trkpt>
      <trkpt lat="43.95976" lon="1.92362">
        <ele>190</ele>
        <time>2014-10-18T12:28:54Z</time>
      </trkpt>
      <trkpt lat="43.95987" lon="1.9234">
        <ele>190.48</ele>
        <time>2014-10-18T12:29:09Z</time>
      </trkpt>
      <trkpt lat="43.95993" lon="1.92319">
        <ele>190</ele>
        <time>2014-10-18T12:29:22Z</time>
      </trkpt>
      <trkpt lat="43.95996" lon="1.92298">
        <ele>190</ele>
        <time>2014-10-18T12:29:34Z</time>
      </trkpt>
      <trkpt lat="43.95997" lon="1.92289">
        <ele>190</ele>
        <time>2014-10-18T12:29:40Z</time>
      </trkpt>
      <trkpt lat="43.95999" lon="1.92279">
        <ele>190</ele>
        <time>2014-10-18T12:29:48Z</time>
      </trkpt>
      <trkpt lat="43.95999" lon="1.92259">
        <ele>190</ele>
        <time>2014-10-18T12:30:03Z</time>
      </trkpt>
      <trkpt lat="43.95998" lon="1.92236">
        <ele>190</ele>
        <time>2014-10-18T12:30:20Z</time>
      </trkpt>
      <trkpt lat="43.95998" lon="1.9222">
        <ele>190.48</ele>
        <time>2014-10-18T12:30:31Z</time>
      </trkpt>
      <trkpt lat="43.95999" lon="1.92211">
        <ele>190</ele>
        <time>2014-10-18T12:30:38Z</time>
      </trkpt>
      <trkpt lat="43.95998" lon="1.9219">
        <ele>190.48</ele>
        <time>2014-10-18T12:30:53Z</time>
      </trkpt>
      <trkpt lat="43.95997" lon="1.9217">
        <ele>190.48</ele>
        <time>2014-10-18T12:31:07Z</time>
      </trkpt>
      <trkpt lat="43.95994" lon="1.9215">
        <ele>191.44</ele>
        <time>2014-10-18T12:31:21Z</time>
      </trkpt>
      <trkpt lat="43.95989" lon="1.92131">
        <ele>191.92</ele>
        <time>2014-10-18T12:31:35Z</time>
      </trkpt>
      <trkpt lat="43.95985" lon="1.92112">
        <ele>191.92</ele>
        <time>2014-10-18T12:31:49Z</time>
      </trkpt>
      <trkpt lat="43.95979" lon="1.92092">
        <ele>192.4</ele>
        <time>2014-10-18T12:32:03Z</time>
      </trkpt>
      <trkpt lat="43.95974" lon="1.92075">
        <ele>192.4</ele>
        <time>2014-10-18T12:32:16Z</time>
      </trkpt>
      <trkpt lat="43.95967" lon="1.92055">
        <ele>192.88</ele>
        <time>2014-10-18T12:32:31Z</time>
      </trkpt>
      <trkpt lat="43.95962" lon="1.9204">
        <ele>192.88</ele>
        <time>2014-10-18T12:32:42Z</time>
      </trkpt>
      <trkpt lat="43.95956" lon="1.92022">
        <ele>193.84</ele>
        <time>2014-10-18T12:32:55Z</time>
      </trkpt>
      <trkpt lat="43.95948" lon="1.92002">
        <ele>194.32</ele>
        <time>2014-10-18T12:33:10Z</time>
      </trkpt>
      <trkpt lat="43.95946" lon="1.91992">
        <ele>194.32</ele>
        <time>2014-10-18T12:33:20Z</time>
      </trkpt>
      <trkpt lat="43.95949" lon="1.91988">
        <ele>194.8</ele>
        <time>2014-10-18T12:33:25Z</time>
      </trkpt>
      <trkpt lat="43.95963" lon="1.91984">
        <ele>194.8</ele>
        <time>2014-10-18T12:33:40Z</time>
      </trkpt>
      <trkpt lat="43.95974" lon="1.9198">
        <ele>195.28</ele>
        <time>2014-10-18T12:33:52Z</time>
      </trkpt>
      <trkpt lat="43.95989" lon="1.91978">
        <ele>196.25</ele>
        <time>2014-10-18T12:34:07Z</time>
      </trkpt>
      <trkpt lat="43.96" lon="1.91977">
        <ele>197.21</ele>
        <time>2014-10-18T12:34:20Z</time>
      </trkpt>
      <trkpt lat="43.96012" lon="1.91979">
        <ele>198.17</ele>
        <time>2014-10-18T12:34:34Z</time>
      </trkpt>
      <trkpt lat="43.96018" lon="1.91981">
        <ele>199.13</ele>
        <time>2014-10-18T12:34:42Z</time>
      </trkpt>
      <trkpt lat="43.96031" lon="1.91988">
        <ele>199.13</ele>
        <time>2014-10-18T12:34:56Z</time>
      </trkpt>
      <trkpt lat="43.96045" lon="1.91989">
        <ele>200.09</ele>
        <time>2014-10-18T12:35:11Z</time>
      </trkpt>
      <trkpt lat="43.96059" lon="1.91987">
        <ele>199.13</ele>
        <time>2014-10-18T12:35:24Z</time>
      </trkpt>
      <trkpt lat="43.96072" lon="1.91986">
        <ele>197.69</ele>
        <time>2014-10-18T12:35:38Z</time>
      </trkpt>
      <trkpt lat="43.96087" lon="1.91987">
        <ele>196.73</ele>
        <time>2014-10-18T12:35:53Z</time>
      </trkpt>
      <trkpt lat="43.961" lon="1.91984">
        <ele>196.25</ele>
        <time>2014-10-18T12:36:06Z</time>
      </trkpt>
      <trkpt lat="43.96113" lon="1.91981">
        <ele>195.77</ele>
        <time>2014-10-18T12:36:20Z</time>
      </trkpt>
      <trkpt lat="43.96126" lon="1.9198">
        <ele>195.28</ele>
        <time>2014-10-18T12:36:35Z</time>
      </trkpt>
      <trkpt lat="43.96136" lon="1.91981">
        <ele>195.28</ele>
        <time>2014-10-18T12:36:46Z</time>
      </trkpt>
      <trkpt lat="43.96137" lon="1.91981">
        <ele>194.8</ele>
        <time>2014-10-18T12:36:47Z</time>
      </trkpt>
      <trkpt lat="43.96146" lon="1.91989">
        <ele>194.8</ele>
        <time>2014-10-18T12:37:00Z</time>
      </trkpt>
      <trkpt lat="43.96159" lon="1.91993">
        <ele>194.8</ele>
        <time>2014-10-18T12:37:14Z</time>
      </trkpt>
      <trkpt lat="43.96173" lon="1.91997">
        <ele>195.28</ele>
        <time>2014-10-18T12:37:27Z</time>
      </trkpt>
      <trkpt lat="43.96186" lon="1.92001">
        <ele>195.28</ele>
        <time>2014-10-18T12:37:39Z</time>
      </trkpt>
      <trkpt lat="43.96197" lon="1.92004">
        <ele>196.25</ele>
        <time>2014-10-18T12:37:51Z</time>
      </trkpt>
      <trkpt lat="43.96211" lon="1.92009">
        <ele>196.73</ele>
        <time>2014-10-18T12:38:05Z</time>
      </trkpt>
      <trkpt lat="43.96224" lon="1.92011">
        <ele>197.21</ele>
        <time>2014-10-18T12:38:18Z</time>
      </trkpt>
      <trkpt lat="43.96238" lon="1.92014">
        <ele>197.69</ele>
        <time>2014-10-18T12:38:33Z</time>
      </trkpt>
      <trkpt lat="43.96251" lon="1.92013">
        <ele>199.13</ele>
        <time>2014-10-18T12:38:47Z</time>
      </trkpt>
      <trkpt lat="43.96259" lon="1.92016">
        <ele>199.61</ele>
        <time>2014-10-18T12:39:01Z</time>
      </trkpt>
      <trkpt lat="43.96262" lon="1.92012">
        <ele>199.61</ele>
        <time>2014-10-18T12:39:07Z</time>
      </trkpt>
      <trkpt lat="43.96271" lon="1.92015">
        <ele>200.57</ele>
        <time>2014-10-18T12:39:19Z</time>
      </trkpt>
      <trkpt lat="43.96273" lon="1.92016">
        <ele>201.05</ele>
        <time>2014-10-18T12:39:21Z</time>
      </trkpt>
      <trkpt lat="43.96285" lon="1.92024">
        <ele>202.98</ele>
        <time>2014-10-18T12:39:36Z</time>
      </trkpt>
      <trkpt lat="43.96299" lon="1.92031">
        <ele>204.9</ele>
        <time>2014-10-18T12:39:53Z</time>
      </trkpt>
      <trkpt lat="43.96312" lon="1.92036">
        <ele>206.82</ele>
        <time>2014-10-18T12:40:07Z</time>
      </trkpt>
      <trkpt lat="43.96323" lon="1.92043">
        <ele>208.26</ele>
        <time>2014-10-18T12:40:19Z</time>
      </trkpt>
      <trkpt lat="43.96333" lon="1.9205">
        <ele>209.7</ele>
        <time>2014-10-18T12:40:32Z</time>
      </trkpt>
      <trkpt lat="43.96345" lon="1.92059">
        <ele>212.11</ele>
        <time>2014-10-18T12:40:48Z</time>
      </trkpt>
      <trkpt lat="43.96355" lon="1.92059">
        <ele>213.07</ele>
        <time>2014-10-18T12:41:01Z</time>
      </trkpt>
      <trkpt lat="43.96356" lon="1.92058">
        <ele>212.59</ele>
        <time>2014-10-18T12:41:02Z</time>
      </trkpt>
      <trkpt lat="43.96365" lon="1.92043">
        <ele>211.63</ele>
        <time>2014-10-18T12:41:16Z</time>
      </trkpt>
      <trkpt lat="43.96372" lon="1.92027">
        <ele>211.63</ele>
        <time>2014-10-18T12:41:30Z</time>
      </trkpt>
      <trkpt lat="43.96381" lon="1.92013">
        <ele>213.07</ele>
        <time>2014-10-18T12:41:44Z</time>
      </trkpt>
      <trkpt lat="43.9639" lon="1.91998">
        <ele>213.55</ele>
        <time>2014-10-18T12:41:59Z</time>
      </trkpt>
      <trkpt lat="43.96396" lon="1.92001">
        <ele>214.51</ele>
        <time>2014-10-18T12:42:10Z</time>
      </trkpt>
      <trkpt lat="43.96399" lon="1.92014">
        <ele>214.99</ele>
        <time>2014-10-18T12:42:21Z</time>
      </trkpt>
      <trkpt lat="43.96404" lon="1.9203">
        <ele>215.95</ele>
        <time>2014-10-18T12:42:35Z</time>
      </trkpt>
      <trkpt lat="43.96407" lon="1.92047">
        <ele>216.91</ele>
        <time>2014-10-18T12:42:48Z</time>
      </trkpt>
      <trkpt lat="43.96408" lon="1.92058">
        <ele>217.88</ele>
        <time>2014-10-18T12:43:02Z</time>
      </trkpt>
      <trkpt lat="43.96411" lon="1.92063">
        <ele>219.32</ele>
        <time>2014-10-18T12:43:13Z</time>
      </trkpt>
      <trkpt lat="43.96421" lon="1.92063">
        <ele>220.76</ele>
        <time>2014-10-18T12:43:25Z</time>
      </trkpt>
      <trkpt lat="43.96428" lon="1.92051">
        <ele>222.2</ele>
        <time>2014-10-18T12:43:39Z</time>
      </trkpt>
      <trkpt lat="43.96435" lon="1.92033">
        <ele>224.61</ele>
        <time>2014-10-18T12:43:53Z</time>
      </trkpt>
      <trkpt lat="43.96441" lon="1.92021">
        <ele>225.57</ele>
        <time>2014-10-18T12:44:06Z</time>
      </trkpt>
      <trkpt lat="43.96447" lon="1.92009">
        <ele>226.05</ele>
        <time>2014-10-18T12:44:22Z</time>
      </trkpt>
      <trkpt lat="43.96447" lon="1.9201">
        <ele>226.05</ele>
        <time>2014-10-18T12:44:37Z</time>
      </trkpt>
      <trkpt lat="43.96449" lon="1.9201">
        <ele>226.05</ele>
        <time>2014-10-18T12:44:51Z</time>
      </trkpt>
      <trkpt lat="43.96454" lon="1.9201">
        <ele>226.53</ele>
        <time>2014-10-18T12:45:01Z</time>
      </trkpt>
      <trkpt lat="43.96456" lon="1.92008">
        <ele>226.53</ele>
        <time>2014-10-18T12:45:19Z</time>
      </trkpt>
      <trkpt lat="43.96454" lon="1.92006">
        <ele>226.53</ele>
        <time>2014-10-18T12:45:34Z</time>
      </trkpt>
      <trkpt lat="43.96453" lon="1.92006">
        <ele>226.53</ele>
        <time>2014-10-18T12:45:51Z</time>
      </trkpt>
      <trkpt lat="43.96453" lon="1.92007">
        <ele>226.05</ele>
        <time>2014-10-18T12:46:04Z</time>
      </trkpt>
      <trkpt lat="43.96453" lon="1.92005">
        <ele>226.53</ele>
        <time>2014-10-18T12:46:16Z</time>
      </trkpt>
      <trkpt lat="43.96456" lon="1.92011">
        <ele>226.05</ele>
        <time>2014-10-18T12:46:31Z</time>
      </trkpt>
      <trkpt lat="43.96454" lon="1.92007">
        <ele>226.05</ele>
        <time>2014-10-18T12:46:42Z</time>
      </trkpt>
      <trkpt lat="43.96455" lon="1.92007">
        <ele>226.53</ele>
        <time>2014-10-18T12:46:58Z</time>
      </trkpt>
      <trkpt lat="43.96453" lon="1.92009">
        <ele>226.53</ele>
        <time>2014-10-18T12:47:17Z</time>
      </trkpt>
      <trkpt lat="43.96454" lon="1.9201">
        <ele>226.53</ele>
        <time>2014-10-18T12:47:30Z</time>
      </trkpt>
      <trkpt lat="43.96455" lon="1.9201">
        <ele>226.53</ele>
        <time>2014-10-18T12:47:56Z</time>
      </trkpt>
      <trkpt lat="43.96454" lon="1.92009">
        <ele>226.53</ele>
        <time>2014-10-18T12:48:18Z</time>
      </trkpt>
      <trkpt lat="43.96453" lon="1.92009">
        <ele>226.53</ele>
        <time>2014-10-18T12:48:44Z</time>
      </trkpt>
      <trkpt lat="43.96452" lon="1.92011">
        <ele>226.53</ele>
        <time>2014-10-18T12:49:09Z</time>
      </trkpt>
      <trkpt lat="43.96457" lon="1.92009">
        <ele>226.53</ele>
        <time>2014-10-18T12:49:24Z</time>
      </trkpt>
      <trkpt lat="43.96466" lon="1.92009">
        <ele>227.49</ele>
        <time>2014-10-18T12:49:34Z</time>
      </trkpt>
      <trkpt lat="43.9648" lon="1.92017">
        <ele>227.97</ele>
        <time>2014-10-18T12:49:49Z</time>
      </trkpt>
      <trkpt lat="43.96496" lon="1.92025">
        <ele>228.93</ele>
        <time>2014-10-18T12:50:02Z</time>
      </trkpt>
      <trkpt lat="43.96514" lon="1.92031">
        <ele>228.93</ele>
        <time>2014-10-18T12:50:17Z</time>
      </trkpt>
      <trkpt lat="43.9653" lon="1.92031">
        <ele>228.93</ele>
        <time>2014-10-18T12:50:30Z</time>
      </trkpt>
      <trkpt lat="43.96548" lon="1.92028">
        <ele>229.41</ele>
        <time>2014-10-18T12:50:45Z</time>
      </trkpt>
      <trkpt lat="43.96568" lon="1.92027">
        <ele>229.89</ele>
        <time>2014-10-18T12:51:01Z</time>
      </trkpt>
      <trkpt lat="43.96581" lon="1.9203">
        <ele>230.37</ele>
        <time>2014-10-18T12:51:14Z</time>
      </trkpt>
      <trkpt lat="43.96599" lon="1.92039">
        <ele>230.85</ele>
        <time>2014-10-18T12:51:30Z</time>
      </trkpt>
      <trkpt lat="43.96617" lon="1.92044">
        <ele>231.81</ele>
        <time>2014-10-18T12:51:44Z</time>
      </trkpt>
      <trkpt lat="43.96636" lon="1.92044">
        <ele>232.78</ele>
        <time>2014-10-18T12:51:59Z</time>
      </trkpt>
      <trkpt lat="43.96651" lon="1.9204">
        <ele>232.78</ele>
        <time>2014-10-18T12:52:12Z</time>
      </trkpt>
      <trkpt lat="43.96667" lon="1.92035">
        <ele>234.22</ele>
        <time>2014-10-18T12:52:25Z</time>
      </trkpt>
      <trkpt lat="43.96682" lon="1.9203">
        <ele>235.18</ele>
        <time>2014-10-18T12:52:38Z</time>
      </trkpt>
      <trkpt lat="43.96694" lon="1.92023">
        <ele>235.18</ele>
        <time>2014-10-18T12:52:50Z</time>
      </trkpt>
      <trkpt lat="43.96711" lon="1.92015">
        <ele>236.14</ele>
        <time>2014-10-18T12:53:05Z</time>
      </trkpt>
      <trkpt lat="43.9673" lon="1.92007">
        <ele>236.62</ele>
        <time>2014-10-18T12:53:21Z</time>
      </trkpt>
      <trkpt lat="43.96746" lon="1.92001">
        <ele>237.58</ele>
        <time>2014-10-18T12:53:36Z</time>
      </trkpt>
      <trkpt lat="43.96764" lon="1.91998">
        <ele>238.06</ele>
        <time>2014-10-18T12:53:52Z</time>
      </trkpt>
      <trkpt lat="43.96782" lon="1.91997">
        <ele>239.51</ele>
        <time>2014-10-18T12:54:07Z</time>
      </trkpt>
      <trkpt lat="43.96796" lon="1.91998">
        <ele>239.51</ele>
        <time>2014-10-18T12:54:19Z</time>
      </trkpt>
      <trkpt lat="43.96813" lon="1.92001">
        <ele>240.47</ele>
        <time>2014-10-18T12:54:34Z</time>
      </trkpt>
      <trkpt lat="43.96827" lon="1.92006">
        <ele>241.43</ele>
        <time>2014-10-18T12:54:46Z</time>
      </trkpt>
      <trkpt lat="43.96843" lon="1.92014">
        <ele>242.87</ele>
        <time>2014-10-18T12:55:01Z</time>
      </trkpt>
      <trkpt lat="43.96856" lon="1.9202">
        <ele>243.83</ele>
        <time>2014-10-18T12:55:13Z</time>
      </trkpt>
      <trkpt lat="43.96865" lon="1.92026">
        <ele>243.83</ele>
        <time>2014-10-18T12:55:23Z</time>
      </trkpt>
      <trkpt lat="43.96872" lon="1.92029">
        <ele>244.79</ele>
        <time>2014-10-18T12:55:30Z</time>
      </trkpt>
      <trkpt lat="43.96886" lon="1.92039">
        <ele>245.75</ele>
        <time>2014-10-18T12:55:44Z</time>
      </trkpt>
      <trkpt lat="43.96897" lon="1.92046">
        <ele>246.72</ele>
        <time>2014-10-18T12:55:55Z</time>
      </trkpt>
      <trkpt lat="43.96909" lon="1.92056">
        <ele>247.68</ele>
        <time>2014-10-18T12:56:08Z</time>
      </trkpt>
      <trkpt lat="43.96922" lon="1.9207">
        <ele>249.6</ele>
        <time>2014-10-18T12:56:23Z</time>
      </trkpt>
      <trkpt lat="43.96933" lon="1.9208">
        <ele>251.04</ele>
        <time>2014-10-18T12:56:34Z</time>
      </trkpt>
      <trkpt lat="43.96946" lon="1.92094">
        <ele>252</ele>
        <time>2014-10-18T12:56:48Z</time>
      </trkpt>
      <trkpt lat="43.96957" lon="1.92106">
        <ele>253.44</ele>
        <time>2014-10-18T12:57:01Z</time>
      </trkpt>
      <trkpt lat="43.96968" lon="1.92119">
        <ele>254.89</ele>
        <time>2014-10-18T12:57:14Z</time>
      </trkpt>
      <trkpt lat="43.96979" lon="1.92134">
        <ele>256.33</ele>
        <time>2014-10-18T12:57:27Z</time>
      </trkpt>
      <trkpt lat="43.9699" lon="1.92149">
        <ele>257.29</ele>
        <time>2014-10-18T12:57:41Z</time>
      </trkpt>
      <trkpt lat="43.97001" lon="1.92156">
        <ele>257.77</ele>
        <time>2014-10-18T12:57:52Z</time>
      </trkpt>
      <trkpt lat="43.97012" lon="1.92146">
        <ele>257.77</ele>
        <time>2014-10-18T12:58:05Z</time>
      </trkpt>
      <trkpt lat="43.97011" lon="1.92147">
        <ele>257.77</ele>
        <time>2014-10-18T12:58:21Z</time>
      </trkpt>
      <trkpt lat="43.97011" lon="1.92148">
        <ele>257.77</ele>
        <time>2014-10-18T12:58:34Z</time>
      </trkpt>
      <trkpt lat="43.97011" lon="1.92147">
        <ele>257.77</ele>
        <time>2014-10-18T12:58:54Z</time>
      </trkpt>
      <trkpt lat="43.97015" lon="1.92142">
        <ele>258.25</ele>
        <time>2014-10-18T12:59:09Z</time>
      </trkpt>
      <trkpt lat="43.97022" lon="1.92131">
        <ele>257.77</ele>
        <time>2014-10-18T12:59:24Z</time>
      </trkpt>
      <trkpt lat="43.97033" lon="1.92117">
        <ele>257.77</ele>
        <time>2014-10-18T12:59:39Z</time>
      </trkpt>
      <trkpt lat="43.97045" lon="1.92106">
        <ele>257.77</ele>
        <time>2014-10-18T12:59:53Z</time>
      </trkpt>
      <trkpt lat="43.97058" lon="1.92098">
        <ele>257.77</ele>
        <time>2014-10-18T13:00:07Z</time>
      </trkpt>
      <trkpt lat="43.97073" lon="1.92096">
        <ele>257.77</ele>
        <time>2014-10-18T13:00:21Z</time>
      </trkpt>
      <trkpt lat="43.97087" lon="1.92098">
        <ele>257.77</ele>
        <time>2014-10-18T13:00:34Z</time>
      </trkpt>
      <trkpt lat="43.97106" lon="1.92093">
        <ele>257.29</ele>
        <time>2014-10-18T13:00:49Z</time>
      </trkpt>
      <trkpt lat="43.97121" lon="1.9208">
        <ele>257.29</ele>
        <time>2014-10-18T13:01:04Z</time>
      </trkpt>
      <trkpt lat="43.97135" lon="1.92062">
        <ele>257.29</ele>
        <time>2014-10-18T13:01:21Z</time>
      </trkpt>
      <trkpt lat="43.97147" lon="1.92046">
        <ele>257.29</ele>
        <time>2014-10-18T13:01:36Z</time>
      </trkpt>
      <trkpt lat="43.97159" lon="1.9203">
        <ele>256.81</ele>
        <time>2014-10-18T13:01:50Z</time>
      </trkpt>
      <trkpt lat="43.97172" lon="1.92014">
        <ele>256.33</ele>
        <time>2014-10-18T13:02:04Z</time>
      </trkpt>
      <trkpt lat="43.97184" lon="1.91996">
        <ele>255.85</ele>
        <time>2014-10-18T13:02:19Z</time>
      </trkpt>
      <trkpt lat="43.97197" lon="1.91974">
        <ele>254.89</ele>
        <time>2014-10-18T13:02:36Z</time>
      </trkpt>
      <trkpt lat="43.97206" lon="1.91951">
        <ele>254.41</ele>
        <time>2014-10-18T13:02:52Z</time>
      </trkpt>
      <trkpt lat="43.97213" lon="1.91931">
        <ele>253.93</ele>
        <time>2014-10-18T13:03:06Z</time>
      </trkpt>
      <trkpt lat="43.9722" lon="1.91912">
        <ele>253.44</ele>
        <time>2014-10-18T13:03:21Z</time>
      </trkpt>
      <trkpt lat="43.97223" lon="1.91902">
        <ele>252.96</ele>
        <time>2014-10-18T13:03:33Z</time>
      </trkpt>
      <trkpt lat="43.9722" lon="1.91906">
        <ele>252.48</ele>
        <time>2014-10-18T13:03:45Z</time>
      </trkpt>
      <trkpt lat="43.97219" lon="1.91908">
        <ele>252.48</ele>
        <time>2014-10-18T13:03:59Z</time>
      </trkpt>
      <trkpt lat="43.97218" lon="1.91911">
        <ele>252.96</ele>
        <time>2014-10-18T13:04:04Z</time>
      </trkpt>
      <trkpt lat="43.97226" lon="1.91922">
        <ele>252.96</ele>
        <time>2014-10-18T13:04:16Z</time>
      </trkpt>
      <trkpt lat="43.97234" lon="1.91936">
        <ele>252</ele>
        <time>2014-10-18T13:04:29Z</time>
      </trkpt>
      <trkpt lat="43.97243" lon="1.91946">
        <ele>251.04</ele>
        <time>2014-10-18T13:04:40Z</time>
      </trkpt>
      <trkpt lat="43.97253" lon="1.91955">
        <ele>250.08</ele>
        <time>2014-10-18T13:04:53Z</time>
      </trkpt>
      <trkpt lat="43.97263" lon="1.91968">
        <ele>248.64</ele>
        <time>2014-10-18T13:05:06Z</time>
      </trkpt>
      <trkpt lat="43.97275" lon="1.91983">
        <ele>247.68</ele>
        <time>2014-10-18T13:05:20Z</time>
      </trkpt>
      <trkpt lat="43.97288" lon="1.91999">
        <ele>246.72</ele>
        <time>2014-10-18T13:05:37Z</time>
      </trkpt>
      <trkpt lat="43.97298" lon="1.9201">
        <ele>246.23</ele>
        <time>2014-10-18T13:05:49Z</time>
      </trkpt>
      <trkpt lat="43.97309" lon="1.92021">
        <ele>245.75</ele>
        <time>2014-10-18T13:06:02Z</time>
      </trkpt>
      <trkpt lat="43.9732" lon="1.92034">
        <ele>245.75</ele>
        <time>2014-10-18T13:06:15Z</time>
      </trkpt>
      <trkpt lat="43.97331" lon="1.92047">
        <ele>245.75</ele>
        <time>2014-10-18T13:06:29Z</time>
      </trkpt>
      <trkpt lat="43.97343" lon="1.92058">
        <ele>245.75</ele>
        <time>2014-10-18T13:06:42Z</time>
      </trkpt>
      <trkpt lat="43.97355" lon="1.92072">
        <ele>245.75</ele>
        <time>2014-10-18T13:06:57Z</time>
      </trkpt>
      <trkpt lat="43.97368" lon="1.92088">
        <ele>244.79</ele>
        <time>2014-10-18T13:07:16Z</time>
      </trkpt>
      <trkpt lat="43.97387" lon="1.92107">
        <ele>243.83</ele>
        <time>2014-10-18T13:07:38Z</time>
      </trkpt>
      <trkpt lat="43.974" lon="1.92123">
        <ele>242.39</ele>
        <time>2014-10-18T13:07:55Z</time>
      </trkpt>
      <trkpt lat="43.97415" lon="1.92139">
        <ele>240.47</ele>
        <time>2014-10-18T13:08:12Z</time>
      </trkpt>
      <trkpt lat="43.97431" lon="1.92159">
        <ele>239.02</ele>
        <time>2014-10-18T13:08:31Z</time>
      </trkpt>
      <trkpt lat="43.97445" lon="1.92178">
        <ele>237.58</ele>
        <time>2014-10-18T13:08:50Z</time>
      </trkpt>
      <trkpt lat="43.97461" lon="1.92193">
        <ele>235.66</ele>
        <time>2014-10-18T13:09:08Z</time>
      </trkpt>
      <trkpt lat="43.97472" lon="1.92211">
        <ele>234.7</ele>
        <time>2014-10-18T13:09:26Z</time>
      </trkpt>
      <trkpt lat="43.97489" lon="1.92226">
        <ele>233.74</ele>
        <time>2014-10-18T13:09:44Z</time>
      </trkpt>
      <trkpt lat="43.97507" lon="1.92244">
        <ele>233.74</ele>
        <time>2014-10-18T13:10:03Z</time>
      </trkpt>
      <trkpt lat="43.9752" lon="1.92258">
        <ele>232.3</ele>
        <time>2014-10-18T13:10:18Z</time>
      </trkpt>
      <trkpt lat="43.97534" lon="1.92248">
        <ele>231.81</ele>
        <time>2014-10-18T13:10:32Z</time>
      </trkpt>
      <trkpt lat="43.97535" lon="1.92246">
        <ele>231.81</ele>
        <time>2014-10-18T13:10:33Z</time>
      </trkpt>
      <trkpt lat="43.97545" lon="1.92217">
        <ele>232.78</ele>
        <time>2014-10-18T13:10:53Z</time>
      </trkpt>
      <trkpt lat="43.97554" lon="1.92197">
        <ele>231.81</ele>
        <time>2014-10-18T13:11:10Z</time>
      </trkpt>
      <trkpt lat="43.97565" lon="1.92176">
        <ele>231.81</ele>
        <time>2014-10-18T13:11:26Z</time>
      </trkpt>
      <trkpt lat="43.9758" lon="1.92157">
        <ele>233.74</ele>
        <time>2014-10-18T13:11:44Z</time>
      </trkpt>
      <trkpt lat="43.97589" lon="1.92144">
        <ele>233.26</ele>
        <time>2014-10-18T13:12:00Z</time>
      </trkpt>
      <trkpt lat="43.9759" lon="1.92142">
        <ele>233.26</ele>
        <time>2014-10-18T13:12:17Z</time>
      </trkpt>
      <trkpt lat="43.97595" lon="1.92132">
        <ele>233.26</ele>
        <time>2014-10-18T13:12:33Z</time>
      </trkpt>
      <trkpt lat="43.97608" lon="1.92113">
        <ele>232.3</ele>
        <time>2014-10-18T13:12:53Z</time>
      </trkpt>
      <trkpt lat="43.9762" lon="1.92086">
        <ele>231.81</ele>
        <time>2014-10-18T13:13:14Z</time>
      </trkpt>
      <trkpt lat="43.97633" lon="1.92061">
        <ele>231.33</ele>
        <time>2014-10-18T13:13:35Z</time>
      </trkpt>
      <trkpt lat="43.97645" lon="1.92036">
        <ele>230.85</ele>
        <time>2014-10-18T13:13:56Z</time>
      </trkpt>
      <trkpt lat="43.97661" lon="1.92012">
        <ele>229.41</ele>
        <time>2014-10-18T13:14:16Z</time>
      </trkpt>
      <trkpt lat="43.97677" lon="1.9199">
        <ele>229.41</ele>
        <time>2014-10-18T13:14:36Z</time>
      </trkpt>
      <trkpt lat="43.97694" lon="1.91968">
        <ele>229.41</ele>
        <time>2014-10-18T13:14:56Z</time>
      </trkpt>
      <trkpt lat="43.97708" lon="1.91951">
        <ele>228.93</ele>
        <time>2014-10-18T13:15:15Z</time>
      </trkpt>
      <trkpt lat="43.97724" lon="1.91936">
        <ele>228.93</ele>
        <time>2014-10-18T13:15:31Z</time>
      </trkpt>
      <trkpt lat="43.97739" lon="1.91919">
        <ele>228.45</ele>
        <time>2014-10-18T13:15:50Z</time>
      </trkpt>
      <trkpt lat="43.97755" lon="1.91905">
        <ele>227.97</ele>
        <time>2014-10-18T13:16:09Z</time>
      </trkpt>
      <trkpt lat="43.97765" lon="1.91898">
        <ele>227.97</ele>
        <time>2014-10-18T13:16:20Z</time>
      </trkpt>
      <trkpt lat="43.97782" lon="1.91887">
        <ele>227.49</ele>
        <time>2014-10-18T13:16:37Z</time>
      </trkpt>
      <trkpt lat="43.97794" lon="1.91878">
        <ele>226.53</ele>
        <time>2014-10-18T13:16:50Z</time>
      </trkpt>
      <trkpt lat="43.97811" lon="1.91867">
        <ele>226.53</ele>
        <time>2014-10-18T13:17:08Z</time>
      </trkpt>
      <trkpt lat="43.97827" lon="1.91859">
        <ele>226.05</ele>
        <time>2014-10-18T13:17:24Z</time>
      </trkpt>
      <trkpt lat="43.97844" lon="1.91852">
        <ele>225.57</ele>
        <time>2014-10-18T13:17:40Z</time>
      </trkpt>
      <trkpt lat="43.97863" lon="1.91842">
        <ele>225.09</ele>
        <time>2014-10-18T13:17:58Z</time>
      </trkpt>
      <trkpt lat="43.97883" lon="1.91828">
        <ele>223.64</ele>
        <time>2014-10-18T13:18:18Z</time>
      </trkpt>
      <trkpt lat="43.97898" lon="1.91816">
        <ele>223.16</ele>
        <time>2014-10-18T13:18:35Z</time>
      </trkpt>
      <trkpt lat="43.97914" lon="1.91804">
        <ele>222.2</ele>
        <time>2014-10-18T13:18:53Z</time>
      </trkpt>
      <trkpt lat="43.97927" lon="1.91794">
        <ele>220.76</ele>
        <time>2014-10-18T13:19:08Z</time>
      </trkpt>
      <trkpt lat="43.97946" lon="1.91784">
        <ele>220.28</ele>
        <time>2014-10-18T13:19:27Z</time>
      </trkpt>
      <trkpt lat="43.97948" lon="1.91784">
        <ele>220.76</ele>
        <time>2014-10-18T13:19:29Z</time>
      </trkpt>
      <trkpt lat="43.97964" lon="1.91772">
        <ele>219.32</ele>
        <time>2014-10-18T13:19:48Z</time>
      </trkpt>
      <trkpt lat="43.97979" lon="1.91757">
        <ele>218.36</ele>
        <time>2014-10-18T13:20:04Z</time>
      </trkpt>
      <trkpt lat="43.97997" lon="1.9174">
        <ele>216.91</ele>
        <time>2014-10-18T13:20:25Z</time>
      </trkpt>
      <trkpt lat="43.98002" lon="1.91736">
        <ele>216.43</ele>
        <time>2014-10-18T13:20:30Z</time>
      </trkpt>
      <trkpt lat="43.98026" lon="1.91723">
        <ele>214.99</ele>
        <time>2014-10-18T13:20:53Z</time>
      </trkpt>
      <trkpt lat="43.98045" lon="1.91714">
        <ele>212.59</ele>
        <time>2014-10-18T13:21:14Z</time>
      </trkpt>
      <trkpt lat="43.98063" lon="1.91705">
        <ele>209.7</ele>
        <time>2014-10-18T13:21:34Z</time>
      </trkpt>
      <trkpt lat="43.98074" lon="1.9169">
        <ele>207.3</ele>
        <time>2014-10-18T13:21:49Z</time>
      </trkpt>
      <trkpt lat="43.98078" lon="1.91678">
        <ele>206.34</ele>
        <time>2014-10-18T13:21:58Z</time>
      </trkpt>
      <trkpt lat="43.98086" lon="1.91648">
        <ele>204.9</ele>
        <time>2014-10-18T13:22:18Z</time>
      </trkpt>
      <trkpt lat="43.98095" lon="1.91619">
        <ele>203.46</ele>
        <time>2014-10-18T13:22:39Z</time>
      </trkpt>
      <trkpt lat="43.98102" lon="1.9159">
        <ele>202.49</ele>
        <time>2014-10-18T13:22:58Z</time>
      </trkpt>
      <trkpt lat="43.98105" lon="1.9156">
        <ele>201.53</ele>
        <time>2014-10-18T13:23:19Z</time>
      </trkpt>
      <trkpt lat="43.98107" lon="1.91533">
        <ele>200.57</ele>
        <time>2014-10-18T13:23:37Z</time>
      </trkpt>
      <trkpt lat="43.98112" lon="1.91502">
        <ele>200.57</ele>
        <time>2014-10-18T13:23:58Z</time>
      </trkpt>
      <trkpt lat="43.98114" lon="1.91471">
        <ele>199.61</ele>
        <time>2014-10-18T13:24:18Z</time>
      </trkpt>
      <trkpt lat="43.98116" lon="1.91467">
        <ele>199.61</ele>
        <time>2014-10-18T13:24:21Z</time>
      </trkpt>
      <trkpt lat="43.98124" lon="1.9145">
        <ele>199.13</ele>
        <time>2014-10-18T13:24:33Z</time>
      </trkpt>
      <trkpt lat="43.98132" lon="1.91421">
        <ele>199.13</ele>
        <time>2014-10-18T13:24:53Z</time>
      </trkpt>
      <trkpt lat="43.98134" lon="1.91412">
        <ele>199.13</ele>
        <time>2014-10-18T13:25:06Z</time>
      </trkpt>
      <trkpt lat="43.98136" lon="1.91403">
        <ele>198.65</ele>
        <time>2014-10-18T13:25:20Z</time>
      </trkpt>
      <trkpt lat="43.98139" lon="1.91382">
        <ele>198.65</ele>
        <time>2014-10-18T13:25:38Z</time>
      </trkpt>
      <trkpt lat="43.98141" lon="1.91354">
        <ele>198.17</ele>
        <time>2014-10-18T13:25:58Z</time>
      </trkpt>
      <trkpt lat="43.98143" lon="1.91327">
        <ele>198.65</ele>
        <time>2014-10-18T13:26:16Z</time>
      </trkpt>
      <trkpt lat="43.98141" lon="1.91295">
        <ele>199.61</ele>
        <time>2014-10-18T13:26:35Z</time>
      </trkpt>
      <trkpt lat="43.98142" lon="1.91287">
        <ele>200.09</ele>
        <time>2014-10-18T13:26:40Z</time>
      </trkpt>
      <trkpt lat="43.98148" lon="1.91263">
        <ele>201.05</ele>
        <time>2014-10-18T13:26:57Z</time>
      </trkpt>
      <trkpt lat="43.98158" lon="1.91239">
        <ele>201.53</ele>
        <time>2014-10-18T13:27:15Z</time>
      </trkpt>
      <trkpt lat="43.98161" lon="1.91232">
        <ele>201.53</ele>
        <time>2014-10-18T13:27:19Z</time>
      </trkpt>
      <trkpt lat="43.9818" lon="1.91213">
        <ele>202.01</ele>
        <time>2014-10-18T13:27:37Z</time>
      </trkpt>
      <trkpt lat="43.98201" lon="1.91196">
        <ele>201.53</ele>
        <time>2014-10-18T13:27:57Z</time>
      </trkpt>
      <trkpt lat="43.98216" lon="1.91188">
        <ele>201.53</ele>
        <time>2014-10-18T13:28:12Z</time>
      </trkpt>
      <trkpt lat="43.98233" lon="1.91181">
        <ele>202.98</ele>
        <time>2014-10-18T13:28:29Z</time>
      </trkpt>
      <trkpt lat="43.98248" lon="1.91164">
        <ele>203.94</ele>
        <time>2014-10-18T13:28:44Z</time>
      </trkpt>
      <trkpt lat="43.98268" lon="1.9115">
        <ele>203.94</ele>
        <time>2014-10-18T13:29:04Z</time>
      </trkpt>
      <trkpt lat="43.98284" lon="1.91146">
        <ele>203.94</ele>
        <time>2014-10-18T13:29:19Z</time>
      </trkpt>
      <trkpt lat="43.98292" lon="1.9113">
        <ele>204.9</ele>
        <time>2014-10-18T13:29:35Z</time>
      </trkpt>
      <trkpt lat="43.98294" lon="1.91121">
        <ele>205.38</ele>
        <time>2014-10-18T13:29:55Z</time>
      </trkpt>
      <trkpt lat="43.98295" lon="1.91121">
        <ele>204.9</ele>
        <time>2014-10-18T13:30:13Z</time>
      </trkpt>
      <trkpt lat="43.98296" lon="1.91124">
        <ele>204.9</ele>
        <time>2014-10-18T13:30:33Z</time>
      </trkpt>
      <trkpt lat="43.98301" lon="1.91125">
        <ele>204.9</ele>
        <time>2014-10-18T13:30:50Z</time>
      </trkpt>
      <trkpt lat="43.98307" lon="1.91121">
        <ele>205.38</ele>
        <time>2014-10-18T13:30:57Z</time>
      </trkpt>
      <trkpt lat="43.9831" lon="1.9112">
        <ele>205.86</ele>
        <time>2014-10-18T13:30:59Z</time>
      </trkpt>
      <trkpt lat="43.98321" lon="1.91101">
        <ele>206.82</ele>
        <time>2014-10-18T13:31:13Z</time>
      </trkpt>
      <trkpt lat="43.9833" lon="1.91088">
        <ele>207.3</ele>
        <time>2014-10-18T13:31:25Z</time>
      </trkpt>
      <trkpt lat="43.98338" lon="1.91074">
        <ele>206.82</ele>
        <time>2014-10-18T13:31:38Z</time>
      </trkpt>
      <trkpt lat="43.98339" lon="1.91068">
        <ele>206.82</ele>
        <time>2014-10-18T13:31:42Z</time>
      </trkpt>
      <trkpt lat="43.98347" lon="1.91047">
        <ele>205.38</ele>
        <time>2014-10-18T13:31:57Z</time>
      </trkpt>
      <trkpt lat="43.9835" lon="1.91041">
        <ele>204.9</ele>
        <time>2014-10-18T13:32:10Z</time>
      </trkpt>
      <trkpt lat="43.98349" lon="1.91039">
        <ele>205.38</ele>
        <time>2014-10-18T13:32:29Z</time>
      </trkpt>
      <trkpt lat="43.98348" lon="1.91034">
        <ele>204.42</ele>
        <time>2014-10-18T13:32:50Z</time>
      </trkpt>
      <trkpt lat="43.9835" lon="1.91036">
        <ele>204.9</ele>
        <time>2014-10-18T13:33:03Z</time>
      </trkpt>
      <trkpt lat="43.98349" lon="1.91032">
        <ele>204.9</ele>
        <time>2014-10-18T13:33:23Z</time>
      </trkpt>
      <trkpt lat="43.98347" lon="1.91029">
        <ele>204.9</ele>
        <time>2014-10-18T13:33:43Z</time>
      </trkpt>
      <trkpt lat="43.98347" lon="1.9103">
        <ele>204.9</ele>
        <time>2014-10-18T13:34:07Z</time>
      </trkpt>
    </trkseg>
  </trk>
</gpx>